[[{"header":{"parameterUnit":"m.s-1","parameterCategory":1,"la1":30.6,"la2":28.766,"lo1":-90.7593,"lo2":-88.6598,"dy":0.0162,"dx":0.0183,"nx":116,"ny":114,"refTime":"2023-03-17T18:00:00:Z","depth":0,"parameterNumber":2,"parameterNumberName":"U-component_of_WINDS"},"data":[0.0,0.0,0.0,0.0,0.0,0.0,0.0,0.0,0.0,0.0,0.0,0.0,0.0,0.0,0.0,0.0,0.0,0.0,0.0,0.0,0.0,0.0,0.0,0.0,0.0,0.0,0.0,0.0,0.0,0.0,0.0,0.0,0.0,0.0,0.0,0.0,0.0,0.0,0.0,0.0,0.0,0.0,0.0,0.0,0.0,0.0,0.0,0.0,0.0,0.0,0.0,0.0,0.0,0.0,0.0,0.0,0.0,0.0,0.0,0.0,0.0,0.0,0.0,0.0,0.0,0.0,0.0,0.0,0.0,0.0,0.0,0.0,0.0,0.0,0.0,0.0,0.0,0.0,0.0,0.0,0.0,0.0,0.0,0.0,0.0,0.0,0.0,0.0,0.0,0.0,0.0,0.0,0.0,0.0,0.0,0.0,0.0,0.0,0.0,0.0,0.0,0.0,0.0,0.0,0.0,0.0,0.0,0.0,0.0,0.0,0.0,0.0,0.0,0.0,0.0,0.0,0.0,0.0,0.0,0.0,0.0,0.0,0.0,0.0,0.0,0.0,0.0,0.0,0.0,0.0,0.0,0.0,0.0,0.0,0.0,0.0,0.0,0.0,0.0,0.0,0.0,0.0,0.0,0.0,0.0,0.0,0.0,0.0,0.0,0.0,0.0,0.0,0.0,0.0,0.0,0.0,0.0,0.0,0.0,0.0,0.0,0.0,0.0,0.0,0.0,0.0,0.0,0.0,0.0,0.0,0.0,0.0,0.0,0.0,0.0,0.0,0.0,0.0,0.0,0.0,0.0,0.0,0.0,0.0,0.0,0.0,0.0,0.0,0.0,0.0,0.0,0.0,0.0,0.0,0.0,0.0,0.0,0.0,0.0,0.0,0.0,0.0,0.0,0.0,0.0,0.0,0.0,0.0,0.0,0.0,0.0,0.0,0.0,0.0,0.0,0.0,0.0,0.0,0.0,0.0,0.0,0.0,0.0,0.0,0.0,0.0,0.0,0.0,0.0,0.0,0.0,0.0,0.0,0.0,0.0,0.0,0.0,0.0,0.0,0.0,0.0,0.0,0.0,0.0,0.0,0.0,0.0,0.0,0.0,0.0,0.0,0.0,0.0,0.0,0.0,0.0,0.0,0.0,0.0,0.0,0.0,0.0,0.0,0.0,0.0,0.0,0.0,0.0,0.0,0.0,0.0,0.0,0.0,0.0,0.0,0.0,0.0,0.0,0.0,0.0,0.0,0.0,0.0,0.0,0.0,0.0,0.0,0.0,0.0,0.0,0.0,0.0,0.0,0.0,0.0,0.0,0.0,0.0,0.0,0.0,0.0,0.0,0.0,0.0,0.0,0.0,0.0,0.0,0.0,0.0,0.0,0.0,0.0,0.0,0.0,0.0,0.0,0.0,0.0,0.0,0.0,0.0,0.0,0.0,0.0,0.0,0.0,0.0,0.0,0.0,0.0,0.0,0.0,0.0,0.0,0.0,0.0,0.0,0.0,0.0,0.0,0.0,0.0,0.0,0.0,0.0,0.0,0.0,0.0,0.0,0.0,0.0,0.0,0.0,0.0,0.0,0.0,0.0,0.0,0.0,0.0,0.0,0.0,0.0,0.0,0.0,0.0,0.0,0.0,0.0,0.0,0.0,0.0,0.0,0.0,0.0,0.0,0.0,0.0,0.0,0.0,0.0,0.0,0.0,0.0,0.0,0.0,0.0,0.0,0.0,0.0,0.0,0.0,0.0,0.0,0.0,0.0,0.0,0.0,0.0,0.0,0.0,0.0,0.0,0.0,0.0,0.0,0.0,0.0,0.0,0.0,0.0,0.0,0.0,0.0,0.0,0.0,0.0,0.0,0.0,0.0,0.0,0.0,0.0,0.0,0.0,0.0,0.0,0.0,0.0,0.0,0.0,0.0,0.0,0.0,0.0,0.0,0.0,0.0,0.0,0.0,0.0,0.0,0.0,0.0,0.0,0.0,0.0,0.0,0.0,0.0,0.0,0.0,0.0,0.0,0.0,0.0,0.0,0.0,0.0,0.0,0.0,0.0,0.0,0.0,0.0,0.0,0.0,0.0,0.0,0.0,0.0,0.0,0.0,0.0,0.0,0.0,0.0,0.0,0.0,0.0,0.0,0.0,0.0,0.0,0.0,0.0,0.0,0.0,0.0,0.0,0.0,0.0,0.0,0.0,0.0,0.0,0.0,0.0,0.0,0.0,0.0,0.0,0.0,0.0,0.0,0.0,0.0,0.0,0.0,0.0,0.0,0.0,0.0,0.0,0.0,0.0,0.0,0.0,0.0,0.0,0.0,0.0,0.0,0.0,0.0,0.0,0.0,0.0,0.0,0.0,0.0,0.0,0.0,0.0,0.0,0.0,0.0,0.0,0.0,0.0,0.0,0.0,0.0,0.0,0.0,0.0,0.0,0.0,0.0,0.0,0.0,0.0,0.0,0.0,0.0,0.0,0.0,0.0,0.0,0.0,0.0,0.0,0.0,0.0,0.0,0.0,0.0,0.0,0.0,0.0,0.0,0.0,0.0,0.0,0.0,0.0,0.0,0.0,0.0,0.0,0.0,0.0,0.0,0.0,0.0,0.0,0.0,0.0,0.0,0.0,0.0,0.0,0.0,0.0,0.0,0.0,0.0,0.0,0.0,0.0,0.0,0.0,0.0,0.0,0.0,0.0,0.0,0.0,0.0,0.0,0.0,0.0,0.0,0.0,0.0,0.0,0.0,0.0,0.0,0.0,0.0,0.0,0.0,0.0,0.0,0.0,0.0,0.0,0.0,0.0,0.0,0.0,0.0,0.0,0.0,0.0,0.0,0.0,0.0,0.0,0.0,0.0,0.0,0.0,0.0,0.0,0.0,0.0,0.0,0.0,0.0,0.0,0.0,0.0,0.0,0.0,0.0,0.0,0.0,0.0,0.0,0.0,0.0,0.0,0.0,0.0,0.0,0.0,0.0,0.0,0.0,0.0,0.0,0.0,0.0,0.0,0.0,0.0,0.0,0.0,0.0,0.0,0.0,0.0,0.0,0.0,0.0,0.0,0.0,0.0,0.0,0.0,0.0,0.0,0.0,0.0,0.0,0.0,0.0,0.0,0.0,0.0,0.0,0.0,0.0,0.0,0.0,0.0,0.0,0.0,0.0,0.0,0.0,0.0,0.0,0.0,0.0,0.0,0.0,0.0,0.0,0.0,0.0,0.0,0.0,0.0,0.0,0.0,0.0,0.0,0.0,0.0,0.0,0.0,0.0,0.0,0.0,0.0,0.0,0.0,0.0,0.0,0.0,0.0,0.0,0.0,0.0,0.0,0.0,0.0,0.0,0.0,0.0,0.0,0.0,0.0,0.0,0.0,0.0,0.0,0.0,0.0,0.0,0.0,0.0,0.0,0.0,0.0,0.0,0.0,0.0,0.0,0.0,0.0,0.0,0.0,0.0,0.0,0.0,0.0,0.0,0.0,0.0,0.0,0.0,0.0,0.0,0.0,0.0,0.0,0.0,0.0,0.0,0.0,0.0,0.0,0.0,0.0,0.0,0.0,0.0,0.0,0.0,0.0,0.0,0.0,0.0,0.0,0.0,0.0,0.0,0.0,0.0,0.0,0.0,0.0,0.0,0.0,0.0,0.0,0.0,0.0,0.0,0.0,0.0,0.0,0.0,0.0,0.0,0.0,0.0,0.0,0.0,0.0,0.0,0.0,0.0,0.0,0.0,0.0,0.0,0.0,0.0,0.0,0.0,0.0,0.0,0.0,0.0,0.0,0.0,0.0,0.0,0.0,0.0,0.0,0.0,0.0,0.0,0.0,0.0,0.0,0.0,0.0,0.0,0.0,0.0,0.0,0.0,0.0,0.0,0.0,0.0,0.0,0.0,0.0,0.0,0.0,0.0,0.0,0.0,0.0,0.0,0.0,0.0,0.0,0.0,0.0,0.0,0.0,0.0,0.0,0.0,0.0,0.0,0.0,0.0,0.0,0.0,0.0,0.0,0.0,0.0,0.0,0.0,0.0,0.0,0.0,0.0,0.0,0.0,0.0,0.0,0.0,0.0,0.0,0.0,0.0,0.0,0.0,0.0,0.0,0.0,0.0,0.0,0.0,0.0,0.0,0.0,0.0,0.0,0.0,0.0,0.0,0.0,0.0,0.0,0.0,0.0,0.0,0.0,0.0,0.0,0.0,0.0,0.0,0.0,0.0,0.0,0.0,0.0,0.0,0.0,0.0,0.0,0.0,0.0,0.0,0.0,0.0,0.0,0.0,0.0,0.0,0.0,0.0,0.0,0.0,0.0,0.0,0.0,0.0,0.0,0.0,0.0,0.0,0.0,0.0,0.0,0.0,0.0,0.0,0.0,0.0,0.0,0.0,0.0,0.0,0.0,0.0,0.0,0.0,0.0,0.0,0.0,0.0,0.0,0.0,0.0,0.0,0.0,0.0,0.0,0.0,0.0,0.0,0.0,0.0,0.0,0.0,0.0,0.0,0.0,0.0,0.0,0.0,0.0,0.0,0.0,0.0,0.0,0.0,0.0,0.0,0.0,0.0,0.0,0.0,0.0,0.0,0.0,0.0,0.0,0.0,0.0,0.0,0.0,0.0,0.0,0.0,0.0,0.0,0.0,0.0,0.0,0.0,0.0,0.0,0.0,0.0,0.0,0.0,0.0,0.0,0.0,0.0,0.0,0.0,0.0,0.0,0.0,0.0,0.0,0.0,0.0,0.0,0.0,0.0,0.0,0.0,0.0,0.0,0.0,0.0,0.0,0.0,0.0,0.0,0.0,0.0,0.0,0.0,0.0,0.0,0.0,0.0,0.0,0.0,0.0,0.0,0.0,0.0,0.0,0.0,0.0,0.0,0.0,0.0,0.0,0.0,0.0,0.0,0.0,0.0,0.0,0.0,0.0,0.0,0.0,0.0,0.0,0.0,0.0,0.0,0.0,0.0,0.0,0.0,0.0,0.0,0.0,0.0,0.0,0.0,0.0,0.0,0.0,0.0,0.0,0.0,0.0,0.0,0.0,0.0,0.0,0.0,0.0,0.0,0.0,0.0,0.0,0.0,0.0,0.0,0.0,0.0,0.0,0.0,0.0,0.0,0.0,0.0,0.0,0.0,0.0,0.0,0.0,0.0,0.0,0.0,0.0,0.0,0.0,0.0,0.0,0.0,0.0,0.0,0.0,0.0,0.0,0.0,0.0,0.0,0.0,0.0,0.0,0.0,0.0,0.0,0.0,0.0,0.0,0.0,0.0,0.0,0.0,0.0,0.0,0.0,0.0,0.0,0.0,0.0,0.0,0.0,0.0,0.0,0.0,0.0,0.0,0.0,0.0,0.0,0.0,0.0,0.0,0.0,0.0,0.0,0.0,0.0,0.0,0.0,0.0,0.0,0.0,0.0,0.0,0.0,0.0,0.0,0.0,0.0,0.0,0.0,0.0,0.0,0.0,0.0,0.0,0.0,0.0,0.0,0.0,0.0,0.0,0.0,0.0,0.0,0.0,0.0,0.0,0.0,0.0,0.0,0.0,0.0,0.0,0.0,0.0,0.0,0.0,0.0,0.0,0.0,0.0,0.0,0.0,0.0,0.0,0.0,0.0,0.0,0.0,0.0,0.0,0.0,0.0,0.0,0.0,0.0,0.0,0.0,0.0,0.0,0.0,0.0,0.0,0.0,0.0,0.0,0.0,0.0,0.0,0.0,0.0,0.0,0.0,0.0,0.0,0.0,0.0,0.0,0.0,0.0,0.0,0.0,0.0,0.0,0.0,0.0,0.0,0.0,0.0,0.0,0.0,0.0,0.0,0.0,0.0,0.0,0.0,0.0,0.0,0.0,0.0,0.0,0.0,0.0,0.0,0.0,0.0,0.0,0.0,0.0,0.0,0.0,0.0,0.0,0.0,0.0,0.0,0.0,0.0,0.0,0.0,0.0,0.0,0.0,0.0,0.0,0.0,0.0,0.0,0.0,0.0,0.0,0.0,0.0,0.0,0.0,0.0,0.0,0.0,0.0,0.0,0.0,0.0,0.0,0.0,0.0,0.0,0.0,0.0,0.0,0.0,0.0,0.0,0.0,0.0,0.0,0.0,0.0,0.0,0.0,0.0,0.0,0.0,-1.0446,0.0,0.0,0.0,0.0,0.0,0.0,0.0,0.0,0.0,0.0,0.0,0.0,0.0,0.0,0.0,0.0,0.0,0.0,0.0,0.0,0.0,0.0,0.0,0.0,0.0,0.0,0.0,0.0,0.0,0.0,0.0,0.0,0.0,0.0,0.0,0.0,0.0,0.0,0.0,0.0,0.0,0.0,0.0,0.0,0.0,0.0,0.0,0.0,0.0,0.0,0.0,0.0,0.0,0.0,0.0,0.0,0.0,0.0,0.0,0.0,0.0,0.0,0.0,0.0,0.0,0.0,0.0,0.0,0.0,0.0,0.0,0.0,0.0,0.0,0.0,0.0,0.0,0.0,0.0,0.0,0.0,0.0,0.0,0.0,0.0,0.0,0.0,0.0,0.0,0.0,0.0,0.0,0.0,0.0,0.0,0.0,0.0,0.0,0.0,0.0,0.0,0.0,0.0,0.0,0.0,0.0,0.0,0.0,0.0,0.0,0.0,0.0,0.0,0.0,0.0,0.0,-1.0009,0.0,0.0,0.0,0.0,0.0,0.0,0.0,0.0,0.0,0.0,0.0,0.0,0.0,0.0,0.0,0.0,0.0,0.0,0.0,0.0,0.0,0.0,0.0,0.0,0.0,0.0,0.0,0.0,0.0,0.0,0.0,0.0,0.0,0.0,0.0,0.0,0.0,0.0,0.0,0.0,0.0,0.0,0.0,0.0,0.0,0.0,0.0,0.0,0.0,0.0,0.0,0.0,0.0,0.0,0.0,0.0,0.0,0.0,0.0,0.0,0.0,0.0,0.0,0.0,0.0,0.0,0.0,0.0,0.0,0.0,0.0,0.0,0.0,0.0,0.0,0.0,0.0,0.0,0.0,0.0,0.0,0.0,0.0,0.0,0.0,0.0,0.0,0.0,0.0,0.0,0.0,0.0,0.0,0.0,0.0,0.0,0.0,0.0,0.0,0.0,0.0,0.0,0.0,0.0,0.0,0.0,0.0,0.0,-1.0091,-0.9983,-0.9983,-0.9983,-0.9466,-0.8611,-0.9056,-0.8773,-0.8076,-0.8897,0.0,0.0,0.0,0.0,0.0,0.0,0.0,0.0,0.0,0.0,0.0,0.0,0.0,0.0,0.0,0.0,0.0,0.0,0.0,0.0,0.0,0.0,0.0,0.0,0.0,0.0,0.0,0.0,0.0,0.0,0.0,0.0,0.0,0.0,0.0,0.0,0.0,0.0,-1.3968,-1.3968,-1.3814,-1.3473,-1.324,0.0,0.0,0.0,0.0,0.0,0.0,0.0,0.0,0.0,0.0,0.0,0.0,0.0,0.0,0.0,0.0,0.0,0.0,0.0,0.0,0.0,0.0,0.0,0.0,0.0,0.0,0.0,0.0,0.0,0.0,0.0,0.0,0.0,0.0,0.0,0.0,0.0,0.0,0.0,0.0,0.0,0.0,0.0,-1.0654,-1.0805,0.0,0.0,0.0,0.0,0.0,0.0,0.0,0.0,0.0,0.0,0.0,0.0,0.0,-1.074,-1.0611,-0.9623,-0.9126,-0.9104,-0.8057,-0.7551,-0.7551,-0.7551,-0.7489,-0.7334,-0.7402,0.0,-0.7253,-0.7384,0.0,0.0,0.0,0.0,0.0,0.0,0.0,0.0,0.0,0.0,0.0,0.0,0.0,0.0,0.0,0.0,0.0,0.0,0.0,0.0,0.0,0.0,0.0,0.0,0.0,0.0,0.0,0.0,0.0,0.0,0.0,0.0,0.0,0.0,0.0,0.0,-1.2126,-1.2126,-1.2147,-1.2793,-1.3007,-1.2889,-1.3459,-1.352,-1.3193,-1.3193,0.0,0.0,0.0,0.0,0.0,0.0,0.0,0.0,0.0,0.0,0.0,0.0,0.0,0.0,0.0,0.0,0.0,0.0,0.0,0.0,0.0,0.0,0.0,0.0,0.0,0.0,0.0,0.0,0.0,0.0,0.0,0.0,0.0,0.0,0.0,0.0,0.0,0.0,0.0,-0.9766,-1.0351,-0.9732,-1.02,-1.0611,0.0,0.0,0.0,0.0,0.0,0.0,0.0,0.0,0.0,-0.9666,-0.9645,-0.9314,-0.8637,-0.8145,-0.7885,-0.7885,-0.7356,-0.676,-0.6138,-0.6138,-0.5777,-0.5129,-0.5129,-0.5129,-0.524,-0.6558,-0.6716,-0.6138,0.0,0.0,0.0,0.0,-0.6561,-0.7007,0.0,0.0,0.0,0.0,0.0,0.0,0.0,0.0,0.0,0.0,0.0,0.0,0.0,0.0,0.0,-1.1879,0.0,0.0,0.0,0.0,0.0,0.0,0.0,0.0,0.0,0.0,0.0,0.0,-1.0611,-1.0611,-1.0632,-1.1466,-1.1879,-1.1895,-1.2799,-1.3288,-1.3434,-1.3434,-1.3373,0.0,0.0,0.0,0.0,0.0,0.0,0.0,0.0,0.0,0.0,0.0,0.0,0.0,0.0,0.0,0.0,0.0,0.0,0.0,0.0,0.0,0.0,0.0,0.0,0.0,0.0,0.0,0.0,0.0,0.0,0.0,0.0,0.0,0.0,0.0,0.0,0.0,0.0,-0.8593,-0.9401,-0.854,-0.9183,-0.9701,0.0,0.0,0.0,0.0,0.0,0.0,-0.9701,-0.9701,-0.9314,-0.8474,-0.843,-0.7859,-0.6672,-0.6672,-0.6514,-0.6201,-0.6201,-0.5755,-0.4934,-0.4934,-0.4441,-0.3592,-0.3592,-0.3592,-0.3725,-0.5487,-0.5711,-0.4934,-0.4934,-0.4934,-0.4934,-0.4934,-0.5467,-0.6088,0.0,0.0,0.0,0.0,0.0,0.0,0.0,0.0,0.0,0.0,0.0,0.0,0.0,0.0,-1.0697,-1.0697,-1.0632,-1.068,0.0,0.0,0.0,0.0,0.0,0.0,0.0,0.0,0.0,-1.0611,-1.0611,-1.0611,-1.0611,-1.0654,-1.0697,-1.0697,-1.074,-1.2002,-1.4041,-1.4041,-1.386,-1.358,0.0,0.0,0.0,0.0,0.0,0.0,0.0,0.0,0.0,0.0,0.0,0.0,0.0,0.0,0.0,0.0,0.0,0.0,0.0,0.0,0.0,0.0,0.0,0.0,0.0,0.0,0.0,0.0,0.0,0.0,0.0,0.0,0.0,0.0,0.0,0.0,0.0,0.0,0.0,-0.7205,-0.725,0.0,0.0,0.0,0.0,-0.7268,-0.7268,-0.7268,-0.7268,-0.7268,-0.725,-0.7183,-0.7183,-0.665,-0.5492,-0.5492,-0.491,-0.377,-0.377,-0.3748,-0.3681,-0.3681,-0.3659,-0.3592,-0.3592,-0.3592,-0.3614,-0.3725,-0.3748,-0.3681,-0.3681,-0.3681,-0.3681,-0.3681,-0.3725,-0.377,0.0,0.0,0.0,0.0,0.0,0.0,0.0,0.0,0.0,0.0,0.0,0.0,0.0,-1.0183,-0.9514,-0.9514,-0.8794,-0.8737,-0.9656,0.0,0.0,0.0,0.0,0.0,0.0,0.0,-0.8476,-0.8356,-0.8356,-0.8356,-0.8356,-0.9144,-0.9514,-0.9536,-1.0269,-1.1063,-1.189,-1.2638,-1.2865,-1.2836,-1.3601,-1.3868,0.0,0.0,0.0,0.0,0.0,0.0,0.0,0.0,0.0,0.0,0.0,0.0,0.0,0.0,0.0,0.0,0.0,0.0,0.0,0.0,0.0,0.0,0.0,0.0,0.0,0.0,0.0,0.0,0.0,0.0,0.0,0.0,0.0,0.0,0.0,0.0,0.0,-0.7288,-0.7377,0.0,-0.7411,-0.7411,-0.7411,-0.7411,-0.7411,-0.7411,-0.7411,-0.6613,-0.6124,-0.6124,-0.5291,-0.4642,-0.425,-0.425,-0.4017,-0.3599,-0.3599,-0.3183,-0.2442,-0.2432,-0.2007,-0.1277,-0.1284,-0.1277,-0.1277,-0.1277,-0.1746,-0.2436,-0.2436,-0.2436,-0.2436,-0.2436,-0.2925,-0.3481,0.0,0.0,0.0,0.0,0.0,0.0,0.0,0.0,0.0,0.0,0.0,-1.0874,-1.0166,-0.9089,-0.8413,-0.8454,-0.772,-0.7671,-0.8602,0.0,0.0,0.0,0.0,0.0,0.0,-0.7471,-0.74,-0.7273,-0.7273,-0.7273,-0.7295,-0.8042,-0.8389,-0.8434,-0.9104,-0.9418,-0.9505,-1.0649,-1.1359,-1.1831,-1.3012,-1.3491,-1.3514,0.0,0.0,0.0,0.0,0.0,0.0,0.0,0.0,0.0,0.0,0.0,0.0,0.0,0.0,0.0,0.0,0.0,0.0,0.0,0.0,0.0,0.0,0.0,0.0,0.0,0.0,0.0,0.0,0.0,0.0,0.0,0.0,0.0,0.0,0.0,-0.7471,-0.7471,-0.7156,-0.6929,-0.6929,-0.6523,-0.624,-0.624,-0.624,-0.624,-0.624,-0.5405,-0.4931,-0.4931,-0.4054,-0.3394,-0.2992,-0.2992,-0.2779,-0.2375,-0.2375,-0.1973,-0.119,-0.1197,-0.0747,0.0,0.0,0.0,0.0,0.0,-0.0476,-0.1198,-0.1191,-0.1188,-0.1188,-0.1188,-0.1701,-0.2281,0.0,0.0,0.0,0.0,0.0,0.0,0.0,0.0,0.0,0.0,-0.9589,-0.8948,-0.9045,-0.8068,-0.7461,-0.7587,-0.76,-0.7658,-0.7801,-0.7682,0.0,0.0,0.0,0.0,-0.7607,-0.7607,-0.7604,-0.76,-0.76,-0.76,-0.7597,-0.7471,-0.7403,-0.7393,-0.7198,-0.7109,-0.7197,-0.8358,-0.9484,-1.0599,-1.1772,-1.2242,-1.237,0.0,0.0,0.0,0.0,0.0,0.0,0.0,0.0,0.0,0.0,0.0,0.0,0.0,0.0,0.0,0.0,0.0,0.0,0.0,0.0,0.0,0.0,0.0,0.0,0.0,0.0,0.0,0.0,0.0,0.0,0.0,0.0,0.0,-0.6936,-0.7393,-0.7486,-0.7486,-0.634,-0.5554,-0.5554,-0.437,-0.3613,-0.3613,-0.3613,-0.3613,-0.3613,-0.3566,-0.3542,-0.3542,-0.3518,-0.2926,-0.1764,-0.174,-0.1169,0.0,0.0,0.0,0.0,0.0048,0.0072,0.0072,0.0095,0.0119,0.0119,0.0117,0.0116,0.0115,0.0023,0.0,0.0,0.0,0.0,0.0,0.0,0.0,0.0,0.0,0.0,0.0,0.0,0.0,0.0,0.0,-0.9253,-0.8847,-0.7962,-0.7676,-0.7553,-0.7597,-0.76,-0.7658,-0.7801,0.0,0.0,0.0,0.0,0.0,-0.7753,-0.7753,-0.7702,-0.76,-0.76,-0.76,-0.7597,-0.7556,-0.7536,-0.7536,-0.7492,-0.7475,-0.7472,-0.7818,-0.809,-0.8454,-1.0301,-1.1058,-1.1101,0.0,0.0,0.0,0.0,0.0,0.0,0.0,0.0,0.0,0.0,0.0,0.0,0.0,0.0,0.0,0.0,0.0,0.0,0.0,0.0,0.0,0.0,0.0,0.0,0.0,0.0,0.0,0.0,0.0,0.0,0.0,0.0,-0.3948,-0.4554,-0.4762,-0.4848,-0.4848,-0.4608,-0.4447,-0.4447,-0.4102,-0.388,-0.388,-0.388,-0.388,-0.388,-0.2969,-0.2452,-0.2452,-0.1488,-0.0819,-0.0497,-0.0497,-0.0323,0.0,0.0,0.0,0.0025,0.1003,0.1457,0.1504,0.2486,0.2897,0.2896,0.2904,0.2897,0.2701,0.075,0.0,0.0,0.0,0.0,0.0135,0.0,0.0,0.0,0.0,0.0,0.0,0.0,0.0,0.0,0.0,-0.8448,-0.8322,-0.765,-0.7634,-0.7712,-0.7756,-0.776,-0.7576,-0.7085,0.0,0.0,0.0,0.0,-0.6291,-0.6222,-0.6219,-0.6163,-0.6099,-0.6099,-0.637,-0.6931,-0.6873,-0.7135,-0.7685,-0.7628,-0.76,-0.76,-0.76,-0.755,-0.7596,-0.8849,-0.9553,-0.9944,-1.0416,-1.0611,-1.0611,-1.0611,-1.0649,-1.0686,-1.0686,0.0,0.0,0.0,0.0,0.0,0.0,0.0,0.0,0.0,0.0,0.0,0.0,0.0,0.0,0.0,0.0,0.0,0.0,0.0,0.0,0.0,0.0,0.0,0.0,-0.3021,-0.217,-0.2098,-0.3119,-0.388,-0.388,-0.3467,-0.3165,-0.3165,-0.2665,-0.2314,-0.2314,-0.2314,-0.2314,-0.2314,-0.1586,-0.1159,-0.1159,-0.0404,0.0,0.0,0.0,0.0,0.0,0.0,0.0,0.005,0.1395,0.2005,0.2077,0.3421,0.4011,0.4009,0.4002,0.3989,0.0,0.0,0.0,0.0,0.0,0.1678,0.1796,0.0,0.0,0.0,0.0,0.0,0.0,0.0,0.0,0.0,0.0,0.0,-0.7692,-0.7797,-0.7804,-0.7868,-0.8003,-0.7864,-0.721,0.0,0.0,0.0,-0.3991,-0.3991,-0.3991,-0.3991,-0.3991,-0.3991,-0.3991,-0.3991,-0.4618,-0.5774,-0.5652,-0.6241,-0.7364,-0.7246,-0.7192,-0.7192,-0.7361,-0.7401,-0.7409,-0.755,-0.8065,-0.8865,-0.9884,-1.0251,-1.0251,-1.0251,-1.0333,-1.0452,-1.0452,0.0,0.0,0.0,0.0,0.0,0.0,0.0,0.0,0.0,0.0,0.0,0.0,0.0,0.0,0.0,0.0,0.0,0.0,0.0,0.0,0.0,0.0,0.0,0.0,-0.0882,0.0,0.0,-0.2038,-0.3541,-0.3541,-0.2489,-0.1762,-0.1762,-0.0706,0.0,0.0,0.0,0.0,0.0,0.0,0.0,0.0,0.0,0.0,0.0,0.0151,0.0227,0.0227,0.0379,0.0454,0.0504,0.1837,0.244,0.2515,0.3865,0.4443,0.4462,0.4441,0.4462,0.4427,0.4118,0.4011,0.4011,0.4011,0.4011,0.4013,0.0,0.0,0.0,0.0,0.0,0.0,0.0,0.0,0.0,-0.7556,-0.7763,-0.7895,-0.7797,-0.7898,-0.7983,-0.7988,-0.7008,-0.5827,0.0,0.0,-0.3991,-0.3991,-0.3991,-0.3991,-0.3991,-0.3991,-0.3991,-0.3991,-0.3991,-0.4141,-0.4393,-0.4351,-0.4493,-0.474,-0.4699,-0.4693,-0.4767,-0.5839,-0.6257,-0.6241,-0.7331,-0.7807,-0.788,-0.8108,-0.8174,-0.8174,-0.8174,-0.8196,-0.8222,-0.8222,-0.8326,-0.8427,-0.8427,0.0,0.0,0.0,0.0,0.0,0.0,0.0,0.0,0.0,0.0,0.0,0.0,0.0,0.0,0.0,0.0,0.0,0.0,0.0,0.0,-0.1988,-0.0882,0.0,0.0,-0.0454,-0.0782,-0.0782,-0.0555,-0.0379,-0.0379,-0.0151,0.0,0.0,0.0,0.0,0.0,0.0,0.0,0.0,0.0,0.0,0.0,0.1084,0.1611,0.1637,0.0,0.0,0.3265,0.462,0.5225,0.53,0.6653,0.7232,0.7229,0.7229,0.722,0.702,0.4836,0.4011,0.4011,0.4011,0.4011,0.4164,0.0,0.0,0.0,0.0,0.0,0.0,0.0,0.0,0.0,0.0,-0.7875,-0.771,-0.699,-0.6969,-0.6731,-0.6049,-0.477,0.0,0.0,-0.2363,-0.1988,-0.1988,-0.1988,-0.1988,-0.1988,-0.1988,-0.1988,-0.1988,-0.1988,-0.2339,-0.299,-0.299,-0.3364,-0.3991,-0.3991,-0.3991,-0.4041,-0.4718,-0.4968,-0.495,-0.5642,-0.6252,-0.6852,-0.7391,-0.76,-0.76,-0.76,-0.7645,-0.7706,-0.7706,-0.778,-0.7902,-0.7902,-0.7952,-0.7988,0.0,0.0,0.0,0.0,0.0,0.0,0.0,0.0,0.0,0.0,0.0,0.0,0.0,0.0,-0.299,0.0,0.0,-0.1008,-0.1008,-0.0429,0.0,0.0,0.0,0.0,0.0,0.0,0.0,0.0,0.0,0.0,0.0,0.0,0.0,0.0,0.0631,0.1008,0.1008,0.1661,0.2013,0.2013,0.2665,0.299,0.3015,0.369,0.3991,0.4041,0.54,0.6004,0.6079,0.7409,0.7988,0.7988,0.7988,0.7988,0.7875,0.6518,0.6007,0.6007,0.6007,0.6007,0.6087,0.0,0.0,0.0,0.0,0.0,0.0,0.0,0.0,0.0,0.0,-0.7538,-0.7107,-0.5752,-0.5602,-0.5072,0.0,0.0,0.0,0.0,-0.0605,0.0,0.0,0.0,0.0,0.0,0.0,0.0,0.0,0.0,-0.0555,-0.1611,-0.1611,-0.2188,-0.3215,-0.3215,-0.3215,-0.324,-0.349,-0.3615,-0.364,-0.389,-0.4645,-0.5708,-0.6581,-0.7227,-0.7685,-0.7685,-0.7756,-0.7831,-0.7831,-0.7912,-0.7963,-0.7686,-0.7612,-0.7562,-0.7307,-0.7232,0.0,0.0,0.0,0.0,0.0,0.0,0.0,0.0,0.0,-0.3215,-0.3215,-0.2363,-0.1611,-0.1611,-0.0731,0.0,0.0,0.0,0.0,0.0,0.0,0.0101,0.0353,0.0151,0.0,0.0,0.0227,0.0379,0.0379,0.0631,0.0782,0.0782,0.1812,0.2388,0.2388,0.3441,0.3991,0.3991,0.4268,0.4393,0.4393,0.4643,0.4768,0.4818,0.5902,0.6381,0.6456,0.7537,0.7988,0.7988,0.7988,0.7988,0.7988,0.7988,0.7988,0.7988,0.7988,0.7988,0.7988,0.0,0.0,0.0,0.0,0.0,0.0,0.0,0.0,0.0,0.0,0.0,0.0,0.0,0.0,0.0,0.0,0.0,0.0,-0.0303,-0.0076,0.0,0.0,0.0,0.0,0.0,0.0,0.0,0.0,0.0,-0.0076,-0.0227,-0.0227,-0.0303,-0.0454,-0.0454,-0.0454,-0.053,-0.1711,-0.2213,-0.2339,-0.3516,-0.4091,-0.4241,-0.4346,-0.5887,-0.7966,-0.7966,-0.7976,-0.7989,-0.7989,-0.7975,-0.7789,-0.6606,-0.6229,-0.5977,-0.4793,0.0,-0.4443,-0.4443,-0.4343,-0.3892,-0.2564,-0.2213,-0.1913,0.0,0.0,-0.0454,-0.0454,-0.0328,-0.0227,-0.0227,-0.0101,0.0,0.0,0.0,0.0,0.0,0.0,0.0454,0.1637,0.0731,0.0,0.0,0.1084,0.1787,0.1787,0.2889,0.3565,0.3565,0.369,0.3765,0.3765,0.3915,0.3991,0.3991,0.5172,0.5777,0.5802,0.698,0.7559,0.7559,0.7711,0.7786,0.7789,0.7939,0.7988,0.7988,0.7988,0.7988,0.7988,0.7988,0.7988,0.7988,0.7988,0.7988,0.7988,0.0,0.0,0.0,0.0,0.0,0.0,0.0,0.0,0.0,0.0,0.0,0.0,0.0,0.0,0.0,0.0,0.0,0.0,-0.0025,0.0,0.0,0.0,0.0,0.0,0.0,0.0,0.0,0.0,0.0,0.0,0.0,0.0,0.0,0.0,0.0,0.0,-0.0025,-0.0605,-0.0832,-0.0882,-0.1436,-0.2138,-0.284,-0.284,-0.4017,-0.567,-0.567,-0.567,0.0,0.0,-0.567,-0.557,-0.502,-0.4845,-0.4718,-0.4166,-0.3991,0.0,-0.304,-0.284,-0.2514,0.0,-0.0832,-0.0681,-0.0126,0.0,0.0,0.0,0.0,0.0,0.0,0.0,0.0,0.0,0.0,0.0,0.0,0.0681,0.136,0.1938,0.2188,0.2339,0.2339,0.284,0.3165,0.3165,0.369,0.3991,0.3991,0.4745,0.5172,0.5172,0.5924,0.6326,0.6326,0.688,0.7157,0.7157,0.7739,0.7988,0.7988,0.7988,0.7988,0.7988,0.7988,0.7988,0.7988,0.7988,0.7988,0.7988,0.7988,0.7988,0.7988,0.7988,0.7988,0.7988,0.0,0.0,0.0,0.0,0.0,0.0,0.0,0.0,0.0,0.0,0.0,0.0,0.0,0.0,0.0,0.0,0.0,0.0,0.0,0.0353,0.0555,0.0555,0.0907,0.1109,0.1109,0.0731,0.0555,0.0555,0.0177,0.0,0.0,0.0,0.0,0.0,0.0,0.0,0.0,0.0,0.0,0.0,0.0,-0.058,-0.1436,-0.1436,-0.2063,-0.299,-0.374,-0.3991,0.0,0.0,-0.3991,-0.3941,-0.3565,-0.3441,-0.3364,-0.3015,-0.2889,-0.269,-0.1711,0.0,0.0,-0.0252,0.0,0.0,0.0,0.0,0.0,0.0,0.0,0.0,0.0,0.0,0.0,0.0,0.0303,0.0556,0.061,0.175,0.2767,0.3188,0.4104,0.4841,0.5196,0.4822,0.4543,0.4543,0.4893,0.5093,0.5093,0.6027,0.6556,0.6556,0.7487,0.7988,0.7988,0.7988,0.7988,0.7988,0.7988,0.7988,0.7988,0.7988,0.7988,0.7988,0.7988,0.7988,0.7988,0.7988,0.8212,0.8552,0.8552,0.8775,0.9065,0.9065,0.8846,0.8552,0.0,0.0,0.0,0.0,0.0,0.0,0.0,0.0,0.0,0.0,0.0,0.0,0.0,0.0,0.0,0.0,0.0,0.0,0.0,0.1209,0.1938,0.1938,0.319,0.389,0.389,0.2614,0.1938,0.1938,0.0631,0.0,0.0,0.0,0.0,0.0,0.0,0.0,0.0,0.0,0.0,0.0,0.0,-0.0025,-0.005,-0.005,-0.0076,-0.0454,-0.3065,0.0,0.0,0.0,-0.3991,-0.3765,-0.2464,-0.2063,0.0,-0.0504,-0.0126,0.0,0.0,0.0,-0.005,0.0,0.0,0.0,0.0,0.0,0.0,0.0,0.0,0.0,0.0,0.0,0.0,0.0,0.1084,0.1975,0.2115,0.3278,0.4697,0.618,0.6403,0.6931,0.0,0.6898,0.5929,0.5929,0.7132,0.7889,0.7889,0.7914,0.7939,0.7939,0.7988,0.7988,0.7988,0.7988,0.7988,0.7988,0.7988,0.7988,0.7988,0.7988,0.7988,0.7988,0.7988,0.7988,0.7988,0.7988,0.8775,0.9953,0.9953,1.0681,1.1775,1.1775,1.0999,0.9953,0.0,0.0,0.0,0.0,0.0,0.0,0.0,0.0,0.0,0.0,0.0,0.0,0.0,0.0,0.0,0.0,0.0,0.0,0.0,0.2589,0.3316,0.3316,0.3765,0.3991,0.3991,0.3565,0.3316,0.3316,0.2864,0.2188,0.1335,0.1335,0.0857,0.0,0.0,0.0,0.0,0.0,0.0,0.0,0.0,0.0,0.0,0.0,0.0,-0.0126,0.0,0.0,0.0,0.0,0.0,0.0,-0.0807,0.0,0.0,-0.0126,0.0,0.0,0.0,0.0,0.0,0.0,0.0,0.0,0.0,0.0,0.0,0.0,0.0,0.0,0.0,0.079,0.1463,0.1463,0.2692,0.3682,0.3733,0.4888,0.5922,0.6434,0.7287,0.0,0.0,0.0,0.0,0.7656,0.8072,0.8333,0.8333,0.8333,0.8289,0.8197,0.8194,0.8143,0.7992,0.7988,0.7988,0.7988,0.7988,0.7988,0.8038,0.892,0.934,0.9361,1.0215,1.0583,1.0583,1.0583,1.0852,1.1268,1.1268,1.1507,1.1896,1.1896,1.2183,1.2474,0.0,0.0,0.0,0.0,0.0,0.0,0.0,0.0,0.0,0.0,0.0,0.0,0.0,0.0,0.0,0.0,0.0,0.0,0.0,0.3967,0.4718,0.4718,0.517,0.542,0.542,0.497,0.4718,0.4718,0.4243,0.3565,0.2715,0.2715,0.1988,0.0731,0.1209,0.0907,0.0025,0.0504,0.0429,0.0,0.0,0.0,0.0,0.0,0.0,0.0,0.0,0.0,0.0,0.0,0.0,0.0,0.0,0.0,0.0,0.0,0.0,0.0,0.0,0.0,0.0,0.0,0.0,0.0,0.0,0.0,0.0,0.0,0.0,0.0153,0.0688,0.155,0.2377,0.2924,0.4266,0.5236,0.527,0.6448,0.7295,0.7341,0.813,0.8645,0.0,0.0,0.0,0.8515,0.8509,0.8509,0.8509,0.8509,0.8464,0.8376,0.8372,0.8299,0.8172,0.8172,0.8172,0.8197,0.8722,0.8971,0.9022,1.0393,1.0993,1.1043,1.186,1.2207,1.2207,1.2207,1.25,1.2944,1.2944,1.3221,1.3615,1.3615,1.4154,1.4668,0.0,0.0,0.0,0.0,0.0,0.0,0.0,0.0,0.0,0.0,0.0,0.0,0.0,0.0,0.0,0.0,0.0,0.0,0.0,0.0,0.0,0.6104,0.731,0.7988,0.7988,0.6756,0.6104,0.6104,0.4818,0.4166,0.4091,0.4091,0.3391,0.2163,0.3441,0.2589,0.0278,0.1561,0.1335,0.0101,0.0101,0.005,0.0,0.0,0.0,0.0,0.0,0.0,0.0,0.0,0.0,0.0,0.0,0.0,0.0,0.0,0.0,0.0,0.0,0.0,0.0,0.0,0.0,0.0,0.0,0.0,0.0025,0.0101,0.0103,0.0571,0.0,0.0,0.2899,0.4383,0.5739,0.6656,0.6797,0.7903,0.8747,0.0,0.0,0.0,0.0,0.0,0.0,0.8526,0.0,0.8532,0.8532,0.8532,0.8529,0.8519,0.8519,0.8515,0.8509,0.8509,0.8535,0.8636,1.0028,1.0746,1.085,1.2268,1.2889,1.2915,1.2966,1.2992,1.2992,1.2992,1.3758,1.4901,1.4901,1.5645,1.6707,1.6707,1.6707,1.6446,0.0,0.0,0.0,0.0,0.0,0.0,0.0,0.0,0.0,0.0,0.0,0.0,0.0,0.0,0.0,0.0,0.0,0.0,0.0,0.0,0.0,0.0,0.0,0.0,0.0,0.0,0.0,0.0,0.7157,0.6478,0.55,0.55,0.477,0.3515,0.384,0.3615,0.3015,0.3341,0.2715,0.1486,0.0,0.0882,0.0,0.0,0.0,0.0,0.0,0.0,0.0,0.0,0.0,0.0,0.0,0.0,0.0,0.0,0.0,0.0,0.0,0.0,0.0,0.0,0.0,0.0,0.0,0.0,0.0309,0.1415,0.1643,0.2112,0.0,0.0,0.0,0.6085,0.7352,0.0,0.8347,0.8632,0.0,0.8906,0.0,0.8912,0.8912,0.8912,0.0,0.0,0.8794,0.8794,0.8794,0.8794,0.8743,0.8655,0.8652,0.8598,0.8509,0.8509,0.9048,1.0128,1.0513,1.1263,1.232,1.3676,1.4287,1.4338,1.5292,1.5702,1.5702,1.5702,1.5909,1.6217,1.6217,1.6425,1.6707,1.6707,1.6707,1.663,0.0,0.0,0.0,0.0,0.0,0.0,0.0,0.0,0.0,0.0,0.0,0.0,0.0,0.0,0.0,0.0,0.0,0.0,0.0,0.0,0.0,0.0,0.0,0.0,0.0,0.0,0.0,0.0,0.0,0.0,0.0,0.6883,0.6151,0.4895,0.5495,0.5093,0.4041,0.4618,0.0,0.0,0.0,0.0,0.0,0.0,0.0,0.0,0.0,0.0,0.0,0.0,0.0,0.0,0.0,0.0,0.0,0.0,0.0,0.0,0.0,0.0,0.0,0.0,0.0,0.0177,0.0815,0.0978,0.1402,0.2899,0.3211,0.0,0.5178,0.6148,0.0,0.0,0.0,0.0,0.8912,0.8912,0.8912,0.0,0.8912,0.0,0.8912,0.8912,0.8912,0.0,0.8912,0.8912,0.8912,0.8912,0.8872,0.8787,0.8784,0.8743,0.8682,0.9315,1.0052,1.0894,1.2149,1.3179,1.3994,1.5383,1.6034,1.606,0.0,1.7088,1.7088,1.7088,1.7088,1.7088,1.7088,1.7088,1.7088,1.7088,1.7088,1.7088,0.0,0.0,0.0,0.0,0.0,0.0,0.0,0.0,0.0,0.0,0.0,0.0,0.0,0.0,0.0,0.0,0.0,0.0,0.0,0.0,0.0,0.0,0.0,0.0,0.0,0.0,0.0,0.0,0.0,0.0,0.0,0.0,0.0,0.0,0.0,0.0,0.0,0.0,0.0,0.0,0.0,0.0,0.0,0.0,0.0,0.0,0.0,0.0,0.0,0.0,0.0,0.0,0.0,0.0,0.0,0.0,0.0,0.0,0.0,0.0,0.0051,0.0227,0.0278,0.0661,0.214,0.2492,0.293,0.4485,0.0,0.5245,0.6717,0.6993,0.7401,0.8688,0.0,0.8912,0.8912,0.8912,0.8912,0.8912,0.8912,0.8912,0.8912,0.8912,0.8912,0.8912,0.8912,0.8912,0.8912,0.8912,0.8912,0.8912,0.9103,0.9182,0.9182,1.0644,1.1483,1.1701,1.4202,1.5497,1.5743,1.7015,1.7608,1.7608,1.7608,0.0,1.7608,1.7608,1.7608,1.7608,1.7608,1.7608,1.7608,1.7608,1.7608,1.7608,0.0,0.0,0.0,0.0,0.0,0.0,0.0,0.0,0.0,0.0,0.0,0.0,0.0,0.0,0.0,0.0,0.0,0.0,0.0,0.0,0.0,0.0,0.0,0.0,0.0,0.0,0.0,0.0,0.0,0.0,0.0,0.0,0.0,0.0,0.0,0.0,0.0,0.0,0.0,0.0,0.0,0.0,0.0,0.0,0.0,0.0,0.0,0.0,0.0,0.0,0.0,0.0,0.0,0.0,0.0,0.0,0.0,0.0,0.0,0.0,0.0278,0.1385,0.1732,0.2165,0.3536,0.3991,0.0,0.0,0.6317,0.6755,0.8256,0.853,0.8602,0.8854,0.8912,0.8912,0.8912,0.8912,0.8912,0.0,0.0,0.0,0.0,0.0,0.0,0.0,0.8912,0.8912,0.8912,0.8912,0.8912,0.8912,1.008,1.0726,1.0726,1.2186,1.3507,1.4663,1.515,1.6041,1.7226,1.747,1.7608,1.7608,1.7608,0.0,1.7608,1.7608,1.7608,1.7608,1.7608,1.7608,1.7608,1.7608,1.7608,1.7608,0.0,0.0,0.0,0.0,0.0,0.0,0.0,0.0,0.0,-0.0101,0.0,0.0,0.0,0.0,0.0,0.0,0.0,0.0,0.0,0.0,0.0,0.0,0.0,0.0,0.0,0.0,0.0,0.0,0.0,0.0,0.0,0.0,0.0,0.0,0.0,0.0,0.0,0.0,0.0,0.0,0.0,0.0,0.0,0.0,0.0,0.0,0.0,0.0,0.0,0.0,0.0,0.0,0.0,0.0,0.0,0.0,0.0,0.0,0.0,0.0504,0.1212,0.1936,0.2671,0.3634,0.5152,0.0,0.0,0.0,0.7858,0.8069,0.8771,0.8912,0.0,0.8912,0.8912,0.8912,0.8912,0.8912,0.0,0.8912,0.8912,0.0,0.0,0.8912,0.8912,0.8912,0.8912,0.8912,0.8912,0.8912,0.9265,1.0021,1.0726,1.1456,1.224,1.3669,1.4716,1.5417,1.6174,1.6929,1.7608,1.7608,1.7608,1.7608,1.7608,0.0,1.7608,1.7608,1.7608,1.7608,1.7608,1.7608,1.7608,1.7608,1.7608,1.7608,0.0,0.0,0.0,0.0,0.0,0.0,0.0,-0.2192,-0.1511,-0.0177,0.0,0.0,0.0,0.0,0.0,0.0,0.0,0.0,0.0,0.0,0.0,0.0,0.0,0.0,0.0,0.0,0.0,0.0,0.0,0.0,0.0,0.0,0.0,0.0,0.0,0.0,0.0,0.0,0.0,0.0,0.0,0.0,0.0,0.0,0.0,0.0,0.0,0.0,0.0,0.0,0.0,0.0,0.0,0.0,0.0,0.0,0.0,0.005,0.0353,0.1209,0.2173,0.2908,0.3885,0.5131,0.6754,0.7151,0.0,0.0,0.8912,0.8912,0.8912,0.0,0.8912,0.0,0.8912,0.8912,0.8912,0.8912,0.8912,0.0,0.8912,0.0,0.0,0.8912,0.0,0.8912,0.9182,0.9237,0.8912,0.921,0.9915,1.1051,1.1701,1.2588,1.375,1.515,1.5876,1.5876,1.7041,1.7608,1.7608,1.7608,1.7608,1.7608,1.7608,0.0,0.0,1.7608,1.7608,1.7608,1.7608,1.7608,1.7608,1.7608,1.7608,1.7608,0.0,0.0,0.0,0.0,0.0,0.0,0.0,-0.2786,-0.1511,-0.0177,0.0,0.0,0.0,0.0,0.0,0.0,0.0,0.0,0.0,0.0,0.0,0.0,0.0,0.0,0.0,0.0,0.0,0.0,0.0,0.0,0.0,0.0,0.0,0.0,0.0,0.0,0.0,0.0,0.0,0.0,0.0,0.0,0.0,0.0,0.0,0.0,0.0,0.0,0.0,0.0,0.0,0.0,0.0,0.0,0.0,0.0,0.0,0.0,0.1486,0.1913,0.2626,0.5263,0.611,0.6669,0.8183,0.0,0.0,0.8881,0.8912,0.8912,0.8912,0.8912,0.0,0.0,0.0,0.8912,0.8912,0.8912,0.8912,0.8912,0.0,0.0,0.8912,0.8912,0.0,0.8912,1.0131,1.0319,0.8964,1.0159,1.0973,1.1105,1.3637,1.5064,1.5204,1.6664,1.7391,1.7391,1.7529,1.7608,1.7608,1.7608,1.7608,1.7608,1.7608,0.0,0.0,1.7608,1.7608,1.7608,1.7608,1.7608,1.7608,1.7608,1.7608,1.7608,0.0,0.0,0.0,0.0,0.0,0.0,0.0,-0.4067,-0.2715,-0.1385,-0.0504,0.0,0.0,0.0,0.0,0.0,0.0,0.0,0.0,0.0,0.0,0.0,0.0,0.0,0.0,0.0,0.0,0.0,0.0,0.0,0.0,0.0,0.0,0.0,0.0,0.0,0.0,0.0,0.0,0.0,0.0,0.0,0.0,0.0,0.0,0.0,0.0,0.0,0.0,0.0,0.0,0.0,0.0,0.0,0.0,0.0,0.1134,0.2339,0.2063,0.3167,0.4731,0.6091,0.7064,0.7902,0.8655,0.0,0.8912,0.8912,0.8912,0.8912,0.8912,0.8912,0.8912,0.0,0.0,0.0,0.8912,0.8912,0.8912,0.8912,0.8912,0.0,0.0,0.0,0.9265,1.0159,1.0781,1.1242,1.1538,1.2109,1.2805,1.3669,1.4797,1.5823,1.6717,1.7312,1.7608,1.7608,1.7608,1.7608,1.7608,1.7608,1.7608,1.7608,1.7608,0.0,0.0,1.7608,1.7608,1.7608,1.7608,1.7608,1.7608,1.7608,1.7608,1.7608,0.0,0.0,0.0,0.0,0.0,0.0,-0.6204,-0.5197,-0.4117,-0.2765,-0.1762,-0.1033,-0.0631,-0.058,-0.0429,-0.0025,0.0,0.0,0.0,0.0,0.0,0.0,0.0,0.0,0.0,0.0,0.0,0.0,0.0,0.0,0.0,0.0,0.0,0.0,0.0,0.0,0.0,0.0,0.0,0.0,0.0,0.0,0.0,0.0,0.0,0.0,0.0,0.0,0.0,0.0,0.0,0.0,0.0,0.0,0.0,0.0,0.1938,0.3366,0.3217,0.4614,0.625,0.6916,0.7821,0.8618,0.0,0.0,0.8912,0.8912,0.8912,0.8912,0.8912,0.8912,0.8912,0.8912,0.0,0.8912,0.8912,0.8912,0.8926,0.0,0.0,0.9001,0.0,0.8936,0.9699,1.1619,1.1755,1.2593,1.4475,1.4561,1.4829,1.539,1.5823,1.6552,1.7582,1.7608,1.7608,1.7608,1.7608,1.7608,1.7608,1.7608,1.7608,1.7608,1.7608,0.0,0.0,1.7608,1.7608,1.7608,1.7608,1.7608,1.7608,1.7608,1.7608,1.7608,0.0,0.0,0.0,0.0,0.0,0.0,0.0,-0.5979,-0.55,-0.4166,-0.3966,-0.3465,-0.2113,-0.1987,-0.1436,-0.0126,0.0,0.0,0.0,0.0,0.0,0.0,0.0,0.0,0.0,0.0,0.0,0.0,0.0,0.0,0.0,0.0,0.0,0.0,0.0,0.0,0.0,0.0,0.0,0.0,0.0,0.0,0.0,0.0,0.0,0.0,0.0,0.0,0.0,0.0,0.0,0.0,0.0,0.0,0.0,0.0,0.1988,0.259,0.525,0.6131,0.6655,0.8125,0.8594,0.8723,0.0,0.0,0.8912,0.8912,0.8912,0.8912,0.8912,0.8912,0.8912,0.8912,0.8912,0.0,0.8912,0.8912,0.8963,0.0,0.0,0.9207,0.9207,0.9022,1.0131,1.3053,1.327,0.0,1.7391,1.7556,1.6902,1.5444,1.6823,1.7582,1.7608,1.7608,1.7608,1.7608,1.7608,1.7608,1.7608,1.7608,1.7608,1.7608,0.0,0.0,0.0,1.7608,1.7608,1.7608,1.7608,1.7608,1.7608,1.7608,1.7608,1.7608,0.0,0.0,0.0,0.0,0.0,0.0,0.0,-0.6581,-0.5854,-0.5425,-0.4568,-0.384,-0.3416,-0.3364,-0.319,-0.2764,0.0,0.0,0.0,0.0,0.0,0.0,0.0,0.0,0.0,0.0,0.0,0.0,0.0,0.0,0.0,0.0,0.0,0.0,0.0,0.0,0.0,0.0,0.0,0.0,0.0,0.0,0.0,0.0,0.0,0.0,0.0,0.0,0.0,0.0,0.0,0.0,0.0,0.0,0.0,0.0,0.0,0.0,0.4645,0.6108,0.7805,0.8367,0.8598,0.8723,0.8875,0.0,0.8912,0.8912,0.8912,0.8912,0.8912,0.8912,0.8912,0.8912,0.0,0.0,0.0,0.0,0.0,0.9204,0.9274,0.9294,0.0,0.0,0.9841,1.1655,1.2729,1.4126,1.6015,1.7041,1.7391,1.6929,1.7364,1.7608,1.7608,1.7608,1.7608,1.7608,1.7608,1.7608,1.7608,1.7608,1.7608,0.0,0.0,0.0,0.0,1.7608,1.7608,1.7608,1.7608,1.7608,1.7608,1.7608,1.7608,1.7608,0.0,0.0,0.0,0.0,0.0,0.0,0.0,-0.7285,-0.6756,-0.6756,-0.6024,-0.532,-0.482,-0.4745,-0.4543,-0.4041,0.0,0.0,0.0,0.0,0.0,0.0,0.0,0.0,0.0,0.0,0.0,0.0,0.0,0.0,0.0,0.0,0.0,0.0,0.0,0.0,0.0,0.0,0.0,0.0,0.0,0.0,0.0,0.0,0.0,0.0,0.0,0.0,0.0,0.0,0.0,0.0,0.0,0.0,0.0,0.0,0.0,0.0,0.0,0.6164,0.7768,0.8354,0.8638,0.0,0.0,0.0,0.8912,0.8912,0.8912,0.8912,0.8912,0.8912,0.8912,0.8912,0.0,0.0,0.0,0.0,0.0,0.9339,0.0,0.0,0.0,0.9245,0.9952,1.1796,1.2778,1.4153,1.6121,1.7094,1.7608,1.7608,1.7608,1.7608,1.7608,1.7608,1.7608,1.7608,1.7608,1.7608,1.7608,1.7608,1.7608,0.0,0.0,0.0,0.0,1.7608,1.7608,1.7608,1.7608,1.7608,1.7608,1.7608,1.7608,1.7608,0.0,0.0,0.0,0.0,0.0,0.0,0.0,0.0,0.0,0.0,-0.7988,-0.7537,-0.6279,-0.6129,-0.565,0.0,0.0,0.0,0.0,0.0,0.0,0.0,0.0,0.0,0.0,0.0,0.0,-0.0278,-0.0278,-0.0278,-0.0278,0.0,0.0,0.0,0.0,0.0,0.0,0.0,0.0,0.0,0.0,0.0,0.0,0.0,0.0,0.0,0.0,0.0,0.0,0.0,0.0,0.0,0.0,0.0,0.0,0.0,0.0,0.0,0.0,0.0,0.0,0.0,0.0,0.0,0.0,0.0,0.0,0.8912,0.8912,0.8912,0.8912,0.8912,0.8912,0.0,0.0,0.0,0.0,0.9228,0.0,0.0,0.9615,0.0,0.9424,0.9271,1.0308,1.2928,1.3237,1.4502,1.7312,1.7529,1.7608,1.7608,1.7608,1.7608,1.7608,1.7608,1.7608,1.7608,1.7608,1.7608,1.7608,1.7608,1.7608,0.0,0.0,0.0,0.0,1.7608,1.7608,1.7608,1.7608,1.7608,1.7608,1.7608,1.7608,1.7608,0.0,0.0,0.0,0.0,0.0,0.0,0.0,0.0,0.0,0.0,-0.7988,-0.7889,-0.7562,-0.7537,-0.7409,0.0,0.0,0.0,0.0,0.0,0.0,0.0,0.0,0.0,0.0,0.0,0.0,-0.3065,-0.3065,-0.3065,-0.3065,-0.3065,0.0,0.0,0.0,0.0,0.0,0.0,0.0,0.0,0.0,0.0,0.0,0.0,0.0,0.0,0.0,0.0,0.0,0.0,0.0,0.0,0.0,0.0,0.0,0.0,0.0227,0.0,0.249,0.0,0.6691,0.8135,0.8625,0.8767,0.0,0.0,0.0,0.0,0.0,0.8912,0.8912,0.8912,0.8912,0.0,0.0,0.0,0.9162,0.0,0.0,0.9721,0.9676,0.9551,0.9424,0.9271,0.9868,1.15,1.267,1.4073,1.5823,1.6988,1.7608,1.7608,1.7608,1.7608,1.7608,1.7608,1.7608,1.7608,1.7608,1.7608,1.7608,1.7608,1.7608,0.0,0.0,0.0,1.7608,1.7608,1.7608,1.7608,1.7608,1.7608,1.7608,1.7608,1.7608,1.7608,0.0,0.0,0.0,0.0,0.0,0.0,0.0,0.0,0.0,0.0,0.0,0.0,0.0,0.0,0.0,0.0,0.0,0.0,0.0,0.0,0.0,0.0,0.0,0.0,0.0,0.0,0.0,0.0,0.0,-0.3991,0.0,0.0,0.0,0.0,0.0,0.0,0.0,0.0,0.0,0.0,-0.0252,0.0,0.0,0.0,0.0,0.0,0.0,0.0,0.0,0.0,0.0,0.0,0.0,0.0,0.0,0.0,0.0,0.0303,0.1637,0.3642,0.57,0.7203,0.8139,0.8723,0.0,0.0,0.0,0.0,0.0,0.8912,0.8912,0.8912,0.0,0.0,0.8912,0.0,0.0,0.0,0.9704,0.9781,0.9696,0.9551,0.0,0.9271,1.0004,1.196,1.2859,1.4207,1.6307,1.7173,1.7608,1.7608,1.7608,1.7608,1.7608,1.7608,1.7608,1.7608,1.7608,1.7608,1.7608,1.7608,1.7608,0.0,0.0,0.0,1.7608,1.7608,1.7608,1.7608,1.7608,1.7608,1.7608,1.7608,1.7608,1.7608,0.0,0.0,0.0,0.0,0.0,0.0,0.0,0.0,0.0,0.0,0.0,0.0,0.0,0.0,0.0,0.0,0.0,0.0,0.0,0.0,0.0,0.0,0.0,0.0,0.0,0.0,0.0,0.0,0.0,0.0,0.0,0.0,-0.4616,0.0,0.0,0.0,0.0,0.0,0.0,0.0,-0.0756,0.0,0.0,0.0,0.0,0.0,0.0,0.0,0.0,0.0,0.0,0.0,0.0,0.0,0.0,0.0,0.0,0.0,0.1385,0.2899,0.4545,0.6115,0.7585,0.872,0.8872,0.0,0.0,0.0,0.0,0.0,0.0,0.8912,0.0,0.0,0.0,0.0,0.9339,0.9581,0.9754,0.9754,0.9629,0.0,0.9386,0.9237,1.0309,1.309,1.3291,1.4561,1.7444,1.7608,1.7608,1.7608,1.7608,1.7608,1.7608,1.7608,1.7608,1.7608,1.7608,1.7608,1.7608,1.7608,1.7608,1.7608,0.0,0.0,1.7608,1.7608,1.7608,1.7608,1.7608,1.7608,1.7608,1.7608,1.7608,1.7608,0.0,0.0,0.0,0.0,0.0,0.0,0.0,0.0,0.0,0.0,0.0,0.0,0.0,0.0,0.0,0.0,0.0,0.0,0.0,0.0,0.0,0.0,0.0,0.0,0.0,0.0,0.0,0.0,0.0,0.0,-0.7385,-0.7385,-0.7385,-0.7332,0.0,0.0,0.0,0.0,0.0,0.0,0.0,0.0,0.0,0.0,0.0,0.0,0.0,0.0,0.0,0.0,0.0,0.0,0.0,0.0,0.0,0.0,0.0,0.0,0.0252,0.2117,0.4422,0.6098,0.7516,0.8591,0.0,0.0,0.0,0.0,0.0,0.0,0.0,0.8912,0.8912,0.0,0.0,0.9165,0.0,0.0,0.9449,0.9449,0.0,0.9243,0.9248,0.9055,1.0158,1.308,0.0,1.4561,1.7444,1.7608,1.7608,1.7608,1.7608,1.7608,1.7608,1.7608,1.7608,1.7608,1.7608,1.7608,1.7608,1.7608,1.7608,1.7608,0.0,1.7608,1.7608,1.7608,1.7608,1.7608,1.7608,1.7608,1.7608,1.7608,1.7608,1.7608,0.0,0.0,0.0,0.0,0.0,0.0,0.0,0.0,0.0,0.0,0.0,0.0,0.0,0.0,0.0,0.0,0.0,0.0,0.0,0.0,0.0,0.0,0.0,0.0,0.0,0.0,0.0,0.0,0.0,-0.7988,-0.7988,-0.7988,-0.7969,-0.787,0.0,0.0,0.0,0.0,0.0,0.0,0.0,0.0,0.0,0.0,0.0,0.0,0.0,0.0,0.0,0.0,0.0,0.0,0.0,0.0,0.0,0.0,0.0,0.0,0.0,0.1962,0.4228,0.5176,0.6969,0.8564,0.0,0.0,0.0,0.0,0.0,0.0,0.0,0.0,0.8912,0.8912,0.0,0.921,0.921,0.9315,0.941,0.0,0.0,1.004,0.9264,1.0449,1.1837,0.0,0.0,0.0,1.7503,1.7608,1.7608,1.7608,1.7608,1.7608,1.7608,1.7608,1.7608,1.7608,1.7608,1.7608,1.7608,1.7608,1.7608,1.7608,0.0,1.7608,1.7608,1.7608,1.7608,1.7608,1.7608,1.7608,1.7608,1.7608,1.7608,1.7608,0.0,0.0,0.0,0.0,0.0,0.0,0.0,0.0,0.0,0.0,0.0,0.0,0.0,0.0,0.0,0.0,0.0,0.0,0.0,0.0,0.0,0.0,0.0,0.0,0.0,0.0,-0.7988,-0.7988,-0.7988,-0.7988,-0.7988,-0.7988,-0.7952,0.0,0.0,0.0,-0.7799,-0.6864,-0.5522,0.0,0.0,0.0,0.0,0.0,0.0,0.0,0.0,0.0,0.0,0.0,0.0,0.0,0.0,0.0,0.0,0.0,0.0,0.0,0.0,0.1962,0.4078,0.4416,0.0,0.0,0.0,0.0,0.0,0.0,0.0,0.0,0.0,0.8912,0.0,0.8912,0.9032,0.9131,0.9131,0.9511,0.9785,0.9785,1.0952,1.1336,1.0264,1.2055,0.0,0.0,0.0,0.0,1.7529,1.7608,1.7608,1.7608,1.7608,1.7608,1.7608,1.7608,1.7608,1.7608,1.7608,1.7608,1.7608,1.7608,1.7608,1.7608,1.7608,1.7608,1.7608,1.7608,1.7608,1.7608,1.7608,1.7608,1.7608,1.7608,1.7608,1.7608,0.0,0.0,0.0,0.0,0.0,0.0,0.0,0.0,0.0,0.0,0.0,0.0,0.0,0.0,0.0,0.0,0.0,0.0,0.0,0.0,0.0,0.0,0.0,0.0,0.0,-0.7988,-0.7988,-0.7988,-0.7988,-0.7988,-0.7988,-0.7988,-0.7985,-0.7975,0.0,-0.7985,-0.7975,-0.7882,-0.6373,-0.3991,0.0,0.0,0.0,0.0,0.0,0.0,0.0,0.0,0.0,0.0,0.0,0.0,0.0,0.0,0.0,0.0,0.0,0.0,0.0,0.1962,0.4078,0.4416,0.6519,0.0,0.8841,0.8912,0.0,0.8912,0.0,0.0,0.0,0.8912,0.8912,0.8912,0.8919,0.8926,0.8926,0.0,1.0983,1.0983,1.2268,1.3127,1.3019,1.3166,0.0,0.0,0.0,0.0,1.7529,1.7608,1.7608,1.7608,1.7608,1.7608,1.7608,1.7608,1.7608,1.7608,1.7608,1.7608,1.7608,1.7608,1.7608,1.7608,1.7608,1.7608,1.7608,1.7608,1.7608,1.7608,1.7608,1.7608,1.7608,1.7608,1.7608,1.7608,0.0,0.0,0.0,0.0,0.0,0.0,0.0,0.0,0.0,0.0,0.0,0.0,0.0,0.0,0.0,0.0,0.0,0.0,0.0,0.0,0.0,0.0,0.0,-0.7988,-0.7988,-0.7988,-0.7988,-0.7988,-0.7988,-0.7988,-0.7988,-0.7988,0.0,0.0,-0.7988,-0.7988,-0.7939,-0.7107,-0.5697,-0.3915,-0.309,0.0,0.0,0.0,0.0,0.0,0.0,0.0,0.0,0.0,0.0,0.0,0.0,0.0,0.0,0.0,0.0,0.0177,0.1008,0.2589,0.428,0.5463,0.713,0.0,0.0,0.8912,0.8912,0.8912,0.8912,0.0,0.0,0.0,0.8912,0.8912,0.8912,0.8912,0.8912,1.0159,1.1105,1.1105,1.3183,1.4261,1.3372,0.0,0.0,0.0,0.0,0.0,1.7582,1.7608,1.7608,1.7608,1.7608,1.7608,1.7608,1.7608,1.7608,1.7608,1.7608,1.7608,1.7608,1.7608,1.7608,1.7608,1.7608,1.7608,1.7608,1.7608,1.7608,1.7608,1.7608,1.7608,1.7608,1.7608,1.7608,1.7608,0.0,0.0,0.0,0.0,0.0,0.0,0.0,0.0,0.0,0.0,0.0,0.0,0.0,0.0,0.0,0.0,0.0,0.0,0.0,0.0,0.0,0.0,0.0,-0.7988,-0.7988,-0.7988,-0.7988,-0.7988,-0.7988,-0.7988,-0.7988,0.0,0.0,0.0,-0.7988,-0.7988,-0.7914,-0.6581,-0.5222,-0.389,-0.2539,-0.1209,0.0,0.0,0.0,0.0,0.0,0.0,0.0,0.0,0.0,0.0,0.0,0.0,0.0,0.0,0.0303,0.0832,0.1762,0.333,0.5025,0.6208,0.0,0.0,0.8852,0.8912,0.8912,0.8912,0.8912,0.0,0.0,0.0,0.0,0.0,0.8912,0.9075,0.9537,1.0863,1.1969,1.2403,1.4609,1.5716,0.0,0.0,0.0,0.0,0.0,0.0,0.0,1.7608,1.7608,1.7608,1.7608,1.7608,1.7608,1.7608,1.7608,1.7608,1.7608,1.7608,1.7608,1.7608,1.7608,1.7608,1.7608,1.7608,1.7608,1.7608,1.7608,1.7608,1.7608,1.7608,1.7608,1.7608,1.7608,1.7608,0.0,0.0,0.0,0.0,0.0,0.0,0.0,0.0,0.0,0.0,0.0,0.0,0.0,0.0,0.0,0.0,0.0,0.0,0.0,0.0,0.0,0.0,0.0,-0.7988,-0.7988,-0.7988,-0.7988,-0.7988,-0.7988,-0.7988,-0.7988,-0.7988,0.0,0.0,0.0,-0.7988,-0.7914,-0.6556,-0.5222,-0.389,-0.2514,-0.1184,0.0,0.0,0.0,0.0,0.0,0.0,0.0,0.0,0.0,0.0,0.0,0.0,0.0,0.0025,0.0958,0.2013,0.2038,0.4123,0.6347,0.0,0.0,0.0,0.8875,0.8912,0.8912,0.8912,0.0,0.8912,0.0,0.0,0.0,0.8912,0.8912,0.9427,1.0891,1.2376,1.3831,1.523,1.6711,0.0,0.0,0.0,0.0,0.0,0.0,0.0,0.0,1.7608,1.7608,1.7608,1.7608,1.7608,1.7608,1.7608,1.7608,1.7608,1.7608,1.7608,1.7608,1.7608,1.7608,1.7608,1.7608,1.7608,1.7608,1.7608,1.7608,1.7608,1.7608,1.7608,1.7608,1.7608,1.7608,1.7608,0.0,0.0,0.0,0.0,0.0,0.0,0.0,0.0,0.0,0.0,0.0,0.0,0.0,0.0,0.0,0.0,0.0,0.0,0.0,0.0,0.0,0.0,0.0,0.0,0.0,0.0,-0.7988,-0.7988,-0.7988,-0.7988,0.0,0.0,0.0,-0.7988,0.0,0.0,-0.7839,-0.5572,-0.4368,-0.379,-0.1511,-0.0353,0.0,0.0,0.0,0.0,0.0,0.0,0.0,0.0,0.0,0.0,0.0,0.0,0.0177,0.1134,0.1686,0.2414,0.4296,0.5546,0.0,0.7651,0.0,0.0,0.0,0.8912,0.0,0.0,0.0,0.8912,0.0,0.0,0.0,0.8912,0.9781,1.0594,1.1055,1.321,1.4931,1.5364,1.6711,0.0,0.0,0.0,0.0,0.0,0.0,0.0,0.0,1.7608,1.7608,1.7608,1.7608,1.7608,1.7608,1.7608,1.7608,1.7608,1.7608,1.7608,1.7608,1.7608,1.7608,1.7608,1.7608,1.7608,1.7608,1.7608,1.7608,1.7608,1.7608,1.7608,1.7608,1.7608,1.7608,1.7608,0.0,0.0,0.0,0.0,0.0,0.0,0.0,0.0,0.0,0.0,0.0,0.0,0.0,0.0,0.0,0.0,0.0,0.0,0.0,0.0,0.0,0.0,0.0,0.0,0.0,-0.7988,-0.7988,0.0,0.0,0.0,0.0,0.0,0.0,-0.7988,0.0,-0.7988,0.0,-0.5143,-0.3991,-0.3765,-0.1084,0.0,0.0,0.0,0.0,0.0,0.0,0.0,0.0,0.0,0.0,0.0,0.0,0.0353,0.0958,0.1762,0.2765,0.3951,0.5649,0.6635,0.0,0.8348,0.8686,0.8798,0.8889,0.0,0.0,0.0,0.0,0.8912,0.0,0.0,0.0,0.9671,1.0511,1.151,1.2642,1.4314,1.563,1.6201,0.0,0.0,0.0,0.0,0.0,0.0,0.0,0.0,0.0,1.7608,1.7608,1.7608,1.7608,1.7608,1.7608,1.7608,1.7608,1.7608,1.7608,1.7608,1.7608,1.7608,1.7608,1.7608,1.7608,1.7608,1.7608,1.7608,1.7608,1.7608,1.7608,1.7608,1.7608,1.7608,1.7608,1.7608,0.0,0.0,0.0,0.0,0.0,0.0,0.0,0.0,0.0,0.0,0.0,0.0,0.0,0.0,0.0,0.0,0.0,0.0,0.0,0.0,0.0,0.0,0.0,0.0,0.0,0.0,0.0,0.0,0.0,0.0,0.0,0.0,-0.7988,-0.7988,0.0,-0.7988,-0.7811,-0.5143,-0.3991,-0.3765,-0.1084,0.0,0.0,0.0,0.0,0.0,0.0,0.0,0.0,0.0,0.0,0.0,0.0,0.0932,0.2013,0.2138,0.3996,0.6077,0.6391,0.0,0.0,0.8672,0.8798,0.0,0.8912,0.8912,0.8912,0.8912,0.0,0.8912,0.0,0.8912,0.9344,1.0672,1.1133,1.2213,0.0,1.5444,1.6095,1.7444,0.0,0.0,0.0,0.0,0.0,0.0,0.0,0.0,0.0,1.7608,1.7608,1.7608,1.7608,1.7608,1.7608,1.7608,1.7608,1.7608,1.7608,1.7608,1.7608,1.7608,1.7608,1.7608,1.7608,1.7608,1.7608,1.7608,1.7608,1.7608,1.7608,1.7608,1.7608,1.7608,1.7608,1.7608,0.0,0.0,0.0,0.0,0.0,0.0,0.0,0.0,0.0,0.0,0.0,0.0,0.0,0.0,0.0,0.0,0.0,0.0,0.0,0.0,0.0,0.0,0.0,0.0,0.0,0.0,0.0,0.0,0.0,0.0,0.0,0.0,0.0,-0.7988,0.0,-0.7988,-0.7811,-0.5143,-0.3991,-0.3765,-0.1084,0.0,0.0,0.0,0.0,0.0,0.0,0.0,0.0,0.0,0.0,0.0,0.0,0.0932,0.2213,0.3265,0.472,0.628,0.7531,0.8189,0.0,0.0,0.8798,0.8912,0.8912,0.8912,0.8912,0.8912,0.0,0.0,0.8912,0.8912,0.8992,0.932,1.1324,0.0,0.0,0.0,0.0,0.0,0.0,0.0,0.0,0.0,0.0,0.0,0.0,0.0,1.7608,1.7608,1.7608,1.7608,1.7608,1.7608,1.7608,1.7608,1.7608,0.0,1.7608,1.7608,1.7608,1.7608,1.7608,1.7608,1.7608,1.7608,1.7608,1.7608,1.7608,1.7608,1.7608,1.7608,1.7608,1.7608,1.7608,1.7608,0.0,0.0,0.0,0.0,0.0,0.0,0.0,0.0,0.0,0.0,0.0,0.0,0.0,0.0,0.0,0.0,0.0,0.0,0.0,0.0,0.0,0.0,0.0,0.0,0.0,0.0,0.0,0.0,0.0,0.0,0.0,0.0,0.0,-0.7988,0.0,-0.7988,-0.7811,-0.5143,-0.3991,-0.3765,-0.1084,0.0,0.0,0.0,0.0,0.0,0.0,0.0,0.0,0.0,0.0,0.0,0.0,0.0,0.3215,0.457,0.5899,0.7178,0.8129,0.0,0.0,0.8737,0.0,0.8912,0.8912,0.8912,0.8912,0.8912,0.8912,0.8912,0.8912,0.8912,0.913,0.9833,1.1837,0.0,0.0,0.0,0.0,0.0,0.0,0.0,0.0,0.0,0.0,0.0,0.0,1.7608,1.7608,1.7608,1.7608,1.7608,1.7608,1.7608,1.7608,1.7608,1.7608,1.7608,1.7608,1.7608,1.7608,1.7608,1.7608,1.7608,1.7608,1.7608,1.7608,1.7608,1.7608,1.7608,1.7608,1.7608,1.7608,1.7608,1.7608,1.7608,0.0,0.0,0.0,0.0,0.0,0.0,0.0,0.0,0.0,0.0,0.0,0.0,0.0,0.0,0.0,0.0,0.0,0.0,0.0,0.0,0.0,0.0,0.0,0.0,0.0,0.0,0.0,0.0,0.0,0.0,0.0,0.0,0.0,-0.7988,0.0,-0.7988,-0.7811,-0.5143,-0.3991,-0.3765,-0.1084,0.0,0.0,0.0,0.0,0.0,0.0,0.0,0.0,0.0,0.0,0.0,0.0,0.0,0.4568,0.5677,0.6973,0.8115,0.8408,0.0,0.8621,0.8848,0.8912,0.0,0.8912,0.8912,0.8912,0.8912,0.8912,0.8912,0.8912,0.8912,0.9372,1.0863,1.2349,0.0,0.0,0.0,0.0,0.0,0.0,0.0,0.0,0.0,0.0,0.0,0.0,1.7608,1.7608,1.7608,1.7608,1.7608,1.7608,1.7608,1.7608,1.7608,1.7608,1.7608,1.7608,1.7608,1.7608,1.7608,1.7608,1.7608,1.7608,1.7608,1.7608,1.7608,1.7608,1.7608,1.7608,1.7608,1.7608,1.7608,1.7608,1.7608,0.0,0.0,0.0,0.0,0.0,0.0,0.0,0.0,0.0,0.0,0.0,0.0,0.0,0.0,0.0,0.0,0.0,0.0,0.0,0.0,0.0,0.0,0.0,0.0,0.0,0.0,0.0,0.0,0.0,0.0,0.0,0.0,0.0,-0.7988,0.0,0.0,-0.7811,-0.5143,-0.3991,-0.3765,-0.1084,0.0,0.0,0.0,0.0,0.0,0.0,0.0,0.0,0.0,0.0782,0.0,0.0,0.0,0.5777,0.5954,0.7065,0.8301,0.0,0.0,0.8862,0.0,0.8912,0.8912,0.0,0.0,0.8912,0.0,0.8912,0.8912,0.8912,0.8912,0.9372,1.0863,0.0,0.0,0.0,0.0,0.0,0.0,0.0,0.0,0.0,0.0,0.0,0.0,1.7608,1.7608,1.7608,1.7608,1.7608,1.7608,1.7608,1.7608,1.7608,1.7608,1.7608,1.7608,1.7608,1.7608,1.7608,1.7608,1.7608,1.7608,1.7608,1.7608,1.7608,1.7608,1.7608,1.7608,1.7608,1.7608,1.7608,1.7608,1.7608,1.7608,0.0,0.0,0.0,0.0,0.0,0.0,0.0,0.0,0.0,0.0,0.0,0.0,0.0,0.0,0.0,0.0,0.0,0.0,0.0,0.0,0.0,-1.1116,-0.9825,-0.8775,0.0,0.0,0.0,0.0,0.0,0.0,0.0,-0.7988,-0.7988,0.0,0.0,0.0,0.0,0.0,-0.3991,-0.3765,-0.1084,0.0,0.0,0.0,0.0,0.0,0.0,0.0,0.0,0.0,0.0882,0.2138,0.2889,0.0,0.0,0.0,0.7689,0.8345,0.855,0.8743,0.8912,0.0,0.8912,0.8912,0.8912,0.0,0.913,0.997,1.0131,1.0131,1.0131,1.0131,1.0621,1.2077,0.0,0.0,0.0,0.0,0.0,0.0,0.0,0.0,0.0,0.0,0.0,0.0,1.7608,1.7608,1.7608,1.7608,1.7608,1.7608,1.7608,1.7608,1.7608,1.7608,1.7608,1.7608,1.7608,1.7608,1.7608,1.7608,1.7608,1.7608,1.7608,1.7608,1.7608,1.7608,1.7608,1.7608,1.7608,1.7608,1.7608,1.7608,1.7608,1.7608,0.0,0.0,0.0,0.0,0.0,0.0,0.0,0.0,0.0,0.0,0.0,0.0,0.0,0.0,0.0,0.0,0.0,0.0,0.0,0.0,0.0,-1.1969,-1.0681,-0.9361,-0.8038,0.0,0.0,0.0,0.0,0.0,-0.7988,-0.7988,-0.7988,0.0,-0.7988,0.0,0.0,0.0,0.0,0.0,0.0,0.0,0.0,0.0,0.0,0.0,0.0,0.0,0.0,0.0,0.0,0.0,0.0,0.0,0.0,0.0,0.0,0.0,0.0,0.0,0.8912,0.8912,0.8912,0.8992,0.0,0.0,0.9888,0.0,1.1647,1.1783,1.2132,1.1892,1.2132,1.3588,0.0,0.0,0.0,0.0,0.0,0.0,0.0,0.0,0.0,0.0,0.0,0.0,1.7608,1.7608,1.7608,1.7608,1.7608,1.7608,1.7608,1.7608,1.7608,1.7608,1.7608,1.7608,1.7608,1.7608,1.7608,1.7608,1.7608,1.7608,1.7608,1.7608,1.7608,1.7608,1.7608,1.7608,1.7608,1.7608,1.7608,1.7608,1.7608,1.7608,0.0,0.0,0.0,0.0,0.0,0.0,0.0,0.0,0.0,0.0,0.0,0.0,0.0,0.0,0.0,0.0,0.0,0.0,0.0,0.0,0.0,-1.1969,-1.0681,0.0,-0.8038,0.0,0.0,0.0,0.0,0.0,-0.7988,-0.7988,-0.7988,-0.7988,-0.7988,-0.7988,-0.7914,0.0,0.0,0.0,0.0,0.0,0.0,0.0,0.0,0.0,0.0,0.0,0.0,0.0,0.0,0.0,0.0,0.0,0.0,0.0,0.0,0.0,0.0,0.8794,0.0,0.8912,0.8912,0.0,0.0,0.0,0.0,0.0,1.3183,1.3588,1.4931,1.41,1.3642,1.507,0.0,0.0,0.0,0.0,0.0,0.0,0.0,0.0,0.0,0.0,0.0,0.0,1.7608,1.7608,1.7608,1.7608,1.7608,1.7608,1.7608,1.7608,1.7608,1.7608,1.7608,1.7608,1.7608,1.7608,1.7608,1.7608,1.7608,1.7608,1.7608,1.7608,1.7608,1.7608,1.7608,1.7608,1.7608,1.7608,1.7608,1.7608,1.7608,1.7608,0.0,0.0,0.0,0.0,0.0,0.0,0.0,0.0,0.0,0.0,0.0,0.0,0.0,0.0,-1.5808,-1.5808,-1.5808,0.0,0.0,0.0,0.0,-1.1969,-1.0681,-0.9361,-0.8038,0.0,0.0,0.0,0.0,-0.7988,-0.7988,-0.7988,-0.7988,-0.7988,-0.7988,-0.7988,-0.7914,-0.6581,0.0,0.0,0.0,0.0,0.0,0.0,0.0,0.0,0.0,0.0,0.0,0.0,0.0,0.0,0.0,0.0,0.0,0.0,0.0,0.0,0.0,0.0,0.0,1.0319,1.1023,1.1864,1.2403,1.2512,1.2913,1.4341,1.4663,1.5097,1.6552,1.5636,1.5123,0.0,0.0,0.0,0.0,0.0,0.0,0.0,0.0,0.0,0.0,0.0,0.0,0.0,0.0,1.7608,1.7608,1.7608,1.7608,1.7608,1.7608,1.7608,1.7608,1.7608,1.7608,1.7608,1.7608,1.7608,1.7608,1.7608,1.7608,1.7608,1.7608,1.7608,1.7608,1.7608,1.7608,1.7608,1.7608,1.7608,1.7608,1.7608,1.7608,1.7608,0.0,0.0,0.0,0.0,0.0,0.0,0.0,0.0,0.0,0.0,0.0,0.0,0.0,0.0,-1.5808,-1.5808,-1.5808,-1.5808,-1.5808,-1.4609,-1.3295,-1.1969,-1.0681,-0.9361,0.0,0.0,0.0,0.0,0.0,0.0,0.0,-0.7988,-0.7988,-0.7988,-0.7988,-0.7988,0.0,0.0,0.0,-0.389,0.0,0.0,0.0,0.0,0.0,0.0,0.0,0.0,0.0,0.0,0.0,0.0,0.0,0.0,0.0,0.0,0.0,0.0,0.8591,0.0,0.0,0.0,0.0,1.2805,1.3777,0.0,1.4422,1.5849,1.6148,1.6446,1.7417,1.6797,1.6472,1.7444,0.0,0.0,0.0,0.0,0.0,0.0,0.0,0.0,0.0,0.0,0.0,0.0,0.0,0.0,1.7608,1.7608,1.7608,1.7608,1.7608,1.7608,1.7608,1.7608,1.7608,1.7608,1.7608,1.7608,1.7608,1.7608,1.7608,1.7608,1.7608,1.7608,1.7608,1.7608,1.7608,1.7608,1.7608,1.7608,1.7608,1.7608,1.7608,1.7608,0.0,0.0,0.0,0.0,0.0,0.0,0.0,0.0,0.0,0.0,0.0,0.0,0.0,0.0,0.0,-1.5808,-1.5808,-1.5808,-1.5808,-1.4579,-1.3247,-1.1969,0.0,0.0,0.0,0.0,0.0,0.0,0.0,0.0,0.0,0.0,-0.7988,-0.7988,-0.7988,-0.7988,-0.7914,0.0,-0.5272,-0.389,0.0,-0.1234,0.0,0.0,0.0,0.0,0.0,0.0857,0.0,0.3541,0.0,0.0,0.0,0.0,0.0,0.0,0.0,0.0,0.0,0.0,0.0,0.0,0.0,0.0,1.4824,0.0,1.5876,1.7312,1.7608,1.7608,1.7608,1.7608,1.7608,1.7608,0.0,0.0,0.0,0.0,0.0,0.0,0.0,0.0,0.0,0.0,0.0,0.0,1.7608,1.7608,1.7608,1.7608,1.7608,1.7608,1.7608,1.7608,1.7608,1.7608,1.7608,1.7608,1.7608,1.7608,1.7608,1.7608,1.7608,1.7608,1.7608,1.7608,1.7608,1.7608,1.7608,1.7608,1.7608,1.7608,1.7608,1.7608,1.7608,1.7608,0.0,0.0,0.0,0.0,0.0,0.0,0.0,0.0,0.0,0.0,0.0,0.0,0.0,0.0,0.0,-1.5808,-1.5808,-1.5808,-1.5808,-1.3692,-1.2285,-1.1926,-0.9752,-0.8382,0.0,0.0,0.0,0.0,0.0,0.0,0.0,0.0,0.0,0.0,-0.7988,-0.7988,-0.7963,-0.7612,0.0,0.0,-0.359,-0.2063,0.0,0.0,0.0,0.0,0.0,0.0857,0.2213,0.0,0.4895,0.6232,0.0,0.0,0.0,0.0,0.0,0.0,0.8345,0.0,0.0,0.0,0.0,0.0,0.0,0.0,1.712,1.7529,1.7608,1.7608,1.7608,1.7608,1.7608,1.7608,0.0,0.0,0.0,0.0,0.0,0.0,0.0,0.0,0.0,0.0,0.0,0.0,1.7608,1.7608,1.7608,1.7608,1.7608,1.7608,1.7608,1.7608,1.7608,1.7608,1.7608,1.7608,1.7608,1.7608,1.7608,1.7608,1.7608,1.7608,1.7608,1.7608,1.7608,1.7608,1.7608,1.7608,1.7608,1.7608,1.7608,1.7608,1.7608,1.7608,0.0,0.0,0.0,0.0,0.0,0.0,0.0,0.0,0.0,0.0,0.0,0.0,0.0,0.0,0.0,0.0,-1.5808,-1.5808,-1.5808,-1.3355,-1.1896,-1.1896,-0.9386,-0.7988,-0.7988,0.0,0.0,0.0,0.0,0.0,0.0,0.0,0.0,0.0,0.0,0.0,0.0,0.0,0.0,0.0,-0.3391,0.0,0.0,0.0,0.0,0.0,0.0,0.0,0.2213,0.3541,0.527,0.0,0.0,0.0,0.0,0.0,0.0,0.0,0.0,0.0,0.0,0.0,0.0,0.0,1.6335,1.7147,1.7608,0.0,1.7608,1.7608,1.7608,1.7608,1.7608,1.7608,0.0,0.0,0.0,0.0,0.0,0.0,0.0,0.0,0.0,1.7608,1.7608,1.7608,1.7608,1.7608,1.7608,1.7608,1.7608,1.7608,1.7608,1.7608,1.7608,1.7608,1.7608,1.7608,1.7608,1.7608,1.7608,1.7608,1.7608,1.7608,1.7608,1.7608,1.7608,1.7608,1.7608,1.7608,1.7608,1.7608,1.7608,1.7608,1.7608,1.7608,0.0,0.0,0.0,0.0,0.0,0.0,0.0,0.0,0.0,0.0,0.0,0.0,0.0,0.0,0.0,0.0,-1.5808,-1.5808,-1.5808,-1.3499,-1.2067,-1.1901,-0.9534,-0.8162,-0.8013,-0.7881,0.0,0.0,0.0,0.0,0.0,0.0,0.0,0.0,0.0,0.0,0.0,0.0,0.0,-0.389,-0.2715,-0.1335,0.0,0.0,0.0,0.0,0.0,0.0857,0.2238,0.3717,0.5897,0.0,0.0,0.0,0.0,0.0,0.7988,0.0,0.0,0.0,0.0,0.0,0.0,0.0,1.5211,1.6639,1.7608,1.7608,1.7608,1.7608,1.7608,1.7608,1.7608,1.7608,1.7608,0.0,0.0,0.0,0.0,0.0,0.0,0.0,1.7608,1.7608,1.7608,1.7608,1.7608,1.7608,1.7608,1.7608,1.7608,1.7608,1.7608,1.7608,1.7608,1.7608,1.7608,1.7608,1.7608,1.7608,1.7608,1.7608,1.7608,1.7608,1.7608,1.7608,1.7608,1.7608,1.7608,1.7608,1.7608,1.7608,1.7608,1.7608,1.7608,1.7608,0.0,0.0,0.0,0.0,0.0,0.0,0.0,0.0,0.0,0.0,0.0,0.0,0.0,0.0,0.0,0.0,0.0,-1.5808,0.0,-1.4364,-1.303,-1.195,-1.0435,-0.9118,-0.8013,-0.7986,-0.7986,-0.7988,0.0,0.0,0.0,0.0,0.0,0.0,0.0,0.0,0.0,0.0,0.0,-0.3966,-0.3715,0.0,0.0,0.0,0.0,0.0,0.0,0.0857,0.2364,0.4797,0.6681,0.7988,0.0,0.0,0.0,0.0,0.0,0.0,0.0,0.0,0.0,0.0,0.0,0.0,1.6264,1.7252,1.7608,1.7608,1.7608,1.7608,1.7608,1.7608,1.7608,1.7608,1.7608,0.0,0.0,0.0,0.0,0.0,0.0,0.0,1.7608,1.7608,1.7608,1.7608,1.7608,1.7608,1.7608,1.7608,1.7608,1.7608,1.7608,1.7608,1.7608,1.7608,1.7608,1.7608,1.7608,1.7608,1.7608,1.7608,1.7608,1.7608,1.7608,1.7608,1.7608,1.7608,1.7608,1.7608,1.7608,1.7608,1.7608,1.7608,1.7608,1.7608,0.0,0.0,0.0,0.0,0.0,0.0,0.0,0.0,0.0,0.0,0.0,0.0,0.0,0.0,0.0,0.0,0.0,0.0,0.0,0.0,-1.1648,-1.0974,-0.9702,-0.8676,-0.8017,-0.7988,-0.7988,-0.7988,0.0,0.0,0.0,0.0,0.0,0.0,0.0,0.0,0.0,0.0,-0.6451,-0.3991,-0.3991,0.0,0.0,0.0,0.0,0.0,0.0,0.0857,0.2314,0.432,0.5899,0.0,0.0,0.7988,0.7988,0.0,0.7988,0.7988,0.0,0.0,0.0,1.0771,0.0,0.0,0.0,1.6782,1.7434,1.7582,1.7608,1.7608,1.7608,0.0,1.7608,1.7608,1.7608,0.0,0.0,0.0,0.0,0.0,0.0,0.0,1.7608,1.7608,1.7608,1.7608,1.7608,1.7608,1.7608,1.7608,1.7608,1.7608,1.7608,1.7608,1.7608,1.7608,1.7608,1.7608,1.7608,1.7608,1.7608,1.7608,1.7608,1.7608,1.7608,1.7608,1.7608,1.7608,1.7608,1.7608,1.7608,1.7608,1.7608,1.7608,1.7608,1.7608,0.0,0.0,0.0,0.0,0.0,0.0,0.0,0.0,0.0,0.0,0.0,0.0,0.0,0.0,0.0,0.0,0.0,0.0,0.0,0.0,-1.0268,-0.9998,-0.897,-0.8258,-0.8013,-0.7988,-0.7988,-0.7988,-0.7988,0.0,0.0,0.0,0.0,0.0,0.0,0.0,0.0,0.0,0.0,-0.3991,0.0,-0.2388,0.0,0.0,0.0,0.0,0.0,0.0857,0.2163,0.324,0.467,0.6179,0.7285,0.7789,0.0,0.0,0.0,0.0,0.0,0.0,0.0,0.0,0.0,1.2828,0.0,0.0,0.0,0.0,0.0,0.0,0.0,0.0,0.0,0.0,0.0,0.0,0.0,0.0,0.0,0.0,0.0,0.0,1.7608,1.7608,1.7608,1.7608,1.7608,1.7608,1.7608,1.7608,1.7608,1.7608,1.7608,1.7608,1.7608,1.7608,1.7608,1.7608,1.7608,1.7608,1.7608,1.7608,1.7608,1.7608,1.7608,1.7608,1.7608,1.7608,1.7608,1.7608,1.7608,1.7608,1.7608,1.7608,1.7608,1.7608,-1.5808,-1.5808,0.0,0.0,0.0,0.0,0.0,0.0,0.0,0.0,0.0,0.0,0.0,0.0,0.0,0.0,0.0,0.0,-1.2139,0.0,0.0,-1.0047,-0.9854,-0.9217,-0.8038,-0.7988,-0.7988,-0.7988,-0.7988,-0.7988,0.0,0.0,0.0,0.0,-0.6681,0.0,0.0,0.0,-0.5372,0.0,-0.3991,-0.2388,0.0,0.0,0.0,0.0,0.0,0.0857,0.2013,0.0,0.3919,0.6029,0.0,0.7033,0.7988,0.0,0.0,0.0,0.0,0.0,0.0,0.0,1.1216,0.0,0.0,0.0,1.7213,1.7246,0.0,0.0,0.0,0.0,0.0,0.0,0.0,0.0,0.0,0.0,0.0,0.0,0.0,0.0,0.0,1.7608,1.7608,1.7608,1.7608,1.7608,1.7608,1.7608,1.7608,1.7608,1.7608,1.7608,1.7608,1.7608,1.7608,1.7608,1.7608,1.7608,1.7608,1.7608,1.7608,1.7608,1.7608,1.7608,1.7608,1.7608,1.7608,1.7608,1.7608,1.7608,1.7608,1.7608,1.7608,1.7608,-1.5808,-1.5808,0.0,0.0,0.0,0.0,0.0,0.0,0.0,0.0,0.0,0.0,0.0,0.0,0.0,0.0,0.0,-1.158,0.0,0.0,0.0,0.0,-0.885,-0.8581,-0.8013,-0.7988,-0.7988,-0.7988,-0.7988,-0.7988,0.0,0.0,0.0,0.0,-0.6254,0.0,-0.5647,0.0,-0.4067,0.0,0.0,0.0,0.0,0.0,0.0,0.0,0.0,0.0353,0.0958,0.0,0.274,0.0,0.0,0.0,0.0,0.0,0.0,0.0,0.0,0.0,0.0,0.0,0.0,0.0,1.38,0.0,1.5777,0.0,0.0,0.0,0.0,0.0,0.0,0.0,1.7528,0.0,0.0,0.0,0.0,0.0,0.0,0.0,0.0,0.0,0.0,0.0,1.7608,1.7608,1.7608,1.7608,1.7608,1.7608,1.7608,1.7608,1.7608,1.7608,1.7608,1.7608,1.7608,1.7608,1.7608,1.7608,1.7608,1.7608,1.7608,1.7608,1.7608,1.7608,1.7608,1.7608,1.7608,1.7608,1.7608,1.7608,1.7608,1.7608,0.0,0.0,0.0,0.0,0.0,0.0,-1.5808,-1.5808,-1.5808,0.0,0.0,0.0,-1.4758,-1.4418,0.0,0.0,-1.138,-1.0435,0.0,0.0,-0.7988,0.0,0.0,0.0,0.0,-0.7988,-0.7988,-0.7988,-0.7988,-0.7988,0.0,0.0,0.0,0.0,0.0,-0.545,-0.4518,0.0,0.0,-0.1988,-0.1988,-0.1209,0.0,0.0,0.0,0.0,0.0,0.0,0.0151,0.1134,0.1686,0.0,0.4722,0.0,0.0,0.0,0.0,0.0,0.7988,0.0,0.0,0.0,0.0,0.0,0.0,0.0,0.0,0.0,0.0,0.0,0.0,0.0,0.0,0.0,0.0,0.0,0.0,0.0,0.0,0.0,0.0,0.0,0.0,0.0,0.0,1.7608,1.7608,1.7608,1.7608,1.7608,1.7608,1.7608,1.7608,1.7608,1.7608,1.7608,1.7608,1.7608,1.7608,1.7608,1.7608,1.7608,1.7608,1.7608,1.7608,1.7608,1.7608,1.7608,1.7608,1.7608,1.7608,1.7608,1.7608,1.7608,1.7608,1.7608,-1.5808,-1.5808,0.0,0.0,0.0,0.0,-1.5808,-1.5808,-1.5808,0.0,0.0,0.0,0.0,0.0,0.0,0.0,0.0,-0.8113,-0.8063,0.0,-0.7988,0.0,0.0,-0.7988,0.0,0.0,-0.7988,-0.7988,-0.7988,-0.7988,-0.7988,0.0,0.0,0.0,0.0,-0.5979,-0.5854,-0.4543,-0.3215,-0.1988,-0.1988,-0.1209,0.0,0.0,0.0,0.0,0.0,0.0,0.0,0.0051,0.0932,0.0,0.0,0.0,0.0,0.0,0.0,0.0,0.0,0.0,0.0,0.8063,0.0,0.0,0.0,0.0,1.4685,0.0,0.0,0.0,0.0,0.0,0.0,0.0,0.0,0.0,0.0,0.0,0.0,0.0,0.0,0.0,0.0,0.0,0.0,1.7608,1.7608,1.7608,1.7608,1.7608,1.7608,1.7608,1.7608,1.7608,1.7608,1.7608,1.7608,1.7608,1.7608,1.7608,1.7608,1.7608,1.7608,1.7608,1.7608,1.7608,1.7608,1.7608,1.7608,1.7608,1.7608,1.7608,1.7608,1.7608,1.7608,1.7608,0.0,0.0,0.0,0.0,0.0,-1.4244,-1.3355,-1.3234,-1.3234,0.0,0.0,0.0,0.0,-1.1507,-1.073,0.0,0.0,-0.8945,-0.8063,-0.7988,0.0,0.0,0.0,-0.7988,0.0,0.0,0.0,0.0,0.0,-0.7988,-0.7988,0.0,0.0,0.0,0.0,-0.55,0.0,0.0,0.0,0.0,0.0,-0.0404,0.0,0.0,0.0,0.0,0.0,0.0,0.0,0.0,0.0303,0.0907,0.2264,0.3591,0.4945,0.6279,0.731,0.0,0.0,0.0,0.7988,0.7988,0.0,0.0,0.0,0.0,0.0,0.0,0.0,0.0,0.0,0.0,0.0,0.0,0.0,0.0,0.0,0.0,0.0,0.0,0.0,0.0,0.0,0.0,0.0,1.7608,1.7608,1.7608,1.7608,1.7608,1.7608,1.7608,1.7608,1.7608,1.7608,1.7608,1.7608,1.7608,1.7608,1.7608,1.7608,1.7608,1.7608,1.7608,1.7608,1.7608,1.7608,1.7608,1.7608,1.7608,1.7608,1.7608,1.7608,1.7608,1.7608,1.7608,-1.3199,0.0,0.0,0.0,0.0,0.0,-1.2018,0.0,0.0,0.0,-1.1507,0.0,-1.1219,0.0,-1.019,0.0,-0.9291,-0.892,-0.8063,-0.7988,0.0,-0.7988,-0.7988,0.0,0.0,0.0,0.0,0.0,0.0,-0.7988,-0.7988,0.0,0.0,0.0,0.0,-0.4997,-0.324,0.0,-0.1234,0.0,0.0,0.0,0.0,0.0,0.0,0.0,0.0,0.0,0.0,0.0,0.0,0.0227,0.1586,0.2589,0.3642,0.5475,0.6606,0.7385,0.7864,0.7988,0.0,0.7988,0.7988,0.0,0.9706,0.0,0.0,0.0,0.0,0.0,0.0,0.0,0.0,0.0,0.0,0.0,0.0,0.0,0.0,0.0,0.0,0.0,0.0,0.0,1.7608,1.7608,1.7608,1.7608,0.0,0.0,1.7608,1.7608,1.7608,1.7608,1.7608,1.7608,1.7608,1.7608,1.7608,1.7608,1.7608,1.7608,1.7608,1.7608,1.7608,1.7608,1.7608,1.7608,1.7608,1.7608,1.7608,1.7608,1.7608,1.7608,1.7608,1.7608,0.0,0.0,0.0,0.0,-1.1755,0.0,0.0,0.0,-1.1702,0.0,-1.0656,-0.9899,-0.9899,-0.8775,-0.7988,-0.7988,-0.7988,-0.7988,-0.7988,-0.7988,0.0,0.0,-0.7988,-0.7988,-0.7988,0.0,0.0,0.0,0.0,0.0,0.0,0.0,0.0,0.0,-0.5902,0.0,-0.1988,-0.1988,-0.1234,0.0,0.0,0.0,0.0,0.0,0.0,0.0,0.0,0.0,0.0,0.0,0.0,0.0227,0.1511,0.1938,0.2515,0.5125,0.5954,0.6304,0.7637,0.7988,0.7988,0.7988,0.0,0.0,0.0,0.0,1.0342,0.0,0.0,0.0,0.0,0.0,0.0,0.0,0.0,0.0,0.0,0.0,0.0,0.0,0.0,0.0,0.0,1.7608,1.7608,1.7608,1.7608,1.7608,0.0,0.0,1.7608,1.7608,1.7608,1.7608,1.7608,1.7608,1.7608,1.7608,1.7608,1.7608,1.7608,1.7608,1.7608,1.7608,1.7608,1.7608,1.7608,1.7608,1.7608,1.7608,1.7608,1.7608,1.7608,1.7608,1.7608,1.7608,-1.0485,-0.9678,-0.8994,0.0,-0.9825,-1.0145,0.0,0.0,0.0,0.0,-0.8726,-0.8506,-0.8506,-0.8212,-0.7988,-0.7988,-0.7988,0.0,0.0,0.0,0.0,-0.7988,-0.7988,-0.7988,-0.7988,-0.7988,0.0,-0.7988,0.0,0.0,-0.6506,0.0,0.0,0.0,0.0,0.0,-0.1988,-0.1988,-0.1234,0.0,0.0,0.0,0.0,0.0,0.0,0.0,0.0,0.0,0.0,0.0,0.0,0.005,0.0404,0.1209,0.2339,0.4017,0.5222,0.6304,0.7637,0.7988,0.7988,0.7988,0.7988,0.8088,0.0,0.0,0.0,0.0,0.0,0.0,0.0,0.0,0.0,0.0,0.0,0.0,0.0,0.0,0.0,0.0,0.0,0.0,0.0,1.7608,1.7608,1.7608,1.7608,1.7608,0.0,0.0,0.0,1.7608,1.7608,1.7608,1.7608,1.7608,1.7608,1.7608,1.7608,1.7608,1.7608,1.7608,1.7608,1.7608,1.7608,1.7608,1.7608,1.7608,1.7608,1.7608,1.7608,1.7608,1.7608,1.7608,1.7608,1.7608,-0.9118,0.0,0.0,-0.7988,0.0,0.0,-0.8113,-0.7988,0.0,-0.7988,-0.7988,0.0,-0.7988,-0.7988,-0.7988,-0.7988,-0.7988,0.0,-0.7988,0.0,0.0,-0.7988,-0.7988,-0.7739,-0.7135,-0.7135,0.0,-0.6249,0.0,0.0,-0.5122,0.0,0.0,0.0,0.0,-0.2388,-0.1134,-0.1134,-0.0681,0.0,0.0,0.0,0.0,0.0,0.0,0.0,0.0,0.0,0.0,0.0,0.0,0.0,0.0,0.053,0.1511,0.3441,0.4543,0.555,0.7484,0.7988,0.7988,0.7988,0.7988,0.7988,0.7988,0.8577,0.9118,0.0,0.0,0.0,0.0,0.0,0.0,0.0,0.0,0.0,0.0,0.0,0.0,0.0,0.0,0.0,0.0,1.7608,1.7608,1.7608,1.7608,0.0,0.0,0.0,0.0,1.7608,1.7608,1.7608,1.7608,1.7608,1.7608,1.7608,1.7608,1.7608,1.7608,1.7608,1.7608,1.7608,1.7608,1.7608,1.7608,1.7608,1.7608,1.7608,1.7608,1.7608,1.7608,1.7608,1.7608,1.7608,-0.8074,0.0,0.0,0.0,0.0,0.0,0.0,-0.804,0.0,-0.7988,0.0,-0.7988,-0.7988,-0.7988,-0.7988,-0.7988,0.0,-0.7988,-0.7988,-0.7988,-0.7988,-0.7988,-0.7839,-0.7185,-0.6029,-0.5827,0.0,0.0,0.0,0.0,0.0,0.0,0.0,0.0,0.0,0.0,0.0,0.0,0.0,0.0,0.0,0.0,0.0,0.0,0.0,0.0,0.0,0.0,0.0,0.0,0.0,0.0,0.0,0.0,0.0504,0.3015,0.3865,0.4543,0.7058,0.7864,0.7988,0.7988,0.7988,0.7988,0.7988,0.7988,0.7988,0.7988,0.892,0.9435,0.0,0.0,0.0,0.0,0.0,0.0,0.0,0.0,0.0,0.0,0.0,0.0,0.0,0.0,1.7608,1.7608,1.7608,0.0,0.0,0.0,0.0,1.7608,1.7608,1.7608,1.7608,0.0,1.7608,1.7608,1.7608,1.7608,1.7608,1.7608,1.7608,1.7608,1.7608,1.7608,1.7608,1.7608,1.7608,1.7608,1.7608,1.7608,1.7608,1.7608,1.7608,1.7608,0.0,0.0,0.0,0.0,0.0,-0.8404,-0.8404,-0.8172,-0.7988,-0.7988,-0.7988,-0.7988,-0.7988,-0.7988,-0.7988,-0.7988,-0.7988,0.0,0.0,0.0,0.0,-0.7988,-0.6933,-0.6232,-0.6004,-0.492,-0.4243,0.0,0.0,0.0,0.0,0.0,0.0,0.0,0.0,0.0,0.0,0.0,0.0,0.0,0.0,0.0,0.0,0.0,0.0,0.0,0.0,0.0,0.0,0.0,0.0,0.0,0.0,0.0,0.0303,0.1887,0.314,0.4343,0.5927,0.7157,0.7988,0.7988,0.7988,0.7988,0.7988,0.7988,0.7988,0.7988,0.8187,0.8627,0.9484,0.0,0.0,0.0,0.0,0.0,0.0,0.0,0.0,0.0,0.0,0.0,0.0,0.0,0.0,0.0,0.0,0.0,0.0,0.0,0.0,0.0,1.7608,0.0,0.0,0.0,1.7608,1.7608,1.7608,1.7608,1.7608,1.7608,1.7608,1.7608,1.7608,1.7608,1.7608,1.7608,1.7608,1.7608,1.7608,1.7608,1.7608,1.7608,1.7608,1.7608,0.0,0.0,0.0,0.0,0.0,0.0,0.0,-0.836,0.0,-0.817,-0.816,-0.813,-0.8023,-0.7988,-0.7988,-0.7988,-0.7988,-0.7988,-0.7988,-0.736,-0.6958,-0.6958,-0.5675,0.0,-0.3944,-0.3292,-0.2614,-0.1913,0.0,0.0,0.0,0.0,0.0,0.0,0.0,0.0,0.0,0.0,0.0,0.0,0.0,0.0,0.0,0.0,0.0,0.0,0.0,0.0,0.0,0.0,0.0,0.0,0.0,0.0,0.0252,0.1611,0.2941,0.4293,0.5627,0.6983,0.7988,0.7988,0.7988,0.7988,0.7988,0.7988,0.7988,0.7988,0.7988,0.8407,0.9752,1.0509,0.0,0.0,0.0,0.0,0.0,0.0,0.0,0.0,0.0,0.0,0.0,0.0,0.0,0.0,0.0,0.0,0.0,0.0,0.0,0.0,0.0,0.0,0.0,0.0,0.0,1.7608,1.7608,1.7608,1.7608,1.7608,1.7608,1.7608,1.7608,1.7608,1.7608,1.7608,1.7608,1.7608,1.7608,1.7608,1.7608,1.7608,1.8042,1.8532,0.0,-0.8577,0.0,0.0,-0.8577,0.0,-0.8577,-0.8312,-0.8167,-0.8311,-0.8342,-0.8294,-0.8121,-0.7827,-0.7629,-0.7629,-0.7347,-0.7154,-0.7154,-0.6151,-0.5575,-0.5575,-0.4293,-0.309,-0.2013,-0.1719,-0.1063,0.0,0.0,0.0,0.0,0.0,0.0,0.0,0.0,0.0,0.0,0.0,0.0,0.0,0.0,0.0,0.0,0.0,0.0,0.0,0.0,0.0,0.0,0.0,0.0,0.0,0.0,0.0,0.0252,0.1611,0.2941,0.4293,0.5627,0.6983,0.7988,0.7988,0.7988,0.7988,0.7988,0.7988,0.7988,0.7988,0.7988,0.8333,0.9386,0.9583,0.0,0.0,0.0,0.0,0.0,0.0,0.0,0.0,0.0,0.0,0.0,0.0,0.0,0.0,0.0,0.0,0.0,0.0,0.0,0.0,0.0,1.7608,1.7608,0.0,1.7608,0.0,1.7608,1.7608,1.7608,1.7608,1.7608,1.7608,1.7608,1.7608,1.7608,1.7608,1.7608,1.7608,1.7608,1.7608,1.7635,1.7917,1.8681,1.9498,0.0,0.0,0.0,0.0,0.0,0.0,-0.8869,-0.7726,-0.725,-0.8341,-0.8488,-0.8485,-0.8468,-0.7251,-0.6456,-0.6456,-0.5168,-0.4366,-0.4366,-0.4266,-0.4191,-0.4191,-0.2914,-0.2138,-0.2013,-0.082,-0.0128,0.0,0.0,0.0,0.0,0.0,0.0,0.0,0.0,0.0,0.0,0.0,0.0,0.0,0.0,0.0,0.0,0.0,0.0,0.0,0.0,0.0,0.0,0.0,0.0,0.0,0.0,0.0,0.0252,0.1611,0.2941,0.4293,0.5627,0.6983,0.7988,0.7988,0.7988,0.7988,0.7988,0.7988,0.7988,0.7988,0.7988,0.8038,0.8162,0.8187,0.8233,0.0,0.0,0.0,0.0,0.0,0.0,0.0,0.0,0.0,0.0,1.5524,0.0,0.0,0.0,0.0,0.0,0.0,0.0,1.7608,0.0,1.7608,1.7608,1.7608,1.7608,1.7608,1.7608,1.7608,1.7608,1.7608,1.7608,1.7608,1.7608,1.7608,1.7608,1.7608,1.7608,1.7608,1.7608,1.7608,1.7759,1.8968,1.9498,1.9757,0.0,0.0,0.0,0.0,0.0,0.0,0.0,-0.6339,-0.5558,-0.603,-0.5989,-0.5899,-0.5809,-0.5265,-0.4928,-0.4928,-0.4351,-0.3996,-0.3996,-0.3247,-0.2806,-0.2806,-0.151,-0.0808,-0.0808,-0.0263,0.0,0.0,0.0,0.0,0.0,0.0,0.0,0.0,0.0,0.0,0.0,0.0,0.0,0.0,0.0,0.0,0.0,0.0,0.0551,0.1301,0.1235,0.1766,0.2502,0.2424,0.1335,0.0151,0.0958,0.1209,0.146,0.2815,0.4143,0.5322,0.5854,0.6983,0.7988,0.7988,0.7988,0.7988,0.7988,0.7988,0.7988,0.7988,0.7988,0.7988,0.7988,0.7988,0.7988,0.0,0.0,0.0,0.0,0.0,0.0,0.0,0.0,0.0,0.0,0.0,0.0,0.0,0.0,0.0,0.0,0.0,0.0,1.7608,0.0,1.7608,1.7608,1.7608,1.7608,1.7608,1.7608,1.7608,1.7608,1.7608,1.7608,1.7608,1.7608,1.7608,1.7608,1.7608,1.7608,1.7608,1.7608,1.7608,1.7759,1.9117,2.0135,2.1067,-0.8266,0.0,-0.7595,0.0,-0.6758,-0.6058,-0.6058,-0.4777,-0.3827,-0.3827,-0.3319,-0.3278,-0.4073,-0.3755,-0.3476,-0.3476,-0.3061,-0.2815,-0.2815,-0.194,-0.141,-0.141,-0.0506,0.0,0.0,0.0,0.0,0.0,0.0,0.0,0.0,0.0,0.0,0.0,0.0,0.0,0.0,0.0,0.0,0.0,0.0,0.0,0.0054,0.0483,0.1283,0.2255,0.2618,0.341,0.4285,0.4177,0.2887,0.1482,0.2322,0.2589,0.284,0.4193,0.5247,0.6079,0.6481,0.7285,0.7988,0.7988,0.7988,0.7988,0.7988,0.7988,0.7988,0.7988,0.7988,0.7988,0.7988,0.7988,0.7988,0.7988,0.0,0.0,0.0,0.0,0.0,0.0,0.9658,1.1187,1.3102,0.0,0.0,0.0,0.0,0.0,0.0,0.0,0.0,0.0,0.0,0.0,0.0,1.7608,1.7608,1.7608,1.7608,1.7608,1.7608,1.7608,1.7608,1.7608,1.7608,1.7608,1.7608,1.7608,1.7608,1.7608,1.7608,1.7838,1.8349,1.9731,2.1092,2.2492,-0.673,-0.5558,-0.4555,-0.4555,-0.4528,-0.4528,-0.4528,-0.3214,-0.2235,-0.2235,-0.0951,-0.1175,-0.4162,-0.3138,-0.221,-0.221,-0.0888,-0.0053,-0.0053,-0.0027,-0.0027,0.0,0.0,0.0,0.0,0.0,0.0,0.0,0.0,0.0,0.0,0.0,0.0,0.0,0.0,0.0,0.0,0.0,0.0,0.0,0.0,0.0,0.0164,0.1611,0.2186,0.2391,0.3926,0.4482,0.4508,0.4506,0.448,0.44,0.4063,0.3966,0.4243,0.5575,0.5979,0.6279,0.7612,0.7988,0.7988,0.7988,0.7988,0.7988,0.7988,0.7988,0.7988,0.7988,0.7988,0.7988,0.7988,0.7988,0.7988,0.7988,0.0,0.0,0.0,0.0,0.0,0.0,0.875,1.008,1.3026,0.0,0.0,0.0,0.0,0.0,0.0,0.0,0.0,1.7608,1.7608,0.0,1.7608,1.7608,1.7608,1.7608,1.7608,1.7608,1.7608,1.7608,1.7608,1.7608,1.7608,1.7608,1.7608,1.7608,1.7608,1.7608,1.7608,1.8401,1.9757,2.1169,2.2517,2.3865,-0.5391,-0.4832,-0.4498,-0.4498,-0.3632,-0.2933,-0.2933,-0.165,-0.07,-0.07,-0.028,-0.0364,-0.1316,-0.1004,-0.0695,0.0,-0.0277,0.0,0.0,0.0,0.0,0.0,0.0,0.0,0.0,0.0,0.0,0.0,0.0,0.0,0.0,0.0,0.0,0.0,0.0,0.0,0.0,0.0,0.0,0.0084,0.1091,0.1506,0.1665,0.3189,0.4392,0.5324,0.5719,0.6502,0.7354,0.7264,0.7235,0.722,0.711,0.6377,0.5814,0.7006,0.736,0.7459,0.7889,0.7988,0.7988,0.7988,0.7988,0.7988,0.7988,0.7988,0.7988,0.7988,0.7988,0.7988,0.7988,0.7988,0.7988,0.7988,0.7988,0.0,0.0,0.0,0.0,0.0,0.8787,1.0049,0.0,1.3291,0.0,0.0,0.0,0.0,0.0,0.0,0.0,0.0,1.7608,0.0,1.7608,1.7608,1.7608,1.7608,1.7608,1.7608,1.7608,1.7608,1.7608,1.7608,1.7608,1.7608,1.7608,1.7608,1.8146,1.8968,1.8968,1.9801,2.1194,2.2567,2.3326,2.389,-0.3804,-0.3187,-0.2824,-0.2824,-0.2014,-0.1371,-0.1371,-0.0588,0.0,0.0,0.0,0.0,0.0,0.0,0.0,0.0,0.0,0.0,0.0,0.0,0.0,0.0,0.0,0.0,0.0,0.0,0.0,0.0,0.0,0.0,0.0,0.0,0.0,0.0,0.0,0.0,0.0,0.0,0.0308,0.0896,0.1817,0.2543,0.324,0.4749,0.5892,0.6775,0.7226,0.7995,0.8754,0.8686,0.8655,0.8645,0.8584,0.7943,0.7319,0.799,0.8179,0.8179,0.8179,0.8179,0.8169,0.8115,0.8101,0.8084,0.8027,0.7988,0.7988,0.7988,0.7988,0.7988,0.7988,0.8064,0.8101,0.8101,0.8145,0.8238,0.8362,0.0,0.0,0.0,0.0,0.0,0.0,1.3291,1.4508,0.0,0.0,0.0,0.0,0.0,0.0,1.7608,1.7608,0.0,1.7608,1.7608,1.7608,1.7608,1.7608,1.7608,1.7608,1.7608,1.7608,1.7608,1.7608,1.7608,1.7608,1.7608,1.8401,1.9602,1.9602,2.0769,2.2542,2.3384,2.4023,2.4559,-0.2053,-0.0954,0.0,0.0,0.0,0.0,0.0,0.0,0.0,0.0,0.0,0.0,0.0,0.0,0.0,0.0,0.0,0.0,0.0,0.0,0.0,0.0,0.0,0.0,0.0,0.0,0.0,0.0,0.0,0.0,0.0,0.0,0.0,0.0,0.0,0.0,0.0,0.0112,0.0952,0.2208,0.243,0.338,0.4804,0.6283,0.6841,0.7035,0.8405,0.8912,0.8912,0.8912,0.8912,0.8885,0.8743,0.8726,0.8696,0.853,0.8509,0.8509,0.8509,0.8509,0.8478,0.8345,0.8311,0.8274,0.8077,0.8044,0.8044,0.8044,0.8044,0.8044,0.8044,0.8187,0.8311,0.8311,0.842,0.8512,0.8522,0.0,0.0,0.0,0.0,0.0,0.0,1.3399,1.4615,0.0,0.0,0.0,0.0,0.0,1.7608,1.7608,1.7608,1.7608,1.7608,1.7608,1.7608,1.7608,1.7608,1.7608,1.7608,1.7608,1.7608,1.7608,1.7608,1.7608,1.7608,1.7608,1.8454,1.9757,1.9757,2.1431,2.384,2.384,2.4633,2.5693,0.0,0.0,0.0,0.0,0.0,0.0,0.0,0.0,0.0,0.0,0.0,0.0,0.0,0.0,0.0,0.0,0.0,0.0,0.0,0.0,0.0,0.0,0.0,0.0,0.0,0.0,0.0,0.0,0.0,0.0,0.0,0.0,0.0,0.0,0.0,0.0,0.0084,0.1203,0.1873,0.2403,0.4717,0.5862,0.6339,0.782,0.838,0.8432,0.8771,0.8912,0.8912,0.8912,0.8912,0.8902,0.8869,0.8855,0.8804,0.856,0.8509,0.8509,0.8509,0.8509,0.8498,0.8464,0.8457,0.8447,0.8387,0.8377,0.8377,0.8377,0.8377,0.8377,0.8377,0.8434,0.8457,0.8457,0.8488,0.8549,0.8638,0.8686,0.0,0.0,0.9865,1.1296,1.3129,1.4261,1.5663,0.0,0.0,0.0,0.0,1.7608,1.7608,1.7608,1.7608,1.7608,1.7608,1.7608,1.7608,1.7608,1.7608,1.7608,1.7608,1.7608,1.7608,1.7608,1.7608,1.7608,1.7608,1.7608,1.9005,2.1194,2.1194,2.2851,2.5226,2.5226,2.543,2.5693,-0.0147,0.0,0.0,0.0,0.0,0.0,0.0,0.0,0.0,0.0,0.0,0.0,0.0,0.0,0.0,0.0,0.0,0.0,0.0,0.0,0.0,0.0,0.0,0.0,0.0,0.0,0.0,0.0,0.0,0.0,0.0,0.0,0.0,0.0028,0.07,0.1008,0.1091,0.2599,0.3631,0.4409,0.6028,0.7091,0.7789,0.8602,0.8912,0.8912,0.8912,0.8912,0.8912,0.8912,0.8912,0.8912,0.8912,0.8912,0.8879,0.8713,0.8693,0.8693,0.8693,0.8693,0.8672,0.8604,0.8533,0.8509,0.8509,0.8509,0.8509,0.8509,0.8509,0.8509,0.8509,0.854,0.8584,0.8584,0.8645,0.872,0.8777,0.8787,0.0,0.9821,1.0621,1.1941,1.4046,1.4957,1.6009,1.7503,1.7608,0.0,1.7608,1.7608,1.7608,1.7608,1.7608,1.7608,1.7608,1.7608,1.7608,1.7608,1.7608,1.7608,1.7608,1.7608,1.7608,1.7608,1.7608,1.7608,1.7661,1.8244,1.9775,2.1752,2.2366,2.3865,2.5693,2.5693,2.5693,2.5693,0.0,0.0,0.0,0.0,0.0,0.0,0.0,0.0,0.0,0.0,0.0,0.0,0.0,0.0,0.0,0.0,0.0,0.0,0.0,0.0,0.0,0.0,0.0,0.0,0.0,0.0,0.0,0.0,0.0,0.0,0.0,0.0,0.0112,0.0392,0.165,0.2319,0.2654,0.419,0.5558,0.673,0.6952,0.7789,0.8912,0.8912,0.8912,0.8912,0.8912,0.8912,0.8912,0.8912,0.8912,0.8912,0.8912,0.8912,0.8912,0.8912,0.8912,0.8912,0.8912,0.8912,0.8879,0.875,0.8648,0.855,0.855,0.855,0.855,0.855,0.855,0.855,0.855,0.8659,0.872,0.872,0.8828,0.8912,0.8912,0.0,0.9699,1.0945,1.1483,1.2697,1.515,1.561,1.6254,1.7503,1.7608,1.7608,1.7608,1.7608,1.7608,1.7608,1.7608,1.7608,1.7608,1.7608,1.7608,1.7608,1.7608,1.7608,1.7608,1.7608,1.7608,1.7608,1.7608,1.7714,1.7989,1.9117,2.0538,2.2131,2.3251,2.4535,2.5693,2.5693,2.5693,2.5693,0.0,0.0,0.0,0.0,0.0,0.0,0.0,0.0,0.0,0.0,0.0,0.0,0.0,0.0,0.0,0.0,0.0,0.0,0.0,0.0,0.0,0.0,0.0,0.0,0.0,0.0,0.0,0.0,0.0,0.0,0.0,0.0,0.0672,0.1873,0.2096,0.2933,0.4247,0.5725,0.6478,0.6813,0.8069,0.8688,0.8912,0.8912,0.8912,0.8912,0.8912,0.8912,0.8912,0.8912,0.8912,0.8912,0.8912,0.8912,0.8912,0.8912,0.8912,0.8912,0.8912,0.8912,0.8906,0.8882,0.8858,0.8841,0.8841,0.8841,0.8841,0.8841,0.8841,0.8841,0.8841,0.8862,0.8875,0.8875,0.8896,0.8912,0.8912,0.0,1.0836,1.1078,1.3264,1.4904,1.5364,1.6525,1.7338,1.7582,1.7608,1.7608,1.7608,1.7608,1.7608,1.7608,1.7608,1.7608,1.7608,1.7608,1.7608,1.7608,1.7608,1.7608,1.7608,1.7608,1.7608,1.7608,1.7608,1.8251,1.9324,1.9498,2.11,2.3409,2.3617,2.4535,2.5693,2.5693,2.5693,2.5693,0.0,0.0,0.0,0.0,0.0,0.0,0.0,0.0,0.0,0.0,0.0,0.0,0.0,0.0,0.0,0.0,0.0,0.0,0.0,0.0,0.0,0.0,0.0,0.0,0.0,0.0,0.0,0.0,0.0,0.042,0.1175,0.1175,0.1985,0.3463,0.4272,0.5025,0.578,0.726,0.7875,0.7931,0.8629,0.8912,0.8912,0.8912,0.8912,0.8912,0.8912,0.8912,0.8912,0.8912,0.8912,0.8912,0.8912,0.8912,0.8912,0.8912,0.8912,0.8912,0.8912,0.8912,0.8912,0.8912,0.8912,0.8912,0.8912,0.8912,0.8912,0.8912,0.8912,0.8912,0.8912,0.8912,0.8912,0.8912,0.8912,0.0,0.0,1.0676,1.1674,1.3237,1.4583,1.571,1.6499,1.7199,1.7608,1.7608,1.7608,1.7608,1.7608,1.7608,1.7608,1.7608,1.7608,1.7608,1.7608,1.7608,1.7608,1.7608,1.7608,1.7608,1.7608,1.7608,1.7608,1.7635,1.8349,1.9046,1.9705,2.1202,2.2576,2.3766,2.451,2.5152,2.5693,2.5693,2.5693,2.5693,0.0,0.0,0.0,0.0,0.0,0.0,0.0,0.0,0.0,0.0,0.0,0.0,0.0,0.0,0.0,0.0,0.0,0.0,0.0,0.0,0.0,0.0,0.0,0.0,0.0,0.0,0.0,0.0,0.0336,0.1091,0.2208,0.2571,0.3547,0.5057,0.62,0.6897,0.7288,0.8432,0.8912,0.8912,0.8912,0.8912,0.8912,0.8912,0.8912,0.8912,0.8912,0.8912,0.8912,0.8912,0.8912,0.8912,0.8912,0.8912,0.8912,0.8912,0.8912,0.8912,0.8912,0.8912,0.8912,0.8912,0.8912,0.8912,0.8912,0.8912,0.8912,0.8912,0.8912,0.8912,0.8912,0.8912,0.902,0.9348,0.0,0.0,0.0,1.1887,1.2913,1.5144,1.5689,1.636,1.7503,1.7608,1.7608,1.7608,1.7608,1.7608,1.7608,1.7608,1.7608,1.7608,1.7608,1.7608,1.7608,1.7608,1.7608,1.7608,1.7608,1.7608,1.7608,1.7608,1.7608,1.7661,1.9013,1.9782,2.029,2.2701,2.3865,2.4279,2.5299,2.5693,2.5693,2.5693,2.5693,2.5693,0.0,0.0,0.0,0.0,0.0,0.0,0.0,0.0,0.0,0.0,0.0,0.0,0.0,0.0,0.0,0.0,0.0,0.0,0.0,0.0,0.0,0.0,0.0,0.0,0.0,0.0,0.0,0.0,0.1371,0.2096,0.2235,0.366,0.5111,0.6533,0.6644,0.7454,0.8743,0.8854,0.8912,0.8912,0.8912,0.8912,0.8912,0.8912,0.8912,0.8912,0.8912,0.8912,0.8912,0.8912,0.8912,0.8912,0.8912,0.8912,0.8912,0.8912,0.8912,0.8912,0.8912,0.8912,0.8912,0.8912,0.8912,0.8912,0.8912,0.8912,0.8912,0.8912,0.8912,0.8912,0.8912,0.8912,0.9348,1.0726,0.0,0.0,1.294,1.4261,1.515,1.5364,1.6605,1.747,1.7582,1.7608,1.7608,1.7608,1.7608,1.7608,1.7608,1.7608,1.7608,1.7608,1.7608,1.7608,1.7608,1.7608,1.7608,1.7608,1.7608,1.7608,1.7608,1.7608,1.7608,1.7661,1.9013,2.0333,2.1651,2.3101,2.4427,2.5562,2.5659,2.5693,2.5693,2.5693,2.5693,2.5693,0.0,0.0,0.0,0.0,0.0,0.0,0.0,0.0,0.0,0.0,0.0,0.0,0.0,0.0,0.0,0.0,0.0,0.0,0.0,0.0,0.0,0.0,0.0,0.0,0.0,0.0,0.0,0.0,0.1482,0.2682,0.366,0.5166,0.6644,0.8072,0.8072,0.838,0.8912,0.8912,0.8912,0.8912,0.8912,0.8912,0.8912,0.8912,0.8912,0.8912,0.8912,0.8912,0.8912,0.8912,0.8912,0.8912,0.8912,0.8912,0.8912,0.8912,0.8912,0.8912,0.8912,0.8912,0.8912,0.8912,0.8912,0.8912,0.8912,0.8912,0.8912,0.8912,0.8912,0.9182,1.0104,1.0268,1.0758,1.2213,0.0,1.2967,1.4395,1.507,1.5743,1.6664,1.7252,1.7608,1.7608,1.7608,1.7608,1.7608,1.7608,1.7608,1.7608,1.7608,1.7608,1.7608,1.7608,1.7608,1.7608,1.7608,1.7608,1.7608,1.7608,1.7608,1.7608,1.7608,1.7608,1.7661,1.9013,1.9904,2.0564,2.2801,2.3989,2.4535,2.5382,2.5693,2.5693,2.5693,2.5693,2.5693,0.0,0.0,0.0,0.0,0.0,0.0,0.0,0.0,0.0,0.0,0.0,0.0,0.0,0.0,0.0,0.0,0.0,0.0,0.0,0.0,0.0,0.0,0.0,0.0,0.0,0.0,0.0224,0.07,0.218,0.3714,0.5222,0.6702,0.7931,0.8912,0.8912,0.8912,0.8912,0.8912,0.8912,0.8912,0.8912,0.8912,0.8912,0.8912,0.8912,0.8912,0.8912,0.8912,0.8912,0.8912,0.8912,0.8912,0.8912,0.8912,0.8912,0.8912,0.8912,0.8912,0.8912,0.8912,0.8912,0.8912,0.8912,0.8912,0.8912,0.8912,0.8912,0.8912,0.9265,0.9888,1.0918,1.1487,1.2267,1.3723,1.3965,1.4449,1.5876,1.6088,1.6472,1.747,1.7608,1.7608,1.7608,1.7608,1.7608,1.7608,1.7608,1.7608,1.7608,1.7608,1.7608,1.7608,1.7608,1.7608,1.7608,1.7608,1.7608,1.7608,1.7608,1.7608,1.7608,1.7608,1.7608,1.7661,1.9013,1.9602,1.9782,2.2114,2.3335,2.3791,2.4707,2.5333,2.5693,2.5693,2.5693,2.5693,0.0,0.0,0.0,0.0,0.0,0.0,0.0,0.0,0.0,0.0,0.0,0.0,0.0,0.0,0.0,0.0,0.0,0.0,0.0,0.0,0.0,0.0,0.0,0.0,0.0,0.0,0.0728,0.2208,0.3744,0.5252,0.673,0.8211,0.8912,0.8912,0.8912,0.8912,0.8912,0.8912,0.8912,0.8912,0.8912,0.8912,0.8912,0.8912,0.8912,0.8912,0.8912,0.8912,0.8912,0.8912,0.8912,0.8912,0.8912,0.8912,0.8912,0.8912,0.8912,0.8912,0.8912,0.8912,0.8912,0.8912,0.8912,0.8912,0.8912,0.8912,0.8912,0.8912,1.0049,1.1078,1.1105,1.2295,1.375,1.5177,1.539,1.5929,1.7391,1.7608,1.7608,1.7608,1.7608,1.7608,1.7608,1.7608,1.7608,1.7608,1.7608,1.7608,1.7608,1.7608,1.7608,1.7608,1.7608,1.7608,1.7608,1.7608,1.7608,1.7608,1.7608,1.7608,1.7608,1.7608,1.7608,1.7661,1.902,1.9576,1.9679,2.1092,2.2458,2.3692,2.3692,2.4535,2.5693,2.5693,2.5693,2.5693,0.0,0.0,0.0,0.0,0.0,0.0,0.0,0.0,0.0,0.0,0.0,0.0,0.0,0.0,0.0,0.0,0.0,0.0,0.0,0.0,0.0,0.0,0.0,0.0,0.0,0.0,0.0728,0.2208,0.3744,0.5252,0.673,0.8211,0.8912,0.8912,0.8912,0.8912,0.8912,0.8912,0.8912,0.8912,0.8912,0.8912,0.8912,0.8912,0.8912,0.8912,0.8912,0.8912,0.8912,0.8912,0.8912,0.8912,0.8912,0.8912,0.8912,0.8912,0.8912,0.8912,0.8912,0.8912,0.8912,0.8912,0.8912,0.8912,0.8912,0.8912,0.8912,0.8912,0.9265,0.986,1.0918,1.1456,1.2566,1.5011,1.539,1.5929,1.7391,1.7608,1.7608,1.7608,1.7608,1.7608,1.7608,1.7608,1.7608,1.7608,1.7608,1.7608,1.7608,1.7608,1.7608,1.7608,1.7608,1.7608,1.7608,1.7608,1.7608,1.7608,1.7608,1.7608,1.7608,1.7608,1.7608,1.7608,1.8015,1.8199,1.8297,1.9679,2.1041,2.2391,2.3335,2.4535,2.5693,2.5693,2.5693,2.5693,0.0,0.0,0.0,0.0,0.0,0.0,0.0,0.0,0.0,0.0,0.0,0.0,0.0,0.0,0.0,0.0,0.0,0.0,0.0,0.0,0.0,0.0,0.0,0.0,0.0,0.0,0.1008,0.3101,0.4052,0.5558,0.7595,0.8491,0.8912,0.8912,0.8912,0.8912,0.8912,0.8912,0.8912,0.8912,0.8912,0.8912,0.8912,0.8912,0.8912,0.8912,0.8912,0.8912,0.8912,0.8912,0.8912,0.8912,0.8912,0.8912,0.8912,0.8912,0.8912,0.8912,0.8912,0.8912,0.8912,0.8912,0.8912,0.8912,0.8912,0.8912,0.8912,0.8912,0.9372,1.0213,1.1701,1.243,1.3556,1.5876,1.628,1.6578,1.747,1.7608,1.7608,1.7608,1.7608,1.7608,1.7608,1.7608,1.7608,1.7608,1.7608,1.7608,1.7608,1.7608,1.7608,1.7608,1.7608,1.7608,1.7608,1.7608,1.7608,1.7608,1.7608,1.7608,1.7608,1.7608,1.7608,1.7608,1.7608,1.7608,1.7661,1.848,1.9955,2.1777,2.2592,2.4048,2.5693,2.5693,2.5693,2.5693,0.0,0.0,0.0,0.0,0.0,0.0,0.0,0.0,0.0,0.0,0.0,0.0,0.0,0.0,0.0,0.0,0.0,0.0,0.0,0.0,0.0,0.0,0.0,0.0,0.0,0.014,0.1623,0.4498,0.4639,0.6144,0.8912,0.8912,0.8912,0.8912,0.8912,0.8912,0.8912,0.8912,0.8912,0.8912,0.8912,0.8912,0.8912,0.8912,0.8912,0.8912,0.8912,0.8912,0.8912,0.8912,0.8912,0.8912,0.8912,0.8912,0.8912,0.8912,0.8912,0.8912,0.8912,0.8912,0.8912,0.8912,0.8912,0.8912,0.8912,0.8912,0.8912,0.8912,1.0076,1.151,1.2859,1.4261,1.5689,1.7147,1.7391,1.7444,1.7582,1.7608,1.7608,1.7608,1.7608,1.7608,1.7608,1.7608,1.7608,1.7608,1.7608,1.7608,1.7608,1.7608,1.7608,1.7608,1.7608,1.7608,1.7608,1.7608,1.7608,1.7608,1.7608,1.7608,1.7608,1.7608,1.7608,1.7608,1.7608,1.7608,1.7608,1.7608,1.9213,2.1702,2.1702,2.3335,2.5693,2.5693,2.5693,2.5693,0.0,0.0,0.0,0.0,0.0,0.0,0.0,0.0,0.0,0.0,0.0,0.0,0.0,0.0,0.0,0.0,0.0,0.0,0.0,0.0,0.0,0.0,0.0,0.0,0.0,0.1119,0.2627,0.4498,0.5669,0.7149,0.8912,0.8912,0.8912,0.8912,0.8912,0.8912,0.8912,0.8912,0.8912,0.8912,0.8912,0.8912,0.8912,0.8912,0.8912,0.8912,0.8912,0.8912,0.8912,0.8912,0.8912,0.8912,0.8912,0.8912,0.8912,0.8912,0.8912,0.8912,0.8912,0.8912,0.8912,0.8912,0.8912,0.8912,0.8912,0.8912,0.8912,0.8912,1.0076,1.1187,1.1515,1.2778,1.4207,1.5663,1.5876,1.628,1.7444,1.7608,1.7608,1.7608,1.7608,1.7608,1.7608,1.7608,1.7608,1.7608,1.7608,1.7608,1.7608,1.7608,1.7608,1.7608,1.7608,1.7608,1.7608,1.7608,1.7608,1.7608,1.7608,1.7608,1.7608,1.7608,1.7608,1.7608,1.7608,1.7608,1.7608,1.7608,1.9213,2.1702,2.1702,2.3335,2.5693,2.5693,2.5693,2.5693,0.0,0.0,0.0,0.0,0.0,0.0,0.0,0.0,0.0,0.0,0.0,0.0,0.0,0.0,0.0,0.0,0.0,0.0,0.0,0.0,0.0,0.0,0.0,0.0,0.0,0.2153,0.3688,0.4498,0.5977,0.7454,0.8912,0.8912,0.8912,0.8912,0.8912,0.8912,0.8912,0.8912,0.8912,0.8912,0.8912,0.8912,0.8912,0.8912,0.8912,0.8912,0.8912,0.8912,0.8912,0.8912,0.8912,0.8912,0.8912,0.8912,0.8912,0.8912,0.8912,0.8912,0.8912,0.8912,0.8912,0.8912,0.8912,0.8912,0.8912,0.8912,0.8912,0.8912,1.0076,1.1324,1.2023,1.3318,1.477,1.6227,1.644,1.6717,1.7503,1.7608,1.7608,1.7608,1.7608,1.7608,1.7608,1.7608,1.7608,1.7608,1.7608,1.7608,1.7608,1.7608,1.7608,1.7608,1.7608,1.7608,1.7608,1.7608,1.7608,1.7608,1.7608,1.7608,1.7608,1.7608,1.7608,1.7608,1.7608,1.7608,1.7608,1.7608,1.8805,2.0769,2.1448,2.2951,2.4815,2.5455,2.5693,2.5693,0.0,0.0,0.0,0.0,0.0,0.0,0.0,0.0,0.0,0.0,0.0,0.0,0.0,0.0,0.0,0.0,0.0,0.0,0.0,0.0,0.0,0.0,0.0,0.0,0.0,0.2964,0.4498,0.4498,0.6228,0.7706,0.8912,0.8912,0.8912,0.8912,0.8912,0.8912,0.8912,0.8912,0.8912,0.8912,0.8912,0.8912,0.8912,0.8912,0.8912,0.8912,0.8912,0.8912,0.8912,0.8912,0.8912,0.8912,0.8912,0.8912,0.8912,0.8912,0.8912,0.8912,0.8912,0.8912,0.8912,0.8912,0.8912,0.8912,0.8912,0.8912,0.8912,0.8912,1.0076,1.1538,1.3021,1.4449,1.5876,1.7364,1.7608,1.7608,1.7608,1.7608,1.7608,1.7608,1.7608,1.7608,1.7608,1.7608,1.7608,1.7608,1.7608,1.7608,1.7608,1.7608,1.7608,1.7608,1.7608,1.7608,1.7608,1.7608,1.7608,1.7608,1.7608,1.7608,1.7608,1.7608,1.7608,1.7608,1.7608,1.7608,1.7608,1.7608,1.8401,1.9731,2.0896,2.2165,2.3509,2.4864,2.5504,2.5693,0.0,0.0,0.0,0.0,0.0,0.0,0.0,0.0,0.0,0.0,0.0,0.0,0.0,0.0,0.0,0.0,0.0,0.0,0.0,0.0,0.0,0.0,0.0,0.0,0.0,0.2964,0.4498,0.4498,0.726,0.8716,0.8912,0.8912,0.8912,0.8912,0.8912,0.8912,0.8912,0.8912,0.8912,0.8912,0.8912,0.8912,0.8912,0.8912,0.8912,0.8912,0.8912,0.8912,0.8912,0.8912,0.8912,0.8912,0.8912,0.8912,0.8912,0.8912,0.8912,0.8912,0.8912,0.8912,0.8912,0.8912,0.8912,0.8912,0.8912,0.8912,0.8912,0.8912,1.0076,1.1538,1.3021,1.4449,1.5876,1.7364,1.7608,1.7608,1.7608,1.7608,1.7608,1.7608,1.7608,1.7608,1.7608,1.7608,1.7608,1.7608,1.7608,1.7608,1.7608,1.7608,1.7608,1.7608,1.7608,1.7608,1.7608,1.7608,1.7608,1.7608,1.7608,1.7608,1.7608,1.7608,1.7608,1.7608,1.7608,1.7608,1.7608,1.7608,1.8401,1.9627,1.9808,2.0743,2.2131,2.3484,2.4716,2.5693,0.0,0.0,0.0,0.0,0.0,0.0,0.0,0.0,0.0,0.0,0.0,0.0,0.0,0.0,0.0,0.0,0.0,0.0,0.0,0.0,0.0,0.0,0.0,0.0392,0.1203,0.3381,0.4916,0.5725,0.7845,0.8912,0.8912,0.8912,0.8912,0.8912,0.8912,0.8912,0.8912,0.8912,0.8912,0.8912,0.8912,0.8912,0.8912,0.8912,0.8912,0.8912,0.8912,0.8912,0.8912,0.8912,0.8912,0.8912,0.8912,0.8912,0.8912,0.8912,0.8912,0.8912,0.8912,0.8912,0.8912,0.8912,0.8912,0.8912,0.8912,0.8912,0.8912,0.8912,1.0726,1.2539,1.3183,1.5123,1.6849,1.7503,1.7608,1.7608,1.7608,1.7608,1.7608,1.7608,1.7608,1.7608,1.7608,1.7608,1.7608,1.7608,1.7608,1.7608,1.7608,1.7608,1.7608,1.7608,1.7608,1.7608,1.7608,1.7608,1.7608,1.7608,1.7608,1.7608,1.7608,1.7608,1.7608,1.7608,1.7608,1.7608,1.7608,1.7608,1.7943,1.8558,1.9324,2.0922,2.2893,2.3484,2.4559,2.5693]},{"header":{"parameterUnit":"m.s-1","parameterCategory":1,"la1":30.6,"la2":28.766,"lo1":-90.7593,"lo2":-88.6598,"dy":0.0162,"dx":0.0183,"nx":116,"ny":114,"refTime":"2023-03-17T18:00:00:Z","depth":0,"parameterNumber":3,"parameterNumberName":"V-component_of_WINDS"},"data":[0.0,0.0,0.0,0.0,0.0,0.0,0.0,0.0,0.0,0.0,0.0,0.0,0.0,0.0,0.0,0.0,0.0,0.0,0.0,0.0,0.0,0.0,0.0,0.0,0.0,0.0,0.0,0.0,0.0,0.0,0.0,0.0,0.0,0.0,0.0,0.0,0.0,0.0,0.0,0.0,0.0,0.0,0.0,0.0,0.0,0.0,0.0,0.0,0.0,0.0,0.0,0.0,0.0,0.0,0.0,0.0,0.0,0.0,0.0,0.0,0.0,0.0,0.0,0.0,0.0,0.0,0.0,0.0,0.0,0.0,0.0,0.0,0.0,0.0,0.0,0.0,0.0,0.0,0.0,0.0,0.0,0.0,0.0,0.0,0.0,0.0,0.0,0.0,0.0,0.0,0.0,0.0,0.0,0.0,0.0,0.0,0.0,0.0,0.0,0.0,0.0,0.0,0.0,0.0,0.0,0.0,0.0,0.0,0.0,0.0,0.0,0.0,0.0,0.0,0.0,0.0,0.0,0.0,0.0,0.0,0.0,0.0,0.0,0.0,0.0,0.0,0.0,0.0,0.0,0.0,0.0,0.0,0.0,0.0,0.0,0.0,0.0,0.0,0.0,0.0,0.0,0.0,0.0,0.0,0.0,0.0,0.0,0.0,0.0,0.0,0.0,0.0,0.0,0.0,0.0,0.0,0.0,0.0,0.0,0.0,0.0,0.0,0.0,0.0,0.0,0.0,0.0,0.0,0.0,0.0,0.0,0.0,0.0,0.0,0.0,0.0,0.0,0.0,0.0,0.0,0.0,0.0,0.0,0.0,0.0,0.0,0.0,0.0,0.0,0.0,0.0,0.0,0.0,0.0,0.0,0.0,0.0,0.0,0.0,0.0,0.0,0.0,0.0,0.0,0.0,0.0,0.0,0.0,0.0,0.0,0.0,0.0,0.0,0.0,0.0,0.0,0.0,0.0,0.0,0.0,0.0,0.0,0.0,0.0,0.0,0.0,0.0,0.0,0.0,0.0,0.0,0.0,0.0,0.0,0.0,0.0,0.0,0.0,0.0,0.0,0.0,0.0,0.0,0.0,0.0,0.0,0.0,0.0,0.0,0.0,0.0,0.0,0.0,0.0,0.0,0.0,0.0,0.0,0.0,0.0,0.0,0.0,0.0,0.0,0.0,0.0,0.0,0.0,0.0,0.0,0.0,0.0,0.0,0.0,0.0,0.0,0.0,0.0,0.0,0.0,0.0,0.0,0.0,0.0,0.0,0.0,0.0,0.0,0.0,0.0,0.0,0.0,0.0,0.0,0.0,0.0,0.0,0.0,0.0,0.0,0.0,0.0,0.0,0.0,0.0,0.0,0.0,0.0,0.0,0.0,0.0,0.0,0.0,0.0,0.0,0.0,0.0,0.0,0.0,0.0,0.0,0.0,0.0,0.0,0.0,0.0,0.0,0.0,0.0,0.0,0.0,0.0,0.0,0.0,0.0,0.0,0.0,0.0,0.0,0.0,0.0,0.0,0.0,0.0,0.0,0.0,0.0,0.0,0.0,0.0,0.0,0.0,0.0,0.0,0.0,0.0,0.0,0.0,0.0,0.0,0.0,0.0,0.0,0.0,0.0,0.0,0.0,0.0,0.0,0.0,0.0,0.0,0.0,0.0,0.0,0.0,0.0,0.0,0.0,0.0,0.0,0.0,0.0,0.0,0.0,0.0,0.0,0.0,0.0,0.0,0.0,0.0,0.0,0.0,0.0,0.0,0.0,0.0,0.0,0.0,0.0,0.0,0.0,0.0,0.0,0.0,0.0,0.0,0.0,0.0,0.0,0.0,0.0,0.0,0.0,0.0,0.0,0.0,0.0,0.0,0.0,0.0,0.0,0.0,0.0,0.0,0.0,0.0,0.0,0.0,0.0,0.0,0.0,0.0,0.0,0.0,0.0,0.0,0.0,0.0,0.0,0.0,0.0,0.0,0.0,0.0,0.0,0.0,0.0,0.0,0.0,0.0,0.0,0.0,0.0,0.0,0.0,0.0,0.0,0.0,0.0,0.0,0.0,0.0,0.0,0.0,0.0,0.0,0.0,0.0,0.0,0.0,0.0,0.0,0.0,0.0,0.0,0.0,0.0,0.0,0.0,0.0,0.0,0.0,0.0,0.0,0.0,0.0,0.0,0.0,0.0,0.0,0.0,0.0,0.0,0.0,0.0,0.0,0.0,0.0,0.0,0.0,0.0,0.0,0.0,0.0,0.0,0.0,0.0,0.0,0.0,0.0,0.0,0.0,0.0,0.0,0.0,0.0,0.0,0.0,0.0,0.0,0.0,0.0,0.0,0.0,0.0,0.0,0.0,0.0,0.0,0.0,0.0,0.0,0.0,0.0,0.0,0.0,0.0,0.0,0.0,0.0,0.0,0.0,0.0,0.0,0.0,0.0,0.0,0.0,0.0,0.0,0.0,0.0,0.0,0.0,0.0,0.0,0.0,0.0,0.0,0.0,0.0,0.0,0.0,0.0,0.0,0.0,0.0,0.0,0.0,0.0,0.0,0.0,0.0,0.0,0.0,0.0,0.0,0.0,0.0,0.0,0.0,0.0,0.0,0.0,0.0,0.0,0.0,0.0,0.0,0.0,0.0,0.0,0.0,0.0,0.0,0.0,0.0,0.0,0.0,0.0,0.0,0.0,0.0,0.0,0.0,0.0,0.0,0.0,0.0,0.0,0.0,0.0,0.0,0.0,0.0,0.0,0.0,0.0,0.0,0.0,0.0,0.0,0.0,0.0,0.0,0.0,0.0,0.0,0.0,0.0,0.0,0.0,0.0,0.0,0.0,0.0,0.0,0.0,0.0,0.0,0.0,0.0,0.0,0.0,0.0,0.0,0.0,0.0,0.0,0.0,0.0,0.0,0.0,0.0,0.0,0.0,0.0,0.0,0.0,0.0,0.0,0.0,0.0,0.0,0.0,0.0,0.0,0.0,0.0,0.0,0.0,0.0,0.0,0.0,0.0,0.0,0.0,0.0,0.0,0.0,0.0,0.0,0.0,0.0,0.0,0.0,0.0,0.0,0.0,0.0,0.0,0.0,0.0,0.0,0.0,0.0,0.0,0.0,0.0,0.0,0.0,0.0,0.0,0.0,0.0,0.0,0.0,0.0,0.0,0.0,0.0,0.0,0.0,0.0,0.0,0.0,0.0,0.0,0.0,0.0,0.0,0.0,0.0,0.0,0.0,0.0,0.0,0.0,0.0,0.0,0.0,0.0,0.0,0.0,0.0,0.0,0.0,0.0,0.0,0.0,0.0,0.0,0.0,0.0,0.0,0.0,0.0,0.0,0.0,0.0,0.0,0.0,0.0,0.0,0.0,0.0,0.0,0.0,0.0,0.0,0.0,0.0,0.0,0.0,0.0,0.0,0.0,0.0,0.0,0.0,0.0,0.0,0.0,0.0,0.0,0.0,0.0,0.0,0.0,0.0,0.0,0.0,0.0,0.0,0.0,0.0,0.0,0.0,0.0,0.0,0.0,0.0,0.0,0.0,0.0,0.0,0.0,0.0,0.0,0.0,0.0,0.0,0.0,0.0,0.0,0.0,0.0,0.0,0.0,0.0,0.0,0.0,0.0,0.0,0.0,0.0,0.0,0.0,0.0,0.0,0.0,0.0,0.0,0.0,0.0,0.0,0.0,0.0,0.0,0.0,0.0,0.0,0.0,0.0,0.0,0.0,0.0,0.0,0.0,0.0,0.0,0.0,0.0,0.0,0.0,0.0,0.0,0.0,0.0,0.0,0.0,0.0,0.0,0.0,0.0,0.0,0.0,0.0,0.0,0.0,0.0,0.0,0.0,0.0,0.0,0.0,0.0,0.0,0.0,0.0,0.0,0.0,0.0,0.0,0.0,0.0,0.0,0.0,0.0,0.0,0.0,0.0,0.0,0.0,0.0,0.0,0.0,0.0,0.0,0.0,0.0,0.0,0.0,0.0,0.0,0.0,0.0,0.0,0.0,0.0,0.0,0.0,0.0,0.0,0.0,0.0,0.0,0.0,0.0,0.0,0.0,0.0,0.0,0.0,0.0,0.0,0.0,0.0,0.0,0.0,0.0,0.0,0.0,0.0,0.0,0.0,0.0,0.0,0.0,0.0,0.0,0.0,0.0,0.0,0.0,0.0,0.0,0.0,0.0,0.0,0.0,0.0,0.0,0.0,0.0,0.0,0.0,0.0,0.0,0.0,0.0,0.0,0.0,0.0,0.0,0.0,0.0,0.0,0.0,0.0,0.0,0.0,0.0,0.0,0.0,0.0,0.0,0.0,0.0,0.0,0.0,0.0,0.0,0.0,0.0,0.0,0.0,0.0,0.0,0.0,0.0,0.0,0.0,0.0,0.0,0.0,0.0,0.0,0.0,0.0,0.0,0.0,0.0,0.0,0.0,0.0,0.0,0.0,0.0,0.0,0.0,0.0,0.0,0.0,0.0,0.0,0.0,0.0,0.0,0.0,0.0,0.0,0.0,0.0,0.0,0.0,0.0,0.0,0.0,0.0,0.0,0.0,0.0,0.0,0.0,0.0,0.0,0.0,0.0,0.0,0.0,0.0,0.0,0.0,0.0,0.0,0.0,0.0,0.0,0.0,0.0,0.0,0.0,0.0,0.0,0.0,0.0,0.0,0.0,0.0,0.0,0.0,0.0,0.0,0.0,0.0,0.0,0.0,0.0,0.0,0.0,0.0,0.0,0.0,0.0,0.0,0.0,0.0,0.0,0.0,0.0,0.0,0.0,0.0,0.0,0.0,0.0,0.0,0.0,0.0,0.0,0.0,0.0,0.0,0.0,0.0,0.0,0.0,0.0,0.0,0.0,0.0,0.0,0.0,0.0,0.0,0.0,0.0,0.0,0.0,0.0,0.0,0.0,0.0,0.0,0.0,0.0,0.0,0.0,0.0,0.0,0.0,0.0,0.0,0.0,0.0,0.0,0.0,0.0,0.0,0.0,0.0,0.0,0.0,0.0,0.0,0.0,0.0,0.0,0.0,0.0,0.0,0.0,0.0,0.0,0.0,0.0,0.0,0.0,0.0,0.0,0.0,0.0,0.0,0.0,0.0,0.0,0.0,0.0,0.0,0.0,0.0,0.0,0.0,0.0,0.0,0.0,0.0,0.0,0.0,0.0,0.0,0.0,0.0,0.0,0.0,0.0,0.0,0.0,0.0,0.0,0.0,0.0,0.0,0.0,0.0,0.0,0.0,0.0,0.0,0.0,0.0,0.0,0.0,0.0,0.0,0.0,0.0,0.0,0.0,0.0,0.0,0.0,0.0,0.0,0.0,0.0,0.0,0.0,0.0,0.0,0.0,0.0,0.0,0.0,0.0,0.0,0.0,0.0,0.0,0.0,0.0,0.0,0.0,0.0,0.0,0.0,0.0,0.0,0.0,0.0,0.0,0.0,0.0,0.0,0.0,0.0,0.0,0.0,0.0,0.0,0.0,0.0,0.0,0.0,0.0,0.0,0.0,0.0,0.0,0.0,0.0,0.0,0.0,0.0,0.0,0.0,0.0,0.0,0.0,0.0,0.0,0.0,0.0,0.0,0.0,0.0,0.0,0.0,0.0,0.0,0.0,0.0,0.0,0.0,0.0,0.0,0.0,0.0,0.0,0.0,0.0,0.0,0.0,0.0,0.0,0.0,0.0,0.0,0.0,0.0,0.0,0.0,0.0,0.0,0.0,0.0,0.0,0.0,0.0,0.0,0.0,0.0,0.0,0.0,0.0,0.0,0.0,0.0,0.0,0.0,0.0,0.0,0.0,0.0,0.0,0.0,0.0,0.0,0.0,0.0,0.0,0.0,0.0,0.0,0.0,0.0,0.0,0.0,0.0,0.0,0.0,0.0,0.0,0.0,0.0,0.0,0.0,0.0,0.0,0.0,0.0,0.0,0.0,0.0,0.0,0.0,0.0,0.0,0.0,0.0,0.0,0.0,0.0,0.0,0.0,0.0,0.0,0.0,0.0,0.0,0.0,0.0,0.0,0.0,0.0,0.0,0.0,0.0,0.0,0.0,0.0,0.0,0.0,0.0,0.0,0.0,0.0,0.0,0.0,0.0,0.0,0.0,0.0,0.0,0.0,0.0,0.0,3.6808,0.0,0.0,0.0,0.0,0.0,0.0,0.0,0.0,0.0,0.0,0.0,0.0,0.0,0.0,0.0,0.0,0.0,0.0,0.0,0.0,0.0,0.0,0.0,0.0,0.0,0.0,0.0,0.0,0.0,0.0,0.0,0.0,0.0,0.0,0.0,0.0,0.0,0.0,0.0,0.0,0.0,0.0,0.0,0.0,0.0,0.0,0.0,0.0,0.0,0.0,0.0,0.0,0.0,0.0,0.0,0.0,0.0,0.0,0.0,0.0,0.0,0.0,0.0,0.0,0.0,0.0,0.0,0.0,0.0,0.0,0.0,0.0,0.0,0.0,0.0,0.0,0.0,0.0,0.0,0.0,0.0,0.0,0.0,0.0,0.0,0.0,0.0,0.0,0.0,0.0,0.0,0.0,0.0,0.0,0.0,0.0,0.0,0.0,0.0,0.0,0.0,0.0,0.0,0.0,0.0,0.0,0.0,0.0,0.0,0.0,0.0,0.0,0.0,0.0,0.0,0.0,3.7111,0.0,0.0,0.0,0.0,0.0,0.0,0.0,0.0,0.0,0.0,0.0,0.0,0.0,0.0,0.0,0.0,0.0,0.0,0.0,0.0,0.0,0.0,0.0,0.0,0.0,0.0,0.0,0.0,0.0,0.0,0.0,0.0,0.0,0.0,0.0,0.0,0.0,0.0,0.0,0.0,0.0,0.0,0.0,0.0,0.0,0.0,0.0,0.0,0.0,0.0,0.0,0.0,0.0,0.0,0.0,0.0,0.0,0.0,0.0,0.0,0.0,0.0,0.0,0.0,0.0,0.0,0.0,0.0,0.0,0.0,0.0,0.0,0.0,0.0,0.0,0.0,0.0,0.0,0.0,0.0,0.0,0.0,0.0,0.0,0.0,0.0,0.0,0.0,0.0,0.0,0.0,0.0,0.0,0.0,0.0,0.0,0.0,0.0,0.0,0.0,0.0,0.0,0.0,0.0,0.0,0.0,0.0,0.0,3.9735,3.9762,3.9762,3.9762,3.9908,4.0081,3.846,3.7904,3.8099,3.7875,0.0,0.0,0.0,0.0,0.0,0.0,0.0,0.0,0.0,0.0,0.0,0.0,0.0,0.0,0.0,0.0,0.0,0.0,0.0,0.0,0.0,0.0,0.0,0.0,0.0,0.0,0.0,0.0,0.0,0.0,0.0,0.0,0.0,0.0,0.0,0.0,0.0,0.0,3.8377,3.8377,3.7955,3.7144,3.6439,0.0,0.0,0.0,0.0,0.0,0.0,0.0,0.0,0.0,0.0,0.0,0.0,0.0,0.0,0.0,0.0,0.0,0.0,0.0,0.0,0.0,0.0,0.0,0.0,0.0,0.0,0.0,0.0,0.0,0.0,0.0,0.0,0.0,0.0,0.0,0.0,0.0,0.0,0.0,0.0,0.0,0.0,0.0,3.9587,3.9547,0.0,0.0,0.0,0.0,0.0,0.0,0.0,0.0,0.0,0.0,0.0,0.0,0.0,3.9564,3.9599,3.9891,4.0027,4.0032,4.0276,4.0374,4.0374,4.0374,4.0406,4.0434,4.0183,0.0,4.0111,4.0087,0.0,0.0,0.0,0.0,0.0,0.0,0.0,0.0,0.0,0.0,0.0,0.0,0.0,0.0,0.0,0.0,0.0,0.0,0.0,0.0,0.0,0.0,0.0,0.0,0.0,0.0,0.0,0.0,0.0,0.0,0.0,0.0,0.0,0.0,0.0,0.0,3.9203,3.9203,3.9196,3.901,3.8734,3.8382,3.7875,3.7147,3.631,3.631,0.0,0.0,0.0,0.0,0.0,0.0,0.0,0.0,0.0,0.0,0.0,0.0,0.0,0.0,0.0,0.0,0.0,0.0,0.0,0.0,0.0,0.0,0.0,0.0,0.0,0.0,0.0,0.0,0.0,0.0,0.0,0.0,0.0,0.0,0.0,0.0,0.0,0.0,0.0,3.9816,3.9668,3.9864,3.9707,3.9599,0.0,0.0,0.0,0.0,0.0,0.0,0.0,0.0,0.0,3.988,3.9886,3.9944,4.0096,4.0258,4.033,4.033,4.043,4.0534,4.0613,4.0613,4.0626,4.0674,4.0674,4.0674,4.066,4.0547,4.0541,4.0613,0.0,0.0,0.0,0.0,4.0566,4.0512,0.0,0.0,0.0,0.0,0.0,0.0,0.0,0.0,0.0,0.0,0.0,0.0,0.0,0.0,0.0,3.9237,0.0,0.0,0.0,0.0,0.0,0.0,0.0,0.0,0.0,0.0,0.0,0.0,3.9599,3.9599,3.9593,3.9339,3.9237,3.9212,3.9029,3.8184,3.6909,3.6909,3.6806,0.0,0.0,0.0,0.0,0.0,0.0,0.0,0.0,0.0,0.0,0.0,0.0,0.0,0.0,0.0,0.0,0.0,0.0,0.0,0.0,0.0,0.0,0.0,0.0,0.0,0.0,0.0,0.0,0.0,0.0,0.0,0.0,0.0,0.0,0.0,0.0,0.0,0.0,4.0105,3.9924,4.0177,3.9974,3.9832,0.0,0.0,0.0,0.0,0.0,0.0,3.9832,3.9832,3.9944,4.019,4.02,4.0315,4.0548,4.0548,4.0554,4.0584,4.0584,4.0629,4.0737,4.0737,4.0755,4.0799,4.0799,4.0799,4.0787,4.0647,4.0636,4.0737,4.0737,4.0737,4.0737,4.0737,4.0669,4.0581,0.0,0.0,0.0,0.0,0.0,0.0,0.0,0.0,0.0,0.0,0.0,0.0,0.0,0.0,3.9576,3.9576,3.9593,3.9945,0.0,0.0,0.0,0.0,0.0,0.0,0.0,0.0,0.0,3.9599,3.9599,3.9599,3.9599,3.9587,3.9576,3.9576,3.9564,3.9179,3.8579,3.8579,3.8146,3.7437,0.0,0.0,0.0,0.0,0.0,0.0,0.0,0.0,0.0,0.0,0.0,0.0,0.0,0.0,0.0,0.0,0.0,0.0,0.0,0.0,0.0,0.0,0.0,0.0,0.0,0.0,0.0,0.0,0.0,0.0,0.0,0.0,0.0,0.0,0.0,0.0,0.0,0.0,0.0,4.0477,4.0469,0.0,0.0,0.0,0.0,4.0446,4.0446,4.0446,4.0446,4.0446,4.0469,4.0481,4.0481,4.0552,4.0686,4.0686,4.0721,4.0783,4.0783,4.0785,4.0791,4.0791,4.0793,4.0799,4.0799,4.0799,4.0797,4.0787,4.0785,4.0791,4.0791,4.0791,4.0791,4.0791,4.0787,4.0783,0.0,0.0,0.0,0.0,0.0,0.0,0.0,0.0,0.0,0.0,0.0,0.0,0.0,3.9731,3.9917,3.9917,4.0082,4.0454,4.1108,0.0,0.0,0.0,0.0,0.0,0.0,0.0,4.0749,4.0175,4.0175,4.0175,4.0175,4.0003,3.9917,3.9912,3.9709,3.9475,3.9275,3.904,3.8802,3.8503,3.8343,3.8102,0.0,0.0,0.0,0.0,0.0,0.0,0.0,0.0,0.0,0.0,0.0,0.0,0.0,0.0,0.0,0.0,0.0,0.0,0.0,0.0,0.0,0.0,0.0,0.0,0.0,0.0,0.0,0.0,0.0,0.0,0.0,0.0,0.0,0.0,0.0,0.0,0.0,4.1335,4.1835,0.0,4.2166,4.2166,4.2166,4.2166,4.2166,4.2166,4.2166,4.22,4.2234,4.2234,4.2327,4.2383,4.2444,4.2444,4.2447,4.2465,4.2465,4.2518,4.2586,4.2019,4.1788,4.1797,4.1289,4.1054,4.1054,4.1054,4.1017,4.0924,4.0924,4.0924,4.0924,4.0924,4.0872,4.0809,0.0,0.0,0.0,0.0,0.0,0.0,0.0,0.0,0.0,0.0,0.0,3.9629,4.0119,4.0476,4.0782,4.1092,4.1276,4.1643,4.2278,0.0,0.0,0.0,0.0,0.0,0.0,4.2235,4.197,4.1377,4.1377,4.1377,4.1373,4.0896,4.0667,4.0658,4.0133,3.99,3.9879,3.9569,3.9371,3.9231,3.8959,3.8837,3.8767,0.0,0.0,0.0,0.0,0.0,0.0,0.0,0.0,0.0,0.0,0.0,0.0,0.0,0.0,0.0,0.0,0.0,0.0,0.0,0.0,0.0,0.0,0.0,0.0,0.0,0.0,0.0,0.0,0.0,0.0,0.0,0.0,0.0,0.0,0.0,4.2235,4.2235,4.2765,4.3138,4.3138,4.3162,4.3204,4.3204,4.3204,4.3204,4.3204,4.3238,4.3275,4.3275,4.3346,4.3422,4.3471,4.3471,4.3485,4.3509,4.3509,4.3549,4.3616,4.303,4.2806,4.2812,4.2266,4.2031,4.2012,4.1738,4.154,4.1447,4.1174,4.1076,4.1076,4.1076,4.1019,4.0952,0.0,0.0,0.0,0.0,0.0,0.0,0.0,0.0,0.0,0.0,3.9939,4.0468,4.1226,4.1628,4.2177,4.3028,4.3104,4.3431,4.4239,4.3566,0.0,0.0,0.0,0.0,4.3143,4.3143,4.3124,4.3104,4.3104,4.3104,4.3085,4.2235,4.185,4.1793,4.0954,4.0573,4.0558,4.0294,3.9984,3.9643,3.9269,3.9125,3.9085,0.0,0.0,0.0,0.0,0.0,0.0,0.0,0.0,0.0,0.0,0.0,0.0,0.0,0.0,0.0,0.0,0.0,0.0,0.0,0.0,0.0,0.0,0.0,0.0,0.0,0.0,0.0,0.0,0.0,0.0,0.0,0.0,0.0,4.2009,4.2605,4.3144,4.3144,4.3229,4.3278,4.3278,4.3394,4.3483,4.3483,4.3483,4.3483,4.3483,4.3487,4.3489,4.3489,4.3491,4.3554,4.3675,4.3676,4.3715,4.3789,4.3789,4.3789,4.3789,4.375,4.373,4.373,4.3691,4.3691,4.3633,4.2773,4.2422,4.2343,4.1523,4.1191,4.1191,4.1191,4.1191,4.1191,0.0,0.0,0.0,0.0,0.0,0.0,0.0,0.0,0.0,0.0,4.11,4.1848,4.1688,4.2317,4.2835,4.3085,4.3104,4.3431,4.4239,0.0,0.0,0.0,0.0,0.0,4.397,4.397,4.3682,4.3104,4.3104,4.3104,4.3085,4.2854,4.2739,4.2739,4.2489,4.2393,4.2374,4.2311,4.1862,4.1092,3.9923,3.9456,3.9444,0.0,0.0,0.0,0.0,0.0,0.0,0.0,0.0,0.0,0.0,0.0,0.0,0.0,0.0,0.0,0.0,0.0,0.0,0.0,0.0,0.0,0.0,0.0,0.0,0.0,0.0,0.0,0.0,0.0,0.0,0.0,0.0,4.4022,4.31,4.3706,4.4266,4.4266,4.4783,4.5153,4.5153,4.5185,4.5205,4.5205,4.5205,4.5205,4.5205,4.5293,4.5363,4.5363,4.5444,4.552,4.5564,4.5564,4.5565,4.5586,4.5586,4.5586,4.5566,4.4832,4.4507,4.4467,4.3777,4.3478,4.3458,4.3223,4.3125,4.3001,4.1692,4.1191,4.1191,4.1191,4.1191,4.1289,0.0,0.0,0.0,0.0,0.0,0.0,0.0,0.0,0.0,0.0,4.1991,4.2812,4.2838,4.3297,4.3739,4.4128,4.4147,4.4377,4.4893,0.0,0.0,0.0,0.0,4.5485,4.4982,4.4962,4.4734,4.4269,4.4269,4.4271,4.4226,4.3859,4.3659,4.3585,4.3258,4.3104,4.3104,4.3104,4.2816,4.2272,4.1409,4.057,3.9792,3.9651,3.9599,3.9599,3.9599,3.9831,4.0145,4.0145,0.0,0.0,0.0,0.0,0.0,0.0,0.0,0.0,0.0,0.0,0.0,0.0,0.0,0.0,0.0,0.0,0.0,0.0,0.0,0.0,0.0,0.0,0.0,0.0,4.4957,4.5182,4.4697,4.495,4.5205,4.5205,4.565,4.5985,4.5985,4.6036,4.6075,4.6075,4.6075,4.6075,4.6075,4.6145,4.6177,4.6177,4.6268,4.6308,4.6308,4.6308,4.6308,4.6308,4.6308,4.6308,4.6289,4.5643,4.5346,4.5304,4.4713,4.4448,4.4429,4.4076,4.394,0.0,0.0,0.0,0.0,0.0,4.2115,4.2188,0.0,0.0,0.0,0.0,0.0,0.0,0.0,0.0,0.0,0.0,0.0,4.3624,4.422,4.4397,4.4763,4.5532,4.5616,4.5684,0.0,0.0,0.0,4.5901,4.5901,4.5901,4.5901,4.5901,4.5901,4.5901,4.5901,4.5862,4.579,4.5018,4.4585,4.4453,4.374,4.3412,4.3412,4.3404,4.3357,4.3257,4.3232,4.2105,4.0406,4.0109,3.9996,3.9996,3.9996,4.0499,4.1154,4.1154,0.0,0.0,0.0,0.0,0.0,0.0,0.0,0.0,0.0,0.0,0.0,0.0,0.0,0.0,0.0,0.0,0.0,0.0,0.0,0.0,0.0,0.0,0.0,0.0,4.6202,4.6308,4.6308,4.6107,4.5957,4.5957,4.6046,4.6119,4.6119,4.6225,4.6308,4.6308,4.6308,4.6308,4.6308,0.0,0.0,0.0,0.0,4.6308,4.6308,4.6289,4.6288,4.6288,4.6268,4.6248,4.6247,4.6116,4.6068,4.6064,4.5912,4.5879,4.5818,4.5094,4.4798,4.4703,4.3771,4.3389,4.3389,4.3389,4.3389,4.3409,0.0,0.0,0.0,0.0,0.0,0.0,0.0,0.0,0.0,4.2854,4.4167,4.4917,4.4359,4.4936,4.5417,4.5594,4.5696,4.5803,0.0,0.0,4.5901,4.5901,4.5901,4.5901,4.5901,4.5901,4.5901,4.5901,4.5901,4.5888,4.5884,4.5711,4.5619,4.5574,4.5422,4.5363,4.5356,4.5309,4.4878,4.423,4.4102,4.3445,4.2518,4.2455,4.2423,4.2423,4.2423,4.2538,4.2672,4.2672,4.3209,4.3866,4.3866,0.0,0.0,0.0,0.0,0.0,0.0,0.0,0.0,0.0,0.0,0.0,0.0,0.0,0.0,0.0,0.0,0.0,0.0,0.0,0.0,4.6109,4.6202,4.6308,4.6308,4.6267,4.6224,4.6224,4.6247,4.6268,4.6268,4.6289,4.6308,4.6308,4.6308,4.6308,4.6308,4.6308,4.6308,4.6308,4.6308,4.6308,4.6308,4.6198,4.6144,4.6143,0.0,0.0,4.5978,4.5881,4.5856,4.5847,4.571,4.5661,4.5642,4.5484,4.5426,4.5279,4.3934,4.3389,4.3389,4.3389,4.3389,4.3492,0.0,0.0,0.0,0.0,0.0,0.0,0.0,0.0,0.0,0.0,4.4801,4.5464,4.5086,4.5445,4.5718,4.5754,4.5866,0.0,0.0,4.6053,4.6109,4.6109,4.6109,4.6109,4.6109,4.6109,4.6109,4.6109,4.6109,4.6073,4.5997,4.5997,4.5951,4.5901,4.5901,4.5901,4.5897,4.5852,4.5589,4.5198,4.5137,4.484,4.4357,4.3438,4.3104,4.3104,4.3104,4.3355,4.3701,4.3701,4.4263,4.4955,4.4955,4.5244,4.5594,0.0,0.0,0.0,0.0,0.0,0.0,0.0,0.0,0.0,0.0,0.0,0.0,0.0,0.0,4.5997,0.0,0.0,4.62,4.62,4.6267,4.6308,4.6308,4.6308,4.6308,4.6308,4.6308,4.6308,4.6308,4.6308,4.6308,4.6308,4.6308,4.6308,4.6308,4.6246,4.62,4.62,4.6122,4.6108,4.6108,4.6036,4.5997,4.5995,4.5926,4.5901,4.5897,4.5835,4.5799,4.579,4.5653,4.5594,4.5594,4.5594,4.5594,4.5535,4.4782,4.4499,4.4499,4.4499,4.4499,4.4547,0.0,0.0,0.0,0.0,0.0,0.0,0.0,0.0,0.0,0.0,4.5196,4.5681,4.5812,4.5831,4.5853,0.0,0.0,0.0,0.0,4.6246,4.6308,4.6308,4.6308,4.6308,4.6308,4.6308,4.6308,4.6308,4.6308,4.6247,4.6144,4.6144,4.6081,4.5981,4.5981,4.5981,4.598,4.5942,4.5932,4.593,4.591,4.5879,4.566,4.42,4.3624,4.3585,4.3585,4.3989,4.4551,4.4551,4.5013,4.5599,4.5627,4.5639,4.5647,4.5649,4.5661,0.0,0.0,0.0,0.0,0.0,0.0,0.0,0.0,0.0,4.5981,4.5981,4.6053,4.6144,4.6144,4.6225,4.6308,4.6308,4.6308,4.6308,4.6308,4.6308,4.6289,4.6268,4.6289,4.6308,4.6308,4.6288,4.6268,4.6268,4.6246,4.6224,4.6224,4.6117,4.6051,4.6051,4.5965,4.5901,4.5901,4.5896,4.5884,4.5884,4.5859,4.5846,4.5841,4.5793,4.5768,4.5758,4.5651,4.5594,4.5594,4.5594,4.5594,4.5594,4.5594,4.5594,4.5594,4.5594,4.5594,4.5594,0.0,0.0,0.0,0.0,0.0,0.0,0.0,0.0,0.0,0.0,0.0,0.0,0.0,0.0,0.0,0.0,0.0,0.0,4.6268,4.6289,4.6308,4.6308,4.6308,4.6308,4.6308,4.6308,4.6308,4.6308,4.6308,4.6289,4.6288,4.6288,4.6268,4.6267,4.6267,4.6267,4.6247,4.612,4.608,4.6073,4.5959,4.5892,4.5879,4.5653,4.548,4.5321,4.5321,4.5379,4.5455,4.5455,4.5518,4.5629,4.5736,4.5769,4.5783,4.5844,0.0,4.5879,4.5879,4.5889,4.5929,4.6042,4.608,4.6113,0.0,0.0,4.6267,4.6267,4.6268,4.6288,4.6288,4.6289,4.6308,4.6308,4.6308,4.6308,4.6308,4.6308,4.6267,4.6143,4.6225,4.6308,4.6308,4.6198,4.6118,4.6118,4.6003,4.5936,4.5936,4.5926,4.592,4.592,4.5907,4.5901,4.5901,4.5842,4.5809,4.5806,4.5681,4.5628,4.5628,4.5622,4.561,4.5629,4.5603,4.5594,4.5594,4.5594,4.5594,4.5594,4.5594,4.5594,4.5594,4.5594,4.5594,4.5594,0.0,0.0,0.0,0.0,0.0,0.0,0.0,0.0,0.0,0.0,0.0,0.0,0.0,0.0,0.0,0.0,0.0,0.0,4.6308,4.6308,4.6308,4.6308,4.6308,4.6308,4.6308,4.6308,4.6308,4.6308,4.6308,4.6308,4.6308,4.6308,4.6308,4.6308,4.6308,4.6308,4.6308,4.6246,4.6223,4.6202,4.6169,4.6083,4.6026,4.6026,4.5918,4.5763,4.5763,4.5763,0.0,0.0,4.5763,4.5776,4.5839,4.5858,4.5852,4.5885,4.5901,0.0,4.5993,4.6026,4.6045,0.0,4.6223,4.6225,4.6289,4.6308,4.6308,4.6308,4.6308,4.6308,4.6308,4.6308,4.6308,0.0,4.6308,4.6308,4.6308,4.6225,4.6152,4.6112,4.6081,4.6073,4.6073,4.6026,4.5985,4.5985,4.5926,4.5901,4.5901,4.5868,4.5842,4.5842,4.577,4.5736,4.5736,4.5696,4.5673,4.5673,4.5637,4.5594,4.5594,4.5594,4.5594,4.5594,4.5594,4.5594,4.5594,4.5594,4.5594,4.5594,4.5594,4.5594,4.5594,4.5594,4.5594,4.5594,0.0,0.0,0.0,0.0,0.0,0.0,0.0,0.0,0.0,0.0,0.0,0.0,0.0,0.0,0.0,0.0,0.0,4.6308,4.6308,4.6268,4.6247,4.6247,4.6202,4.6198,4.6198,4.6225,4.6247,4.6247,4.6289,4.6308,4.6308,4.6308,4.6308,4.6308,4.6308,4.6308,4.6308,4.6308,4.6308,4.6308,4.6308,4.6246,4.6169,4.6169,4.6087,4.5997,4.5922,4.5901,0.0,0.0,4.5901,4.5905,4.5936,4.5965,4.5951,4.5995,4.6003,4.6035,4.612,0.0,0.0,4.6288,4.6308,4.6308,4.6308,4.6308,4.6308,4.6308,4.6308,4.6308,4.6308,4.6308,4.6308,4.6308,4.6268,4.6325,4.6578,4.649,4.648,4.6688,4.6616,4.6546,4.6507,4.6116,4.5869,4.5869,4.5833,4.5811,4.5811,4.5777,4.5743,4.5743,4.566,4.5594,4.5594,4.5594,4.5594,4.5594,4.5594,4.5594,4.5594,4.5594,4.5594,4.5594,4.5594,4.5594,4.5594,4.5594,4.5555,4.5452,4.5452,4.541,4.5313,4.5313,4.5376,4.5452,0.0,0.0,0.0,0.0,0.0,0.0,0.0,0.0,0.0,0.0,0.0,0.0,0.0,0.0,0.0,0.0,0.0,4.6308,4.6308,4.6175,4.6112,4.6112,4.5983,4.591,4.591,4.6039,4.6112,4.6112,4.6246,4.6308,4.6308,4.6308,4.6308,4.6308,4.6308,4.6308,4.6308,4.6308,4.6308,4.6308,4.6308,4.6308,4.6289,4.6289,4.6289,4.6248,4.5992,0.0,0.0,0.0,4.5901,4.592,4.6047,4.6087,0.0,4.6247,4.6289,0.0,0.0,0.0,4.6289,4.6308,4.6308,4.6308,4.6308,4.6308,4.6308,4.6308,4.6308,4.6308,4.6308,4.6308,4.6308,4.6308,4.6198,4.6403,4.7257,4.725,4.7424,4.816,4.8229,4.8176,0.0,4.668,4.5809,4.5809,4.5677,4.5612,4.5612,4.5607,4.5603,4.5603,4.5594,4.5594,4.5594,4.5594,4.5594,4.5594,4.5594,4.5594,4.5594,4.5594,4.5594,4.5594,4.5594,4.5594,4.5594,4.5594,4.541,4.5126,4.5126,4.4919,4.4625,4.4625,4.4843,4.5126,0.0,0.0,0.0,0.0,0.0,0.0,0.0,0.0,0.0,0.0,0.0,0.0,0.0,0.0,0.0,0.0,0.0,0.0,0.0,4.604,4.5974,4.5974,4.592,4.5901,4.5901,4.5936,4.5974,4.5974,4.6005,4.6081,4.6172,4.6172,4.6203,4.6308,4.6308,4.6308,4.6308,4.6308,4.6308,4.6308,4.6308,4.6308,4.6308,4.6308,4.6308,4.6289,0.0,0.0,0.0,0.0,0.0,0.0,4.6223,0.0,0.0,4.6289,0.0,0.0,0.0,0.0,4.6308,4.6308,4.6308,4.6308,4.6308,4.6308,4.6308,4.6308,4.6308,4.6308,4.6308,4.6692,4.7028,4.7028,4.7404,4.7788,4.8097,4.8013,4.8015,4.8264,4.8222,0.0,0.0,0.0,0.0,4.7334,4.7285,4.7259,4.7259,4.7259,4.7009,4.649,4.6471,4.6182,4.5614,4.5594,4.5594,4.5594,4.5594,4.5594,4.5586,4.5362,4.5277,4.5253,4.5028,4.4943,4.4943,4.4943,4.4878,4.4776,4.4776,4.4695,4.4593,4.4593,4.4495,4.4414,0.0,0.0,0.0,0.0,0.0,0.0,0.0,0.0,0.0,0.0,0.0,0.0,0.0,0.0,0.0,0.0,0.0,0.0,0.0,4.5923,4.5852,4.5852,4.5822,4.5794,4.5794,4.5845,4.5852,4.5852,4.5898,4.5936,4.6033,4.6033,4.6109,4.6225,4.6175,4.6202,4.6308,4.6247,4.6267,4.6308,4.6308,4.6308,4.6308,4.6308,4.6308,0.0,0.0,0.0,0.0,0.0,0.0,0.0,0.0,0.0,0.0,0.0,0.0,0.0,0.0,4.6308,4.6308,4.6308,4.6308,4.6308,4.6308,4.6308,4.6308,4.6308,4.6543,4.6757,4.6694,4.7338,4.7851,4.7801,4.8151,4.8546,4.8857,4.8775,4.8813,4.9122,4.9077,4.9029,0.0,0.0,0.0,4.8139,4.8101,4.8101,4.8101,4.8101,4.7851,4.7351,4.7331,4.7067,4.6494,4.6494,4.6494,4.649,4.6354,4.6287,4.6277,4.5929,4.5789,4.5777,4.5552,4.546,4.546,4.546,4.536,4.5235,4.5235,4.5175,4.5058,4.5058,4.4892,4.4644,0.0,0.0,0.0,0.0,0.0,0.0,0.0,0.0,0.0,0.0,0.0,0.0,0.0,0.0,0.0,0.0,0.0,0.0,0.0,0.0,0.0,4.5786,4.5669,4.5594,4.5594,4.5714,4.5786,4.5786,4.5841,4.5885,4.5892,4.5892,4.5969,4.6082,4.5965,4.604,4.6269,4.6145,4.6172,4.6289,4.6289,4.6289,4.6308,4.6308,0.0,0.0,0.0,0.0,0.0,0.0,0.0,0.0,0.0,0.0,0.0,0.0,0.0,4.6308,4.6308,4.6308,4.6308,4.6308,4.6308,4.6308,4.6308,4.6328,4.6367,4.6367,4.7051,4.7614,0.0,0.0,4.8703,4.8572,4.849,4.8707,4.9536,4.9549,4.9764,0.0,0.0,0.0,0.0,0.0,0.0,4.8355,0.0,4.8235,4.8235,4.8235,4.8216,4.8159,4.8159,4.8139,4.8101,4.8101,4.8096,4.8058,4.7687,4.7491,4.7467,4.712,4.6975,4.6968,4.6953,4.6946,4.6946,4.6946,4.6727,4.6376,4.6376,4.6171,4.5902,4.5902,4.5902,4.5726,0.0,0.0,0.0,0.0,0.0,0.0,0.0,0.0,0.0,0.0,0.0,0.0,0.0,0.0,0.0,0.0,0.0,0.0,0.0,0.0,0.0,0.0,0.0,0.0,0.0,0.0,0.0,0.0,4.5673,4.5735,4.5823,4.5823,4.5866,4.594,4.5914,4.5932,4.5995,4.5972,4.6033,4.6148,0.0,4.6202,4.6308,0.0,0.0,0.0,0.0,0.0,0.0,0.0,0.0,0.0,0.0,0.0,4.6308,0.0,0.0,4.6308,4.6308,4.6308,4.6308,4.6308,4.6308,4.6308,4.6308,4.6797,4.7245,4.7147,4.7804,4.8372,0.0,0.0,0.0,4.9333,4.9753,0.0,5.0387,5.0399,0.0,5.0668,0.0,5.0707,5.0707,5.0707,0.0,0.0,5.0034,5.0034,5.0034,5.0034,4.9745,4.9086,4.9067,4.8759,4.8101,4.8101,4.7943,4.7646,4.7543,4.7371,4.7107,4.6731,4.6548,4.6533,4.6289,4.6173,4.6173,4.6173,4.6122,4.6035,4.6035,4.5983,4.5902,4.5902,4.5902,4.5846,0.0,0.0,0.0,0.0,0.0,0.0,0.0,0.0,0.0,0.0,0.0,0.0,0.0,0.0,0.0,0.0,0.0,0.0,0.0,0.0,0.0,0.0,0.0,0.0,0.0,0.0,0.0,0.0,0.0,0.0,0.0,4.5715,4.576,4.5853,4.5785,4.5811,4.5897,4.5862,0.0,0.0,0.0,0.0,0.0,0.0,0.0,0.0,0.0,0.0,0.0,0.0,0.0,4.6308,4.6308,4.6308,4.6308,4.6308,0.0,4.6308,4.6308,4.6308,4.6308,4.6308,4.6308,4.6386,4.6712,4.7158,4.7577,4.7822,4.8585,0.0,4.9004,4.9621,0.0,0.0,0.0,0.0,5.0707,5.0707,5.0707,0.0,5.0707,0.0,5.0707,5.0707,5.0707,0.0,5.0707,5.0707,5.0707,5.0707,5.0476,4.9995,4.9976,4.9745,4.924,4.9065,4.8859,4.8638,4.828,4.8029,4.7818,4.7431,4.7235,4.7227,0.0,4.6948,4.6948,4.6948,4.6948,4.6948,4.6948,4.6948,4.6948,4.6948,4.6948,4.6948,0.0,0.0,0.0,0.0,0.0,0.0,0.0,0.0,0.0,0.0,0.0,0.0,0.0,0.0,0.0,0.0,0.0,0.0,0.0,0.0,0.0,0.0,0.0,0.0,0.0,0.0,0.0,0.0,0.0,0.0,0.0,0.0,0.0,0.0,0.0,0.0,0.0,0.0,0.0,0.0,0.0,0.0,0.0,0.0,0.0,0.0,0.0,0.0,0.0,0.0,4.6308,4.6308,4.6308,4.6308,4.6308,4.6308,4.6308,4.6308,4.6308,4.6308,4.6308,4.6288,4.6366,4.6616,4.7237,4.7552,4.7899,4.8523,0.0,4.9901,4.9763,5.0356,5.0851,5.0726,0.0,5.0707,5.0707,5.0707,5.0707,5.0707,5.0707,5.0707,5.0707,5.0707,5.0707,5.0707,5.0707,5.0707,5.0707,5.0707,5.0707,5.0707,5.0653,5.0619,5.0619,5.0212,4.9987,4.9936,4.9223,4.8871,4.8813,4.8467,4.8296,4.8296,4.8296,0.0,4.8296,4.8296,4.8296,4.8296,4.8296,4.8296,4.8296,4.8296,4.8296,4.8296,0.0,0.0,0.0,0.0,0.0,0.0,0.0,0.0,0.0,0.0,4.6308,0.0,0.0,0.0,0.0,0.0,0.0,0.0,0.0,0.0,0.0,0.0,0.0,0.0,0.0,0.0,0.0,0.0,0.0,0.0,0.0,0.0,0.0,0.0,0.0,0.0,0.0,0.0,0.0,0.0,0.0,0.0,0.0,0.0,0.0,0.0,0.0,0.0,0.0,0.0,4.6308,4.6308,4.6308,4.6308,4.6308,4.6308,4.6308,4.6308,4.6308,4.6308,4.6269,4.6151,4.6687,4.7216,4.7231,4.8351,0.0,0.0,5.0091,5.0665,5.0521,5.0634,5.0721,5.0697,5.0707,5.0707,5.0707,5.0707,5.0707,0.0,0.0,0.0,0.0,0.0,0.0,0.0,5.0707,5.0707,5.0707,5.0707,5.0707,5.0707,5.0388,5.0195,5.0195,4.98,4.9438,4.9108,4.898,4.8736,4.8393,4.8326,4.8296,4.8296,4.8296,0.0,4.8296,4.8296,4.8296,4.8296,4.8296,4.8296,4.8296,4.8296,4.8296,4.8296,0.0,0.0,0.0,0.0,0.0,0.0,0.0,0.0,0.0,4.6289,4.6308,4.6308,0.0,0.0,0.0,0.0,0.0,0.0,0.0,0.0,0.0,0.0,0.0,0.0,0.0,0.0,0.0,0.0,0.0,0.0,0.0,0.0,0.0,0.0,0.0,0.0,0.0,0.0,0.0,0.0,0.0,0.0,0.0,0.0,0.0,0.0,0.0,0.0,0.0,0.0,4.6308,4.6308,4.6308,4.6308,4.6308,4.6308,4.6308,4.6308,4.6308,4.6247,4.6293,4.6679,4.7033,4.7498,4.8261,0.0,0.0,0.0,5.0505,5.0769,5.0712,5.0707,0.0,5.0707,5.0707,5.0707,5.0707,5.0707,0.0,5.0707,5.0707,0.0,0.0,5.0707,5.0707,5.0707,5.0707,5.0707,5.0707,5.0707,5.0604,5.038,5.0195,4.9993,4.9787,4.9393,4.9092,4.8897,4.8692,4.8477,4.8296,4.8296,4.8296,4.8296,4.8296,0.0,4.8296,4.8296,4.8296,4.8296,4.8296,4.8296,4.8296,4.8296,4.8296,4.8296,0.0,0.0,0.0,0.0,0.0,0.0,0.0,4.5631,4.6147,4.6289,4.6308,4.6308,4.6308,4.6308,4.6308,0.0,0.0,0.0,0.0,0.0,0.0,0.0,0.0,0.0,0.0,0.0,0.0,0.0,0.0,0.0,0.0,0.0,0.0,0.0,0.0,0.0,0.0,0.0,0.0,0.0,0.0,0.0,0.0,0.0,0.0,0.0,0.0,0.0,0.0,0.0,4.6308,4.6308,4.6308,4.6308,4.6308,4.6308,4.6308,4.6289,4.6268,4.6175,4.6297,4.7117,4.738,4.7811,4.9226,4.9703,0.0,0.0,5.0707,5.0707,5.0707,0.0,5.0707,0.0,5.0707,5.0707,5.0707,5.0707,5.0707,0.0,5.0707,0.0,0.0,5.0707,0.0,5.0707,5.0619,5.0609,5.0707,5.0614,5.0421,5.0104,4.9936,4.968,4.9371,4.898,4.877,4.877,4.8458,4.8296,4.8296,4.8296,4.8296,4.8296,4.8296,0.0,0.0,4.8296,4.8296,4.8296,4.8296,4.8296,4.8296,4.8296,4.8296,4.8296,0.0,0.0,0.0,0.0,0.0,0.0,0.0,4.597,4.6147,4.6289,4.6308,4.6308,4.6308,4.6308,4.6308,0.0,0.0,0.0,0.0,0.0,0.0,0.0,0.0,0.0,0.0,0.0,0.0,0.0,0.0,0.0,0.0,0.0,0.0,0.0,0.0,0.0,0.0,0.0,0.0,0.0,0.0,0.0,0.0,0.0,0.0,0.0,0.0,0.0,0.0,0.0,0.0,4.6308,4.6308,4.6308,4.6308,4.6308,0.0,0.0,4.6148,4.6113,4.6254,4.6873,4.7617,4.841,4.9227,0.0,0.0,5.0693,5.0707,5.0707,5.0707,5.0707,0.0,0.0,0.0,5.0707,5.0707,5.0707,5.0707,5.0707,0.0,0.0,5.0707,5.0707,0.0,5.0707,5.0358,5.03,5.0678,5.0353,5.0141,5.0092,4.9382,4.8986,4.8963,4.8568,4.8354,4.8354,4.8325,4.8296,4.8296,4.8296,4.8296,4.8296,4.8296,0.0,0.0,4.8296,4.8296,4.8296,4.8296,4.8296,4.8296,4.8296,4.8296,4.8296,0.0,0.0,0.0,0.0,0.0,0.0,0.0,4.5914,4.6033,4.6151,4.6247,4.6308,4.6308,4.6308,4.6308,0.0,0.0,0.0,0.0,0.0,0.0,0.0,0.0,0.0,0.0,0.0,0.0,0.0,0.0,0.0,0.0,0.0,0.0,0.0,0.0,0.0,0.0,0.0,0.0,0.0,0.0,0.0,0.0,0.0,0.0,0.0,0.0,0.0,0.0,0.0,0.0,0.0,4.6308,4.6308,0.0,0.0,4.6197,4.6073,4.6087,4.6004,4.6223,4.7462,4.7979,4.8521,4.988,0.0,5.0707,5.0707,5.0707,5.0707,5.0707,5.0707,5.0707,0.0,0.0,0.0,5.0707,5.0707,5.0707,5.0707,5.0707,0.0,0.0,0.0,5.0604,5.0353,5.0183,5.0062,4.9974,4.9839,4.9624,4.9393,4.9067,4.8787,4.855,4.8383,4.8296,4.8296,4.8296,4.8296,4.8296,4.8296,4.8296,4.8296,4.8296,0.0,0.0,4.8296,4.8296,4.8296,4.8296,4.8296,4.8296,4.8296,4.8296,4.8296,0.0,0.0,0.0,0.0,0.0,0.0,4.5773,4.5839,4.5909,4.603,4.6119,4.6199,4.6246,4.6246,4.6267,4.6308,0.0,0.0,0.0,0.0,0.0,0.0,0.0,0.0,0.0,0.0,0.0,0.0,0.0,0.0,0.0,0.0,0.0,0.0,0.0,0.0,0.0,0.0,0.0,0.0,0.0,0.0,0.0,0.0,0.0,0.0,0.0,0.0,0.0,0.0,0.0,0.0,0.0,0.0,0.0,0.0,4.6112,4.5971,4.6001,4.6078,4.6496,4.7882,4.8356,4.8875,0.0,0.0,5.0707,5.0707,5.0707,5.0707,5.0707,5.0707,5.0707,5.0707,0.0,5.0707,5.0707,5.0707,5.0784,0.0,0.0,5.1048,0.0,5.0842,5.0483,4.9955,4.9924,4.9699,4.9163,4.9158,4.9078,4.8905,4.8787,4.8586,4.8306,4.8296,4.8296,4.8296,4.8296,4.8296,4.8296,4.8296,4.8296,4.8296,4.8296,0.0,0.0,4.8296,4.8296,4.8296,4.8296,4.8296,4.8296,4.8296,4.8296,4.8296,0.0,0.0,0.0,0.0,0.0,0.0,0.0,4.5803,4.5823,4.5885,4.5903,4.5944,4.6084,4.609,4.6169,4.6289,0.0,0.0,0.0,0.0,0.0,0.0,0.0,0.0,0.0,0.0,0.0,0.0,0.0,0.0,0.0,0.0,0.0,0.0,0.0,0.0,0.0,0.0,0.0,0.0,0.0,0.0,0.0,0.0,0.0,0.0,0.0,0.0,0.0,0.0,0.0,0.0,0.0,0.0,0.0,0.0,4.6109,4.606,4.5853,4.6374,4.7169,4.791,4.874,4.963,0.0,0.0,5.0707,5.0707,5.0707,5.0707,5.0707,5.0707,5.0707,5.0707,5.0707,0.0,5.0707,5.0707,5.0996,0.0,0.0,5.1885,5.1885,5.1164,5.0358,4.958,4.9522,0.0,4.8354,4.8316,4.8486,4.8888,4.8513,4.8306,4.8296,4.8296,4.8296,4.8296,4.8296,4.8296,4.8296,4.8296,4.8296,4.8296,0.0,0.0,0.0,4.8296,4.8296,4.8296,4.8296,4.8296,4.8296,4.8296,4.8296,4.8296,0.0,0.0,0.0,0.0,0.0,0.0,0.0,4.574,4.5819,4.5832,4.5867,4.5914,4.5967,4.5951,4.5983,4.6011,0.0,0.0,0.0,0.0,0.0,0.0,0.0,0.0,0.0,0.0,0.0,0.0,0.0,0.0,0.0,0.0,0.0,0.0,0.0,0.0,0.0,0.0,0.0,0.0,0.0,0.0,0.0,0.0,0.0,0.0,0.0,0.0,0.0,0.0,0.0,0.0,0.0,0.0,0.0,0.0,0.0,0.0,4.5879,4.6396,4.7112,4.7908,4.8759,4.963,5.0495,0.0,5.0707,5.0707,5.0707,5.0707,5.0707,5.0707,5.0707,5.0707,0.0,0.0,0.0,0.0,0.0,5.1865,5.2428,5.2544,0.0,0.0,5.1072,4.9987,4.9664,4.9265,4.8745,4.8458,4.8354,4.8477,4.8364,4.8296,4.8296,4.8296,4.8296,4.8296,4.8296,4.8296,4.8296,4.8296,4.8296,0.0,0.0,0.0,0.0,4.8296,4.8296,4.8296,4.8296,4.8296,4.8296,4.8296,4.8296,4.8296,0.0,0.0,0.0,0.0,0.0,0.0,0.0,4.5673,4.5714,4.5714,4.5757,4.5805,4.5861,4.5868,4.5869,4.5897,0.0,0.0,0.0,0.0,0.0,0.0,0.0,0.0,0.0,0.0,0.0,0.0,0.0,0.0,0.0,0.0,0.0,0.0,0.0,0.0,0.0,0.0,0.0,0.0,0.0,0.0,4.6308,0.0,0.0,0.0,0.0,0.0,0.0,0.0,0.0,0.0,0.0,0.0,0.0,0.0,0.0,0.0,0.0,4.6625,4.7533,4.7989,4.899,0.0,0.0,0.0,5.0707,5.0707,5.0707,5.0707,5.0707,5.0707,5.0707,5.0707,0.0,0.0,0.0,0.0,0.0,5.2794,0.0,0.0,0.0,5.2096,5.1349,4.9974,4.9631,4.9257,4.871,4.8439,4.8296,4.8296,4.8296,4.8296,4.8296,4.8296,4.8296,4.8296,4.8296,4.8296,4.8296,4.8296,4.8296,0.0,0.0,0.0,0.0,4.8296,4.8296,4.8296,4.8296,4.8296,4.8296,4.8296,4.8296,4.8296,0.0,0.0,0.0,0.0,0.0,0.0,0.0,0.0,0.0,0.0,4.5594,4.5651,4.5763,4.5783,4.5805,0.0,0.0,0.0,0.0,0.0,0.0,0.0,0.0,0.0,0.0,0.0,0.0,4.6269,4.6269,4.6269,4.6269,0.0,0.0,0.0,0.0,0.0,0.0,0.0,0.0,0.0,0.0,0.0,0.0,0.0,0.0,0.0,0.0,0.0,0.0,0.0,0.0,0.0,0.0,0.0,0.0,0.0,0.0,0.0,0.0,0.0,0.0,0.0,0.0,0.0,0.0,0.0,0.0,5.0707,5.0707,5.0707,5.0707,5.0707,5.0707,0.0,0.0,0.0,0.0,5.2,0.0,0.0,5.453,0.0,5.3274,5.2409,5.1239,4.9653,4.9511,4.9155,4.8383,4.8325,4.8296,4.8296,4.8296,4.8296,4.8296,4.8296,4.8296,4.8296,4.8296,4.8296,4.8296,4.8296,4.8296,0.0,0.0,0.0,0.0,4.8296,4.8296,4.8296,4.8296,4.8296,4.8296,4.8296,4.8296,4.8296,0.0,0.0,0.0,0.0,0.0,0.0,0.0,0.0,0.0,0.0,4.5594,4.5612,4.5647,4.5651,4.5653,0.0,0.0,0.0,0.0,0.0,0.0,0.0,0.0,0.0,0.0,0.0,0.0,4.5992,4.5992,4.5992,4.5992,4.5992,0.0,0.0,0.0,0.0,0.0,0.0,0.0,0.0,0.0,0.0,0.0,0.0,0.0,0.0,4.6308,4.6308,0.0,0.0,0.0,0.0,0.0,0.0,0.0,0.0,4.6288,0.0,4.6065,0.0,4.7421,4.7967,4.8913,4.988,0.0,0.0,0.0,0.0,0.0,5.0707,5.0707,5.0707,5.0707,0.0,0.0,0.0,5.1793,0.0,0.0,5.5304,5.4876,5.4164,5.3274,5.2409,5.1365,5.0063,4.9659,4.928,4.8787,4.8477,4.8296,4.8296,4.8296,4.8296,4.8296,4.8296,4.8296,4.8296,4.8296,4.8296,4.8296,4.8296,4.8296,0.0,0.0,0.0,4.8296,4.8296,4.8296,4.8296,4.8296,4.8296,4.8296,4.8296,4.8296,4.8296,0.0,0.0,0.0,0.0,0.0,0.0,0.0,0.0,0.0,0.0,0.0,0.0,0.0,0.0,0.0,0.0,0.0,0.0,0.0,0.0,0.0,0.0,0.0,0.0,0.0,0.0,0.0,0.0,0.0,4.5901,0.0,0.0,0.0,0.0,0.0,0.0,0.0,0.0,0.0,0.0,4.6288,0.0,0.0,0.0,0.0,0.0,4.6308,4.6308,0.0,4.6308,4.6308,4.6308,0.0,0.0,0.0,0.0,4.6308,4.6268,4.6143,4.6596,4.7275,4.8017,4.8798,4.963,0.0,0.0,0.0,0.0,0.0,5.0707,5.0707,5.0707,0.0,0.0,5.0707,0.0,0.0,0.0,5.5208,5.5651,5.4991,5.4164,0.0,5.2409,5.1319,4.9935,4.961,4.9241,4.8648,4.8411,4.8296,4.8296,4.8296,4.8296,4.8296,4.8296,4.8296,4.8296,4.8296,4.8296,4.8296,4.8296,4.8296,0.0,0.0,0.0,4.8296,4.8296,4.8296,4.8296,4.8296,4.8296,4.8296,4.8296,4.8296,4.8296,0.0,0.0,0.0,0.0,0.0,0.0,0.0,0.0,0.0,0.0,0.0,0.0,0.0,0.0,0.0,0.0,0.0,0.0,0.0,0.0,0.0,0.0,0.0,0.0,0.0,0.0,0.0,0.0,0.0,0.0,0.0,0.0,4.5842,0.0,0.0,0.0,0.0,0.0,0.0,0.0,4.6224,0.0,0.0,0.0,0.0,0.0,0.0,0.0,0.0,4.6308,4.6308,4.6308,4.6308,0.0,0.0,0.0,0.0,0.0,4.6151,4.657,4.7203,4.807,4.8749,4.9452,5.0476,0.0,0.0,0.0,0.0,0.0,0.0,5.0707,0.0,0.0,0.0,0.0,5.2794,5.4337,5.5318,5.5318,5.4607,0.0,5.3063,5.2217,5.1099,4.9611,4.9496,4.9158,4.8335,4.8296,4.8296,4.8296,4.8296,4.8296,4.8296,4.8296,4.8296,4.8296,4.8296,4.8296,4.8296,4.8296,4.8296,4.8296,0.0,0.0,4.8296,4.8296,4.8296,4.8296,4.8296,4.8296,4.8296,4.8296,4.8296,4.8296,0.0,0.0,0.0,0.0,0.0,0.0,0.0,0.0,0.0,0.0,0.0,0.0,0.0,0.0,0.0,0.0,0.0,0.0,0.0,0.0,0.0,0.0,0.0,0.0,0.0,0.0,0.0,0.0,0.0,0.0,4.5657,4.5657,4.5657,4.5645,0.0,0.0,0.0,0.0,0.0,0.0,0.0,0.0,0.0,0.0,0.0,0.0,0.0,0.0,0.0,4.6308,4.6308,4.6308,4.6308,0.0,0.0,0.0,0.0,0.0,4.6269,4.6182,4.645,4.7934,4.8305,4.8721,0.0,0.0,0.0,0.0,0.0,0.0,0.0,5.0707,5.0707,0.0,0.0,5.1813,0.0,0.0,5.3587,5.3587,0.0,5.2255,5.2115,5.1356,5.0492,4.9573,0.0,4.9158,4.8335,4.8296,4.8296,4.8296,4.8296,4.8296,4.8296,4.8296,4.8296,4.8296,4.8296,4.8296,4.8296,4.8296,4.8296,4.8296,0.0,4.8296,4.8296,4.8296,4.8296,4.8296,4.8296,4.8296,4.8296,4.8296,4.8296,4.8296,0.0,0.0,0.0,0.0,0.0,0.0,0.0,0.0,0.0,0.0,0.0,0.0,0.0,0.0,0.0,0.0,0.0,0.0,0.0,0.0,0.0,0.0,0.0,0.0,0.0,0.0,0.0,0.0,0.0,4.5594,4.5594,4.5594,4.534,4.4921,0.0,0.0,0.0,0.0,0.0,0.0,0.0,0.0,0.0,0.0,0.0,0.0,0.0,0.0,0.0,0.0,4.6308,4.6308,4.6308,0.0,0.0,0.0,0.0,0.0,4.6308,4.6091,4.6292,4.7983,4.8249,4.8567,0.0,0.0,0.0,0.0,0.0,0.0,0.0,0.0,5.0707,5.0707,0.0,5.1904,5.1904,5.2659,5.3197,0.0,0.0,5.165,5.1875,5.0792,4.9904,0.0,0.0,0.0,4.8335,4.8296,4.8296,4.8296,4.8296,4.8296,4.8296,4.8296,4.8296,4.8296,4.8296,4.8296,4.8296,4.8296,4.8296,4.8296,0.0,4.8296,4.8296,4.8296,4.8296,4.8296,4.8296,4.8296,4.8296,4.8296,4.8296,4.8296,0.0,0.0,0.0,0.0,0.0,0.0,0.0,0.0,0.0,0.0,0.0,0.0,0.0,0.0,0.0,0.0,0.0,0.0,0.0,0.0,0.0,0.0,0.0,0.0,0.0,0.0,4.5594,4.5594,4.5594,4.5594,4.5594,4.5594,4.5244,0.0,0.0,0.0,4.4656,4.5422,4.5801,0.0,0.0,0.0,0.0,0.0,0.0,0.0,0.0,0.0,0.0,0.0,0.0,0.0,0.0,0.0,0.0,4.6308,4.6308,4.6308,4.6308,4.6091,4.6325,4.8059,0.0,0.0,0.0,0.0,0.0,0.0,0.0,0.0,0.0,5.0707,0.0,5.0707,5.1221,5.162,5.162,5.2108,5.2474,5.2474,5.1525,5.1001,5.1308,5.0214,0.0,0.0,0.0,0.0,4.8325,4.8296,4.8296,4.8296,4.8296,4.8296,4.8296,4.8296,4.8296,4.8296,4.8296,4.8296,4.8296,4.8296,4.8296,4.8296,4.8296,4.8296,4.8296,4.8296,4.8296,4.8296,4.8296,4.8296,4.8296,4.8296,4.8296,4.8296,0.0,0.0,0.0,0.0,0.0,0.0,0.0,0.0,0.0,0.0,0.0,0.0,0.0,0.0,0.0,0.0,0.0,0.0,0.0,0.0,0.0,0.0,0.0,0.0,0.0,4.5594,4.5594,4.5594,4.5594,4.5594,4.5594,4.5594,4.5575,4.5518,0.0,4.5575,4.5518,4.5573,4.571,4.5901,0.0,0.0,0.0,0.0,0.0,0.0,0.0,0.0,0.0,0.0,0.0,0.0,0.0,0.0,4.6308,4.6308,4.6308,4.6308,4.6308,4.6091,4.6325,4.8059,4.8292,0.0,5.0303,5.0707,0.0,5.0707,0.0,0.0,0.0,5.0707,5.0707,5.0707,5.0745,5.0784,5.0784,0.0,5.0319,5.0319,4.9901,4.9641,4.967,4.957,0.0,0.0,0.0,0.0,4.8325,4.8296,4.8296,4.8296,4.8296,4.8296,4.8296,4.8296,4.8296,4.8296,4.8296,4.8296,4.8296,4.8296,4.8296,4.8296,4.8296,4.8296,4.8296,4.8296,4.8296,4.8296,4.8296,4.8296,4.8296,4.8296,4.8296,4.8296,0.0,0.0,0.0,0.0,0.0,0.0,0.0,0.0,0.0,0.0,0.0,0.0,0.0,0.0,0.0,0.0,0.0,0.0,0.0,0.0,0.0,0.0,0.0,4.5594,4.5594,4.5594,4.5594,4.5594,4.5594,4.5594,4.5594,4.5594,0.0,0.0,4.5594,4.5594,4.5603,4.5681,4.578,4.5907,4.599,0.0,0.0,0.0,0.0,0.0,0.0,0.0,0.0,0.0,4.6308,4.6308,4.6308,4.6308,4.6308,4.6308,4.6308,4.6289,4.62,4.604,4.6306,4.7951,4.8245,0.0,0.0,5.0707,5.0707,5.0707,5.0707,0.0,0.0,0.0,5.0707,5.0707,5.0707,5.0707,5.0707,5.0353,5.0092,5.0092,4.9525,4.9226,4.9475,0.0,0.0,0.0,0.0,0.0,4.8306,4.8296,4.8296,4.8296,4.8296,4.8296,4.8296,4.8296,4.8296,4.8296,4.8296,4.8296,4.8296,4.8296,4.8296,4.8296,4.8296,4.8296,4.8296,4.8296,4.8296,4.8296,4.8296,4.8296,4.8296,4.8296,4.8296,4.8296,0.0,0.0,0.0,0.0,0.0,0.0,0.0,0.0,0.0,0.0,0.0,0.0,0.0,0.0,0.0,0.0,0.0,0.0,0.0,0.0,0.0,0.0,0.0,4.5594,4.5594,4.5594,4.5594,4.5594,4.5594,4.5594,4.5594,0.0,0.0,0.0,4.5594,4.5594,4.5607,4.574,4.5836,4.591,4.6043,4.6175,0.0,0.0,0.0,0.0,0.0,0.0,0.0,0.0,4.6308,4.6308,4.6308,4.6308,4.6308,4.6308,4.6268,4.6223,4.6119,4.6169,4.6585,4.7959,0.0,0.0,5.0361,5.0707,5.0707,5.0707,5.0707,0.0,0.0,0.0,0.0,0.0,5.0707,5.0658,5.0534,5.0165,4.9853,4.9746,4.9123,4.8822,0.0,0.0,0.0,0.0,0.0,0.0,0.0,4.8296,4.8296,4.8296,4.8296,4.8296,4.8296,4.8296,4.8296,4.8296,4.8296,4.8296,4.8296,4.8296,4.8296,4.8296,4.8296,4.8296,4.8296,4.8296,4.8296,4.8296,4.8296,4.8296,4.8296,4.8296,4.8296,4.8296,0.0,0.0,0.0,0.0,0.0,0.0,0.0,0.0,0.0,0.0,0.0,0.0,0.0,0.0,0.0,0.0,0.0,0.0,0.0,0.0,0.0,0.0,0.0,4.5594,4.5594,4.5594,4.5594,4.5594,4.5594,4.5594,4.5594,4.5594,0.0,0.0,0.0,4.5594,4.5607,4.5743,4.5836,4.591,4.6045,4.6176,4.6308,0.0,0.0,0.0,0.0,0.0,0.0,0.0,4.6308,4.6308,4.6308,4.6308,4.6308,4.6308,4.6201,4.6108,4.6107,4.6536,4.7212,0.0,0.0,0.0,5.0495,5.0707,5.0707,5.0707,0.0,5.0707,0.0,0.0,0.0,5.0707,5.0707,5.0554,5.0159,4.9753,4.9348,4.8955,4.8532,0.0,0.0,0.0,0.0,0.0,0.0,0.0,0.0,4.8296,4.8296,4.8296,4.8296,4.8296,4.8296,4.8296,4.8296,4.8296,4.8296,4.8296,4.8296,4.8296,4.8296,4.8296,4.8296,4.8296,4.8296,4.8296,4.8296,4.8296,4.8296,4.8296,4.8296,4.8296,4.8296,4.8296,0.0,0.0,0.0,0.0,0.0,0.0,0.0,0.0,0.0,0.0,0.0,0.0,0.0,0.0,0.0,0.0,0.0,0.0,0.0,0.0,0.0,0.0,0.0,0.0,0.0,0.0,4.5594,4.5594,4.5594,4.5594,0.0,0.0,0.0,4.5594,0.0,0.0,4.562,4.5795,4.5886,4.5918,4.6147,4.6268,4.6308,0.0,0.0,0.0,0.0,0.0,0.0,0.0,0.0,0.0,4.6308,4.6308,4.6289,4.6197,4.6121,4.6069,4.5932,4.6428,0.0,4.7968,0.0,0.0,0.0,5.0707,0.0,0.0,0.0,5.0707,0.0,0.0,0.0,5.0707,5.0467,5.0243,5.0123,4.9518,4.9027,4.8913,4.8532,0.0,0.0,0.0,0.0,0.0,0.0,0.0,0.0,4.8296,4.8296,4.8296,4.8296,4.8296,4.8296,4.8296,4.8296,4.8296,4.8296,4.8296,4.8296,4.8296,4.8296,4.8296,4.8296,4.8296,4.8296,4.8296,4.8296,4.8296,4.8296,4.8296,4.8296,4.8296,4.8296,4.8296,0.0,0.0,0.0,0.0,0.0,0.0,0.0,0.0,0.0,0.0,0.0,0.0,0.0,0.0,0.0,0.0,0.0,0.0,0.0,0.0,0.0,0.0,0.0,0.0,0.0,4.5594,4.5594,0.0,0.0,0.0,0.0,0.0,0.0,4.5594,0.0,4.5594,0.0,4.5806,4.5901,4.592,4.6198,4.6308,4.6308,0.0,0.0,0.0,0.0,0.0,0.0,0.0,0.0,0.0,4.6308,4.6268,4.6201,4.6119,4.603,4.6022,4.6218,4.6837,0.0,4.8426,4.926,5.0053,5.0572,0.0,0.0,0.0,0.0,5.0707,0.0,0.0,0.0,5.0488,5.026,4.9981,4.9666,4.921,4.8829,4.8684,0.0,0.0,0.0,0.0,0.0,0.0,0.0,0.0,0.0,4.8296,4.8296,4.8296,4.8296,4.8296,4.8296,4.8296,4.8296,4.8296,4.8296,4.8296,4.8296,4.8296,4.8296,4.8296,4.8296,4.8296,4.8296,4.8296,4.8296,4.8296,4.8296,4.8296,4.8296,4.8296,4.8296,4.8296,0.0,0.0,0.0,0.0,0.0,0.0,0.0,0.0,0.0,0.0,0.0,0.0,0.0,0.0,0.0,0.0,0.0,0.0,0.0,0.0,0.0,0.0,0.0,0.0,0.0,0.0,0.0,0.0,0.0,0.0,0.0,0.0,4.5594,4.5594,0.0,4.5594,4.5605,4.5806,4.5901,4.592,4.6198,4.6308,4.6308,4.6308,0.0,0.0,0.0,0.0,0.0,0.0,0.0,0.0,4.6308,4.6201,4.6108,4.6083,4.5959,4.5967,4.6772,0.0,0.0,4.9183,5.0053,0.0,5.0707,5.0707,5.0707,5.0707,0.0,5.0707,0.0,5.0707,5.057,5.0206,5.0086,4.9793,0.0,4.8888,4.8719,4.8335,0.0,0.0,0.0,0.0,0.0,0.0,0.0,0.0,0.0,4.8296,4.8296,4.8296,4.8296,4.8296,4.8296,4.8296,4.8296,4.8296,4.8296,4.8296,4.8296,4.8296,4.8296,4.8296,4.8296,4.8296,4.8296,4.8296,4.8296,4.8296,4.8296,4.8296,4.8296,4.8296,4.8296,4.8296,0.0,0.0,0.0,0.0,0.0,0.0,0.0,0.0,0.0,0.0,0.0,0.0,0.0,0.0,0.0,0.0,0.0,0.0,0.0,0.0,0.0,0.0,0.0,0.0,0.0,0.0,0.0,0.0,0.0,0.0,0.0,0.0,0.0,4.5594,0.0,4.5594,4.5605,4.5806,4.5901,4.592,4.6198,4.6308,4.6308,4.6308,4.6308,0.0,0.0,0.0,0.0,0.0,0.0,0.0,4.6308,4.6201,4.608,4.5978,4.5871,4.5959,4.6721,4.7502,0.0,0.0,5.0053,5.0707,5.0707,5.0707,5.0707,5.0707,0.0,0.0,5.0707,5.0707,5.0673,5.0594,5.0043,0.0,0.0,0.0,0.0,0.0,0.0,0.0,0.0,0.0,0.0,0.0,0.0,0.0,4.8296,4.8296,4.8296,4.8296,4.8296,4.8296,4.8296,4.8296,4.8296,0.0,4.8296,4.8296,4.8296,4.8296,4.8296,4.8296,4.8296,4.8296,4.8296,4.8296,4.8296,4.8296,4.8296,4.8296,4.8296,4.8296,4.8296,4.8296,0.0,0.0,0.0,0.0,0.0,0.0,0.0,0.0,0.0,0.0,0.0,0.0,0.0,0.0,0.0,0.0,0.0,0.0,0.0,0.0,0.0,0.0,0.0,0.0,0.0,0.0,0.0,0.0,0.0,0.0,0.0,0.0,0.0,4.5594,0.0,4.5594,4.5605,4.5806,4.5901,4.592,4.6198,4.6308,4.6308,4.6308,4.6308,0.0,0.0,0.0,0.0,0.0,0.0,0.0,0.0,0.0,4.5981,4.5886,4.5774,4.5966,4.7156,0.0,0.0,4.9707,0.0,5.0707,5.0707,5.0707,5.0707,5.0707,5.0707,5.0707,5.0707,5.0707,5.0648,5.0437,4.9904,0.0,0.0,0.0,0.0,0.0,0.0,0.0,0.0,0.0,0.0,0.0,0.0,4.8296,4.8296,4.8296,4.8296,4.8296,4.8296,4.8296,4.8296,4.8296,4.8296,4.8296,4.8296,4.8296,4.8296,4.8296,4.8296,4.8296,4.8296,4.8296,4.8296,4.8296,4.8296,4.8296,4.8296,4.8296,4.8296,4.8296,4.8296,4.8296,0.0,0.0,0.0,0.0,0.0,0.0,0.0,0.0,0.0,0.0,0.0,0.0,0.0,0.0,0.0,0.0,0.0,0.0,0.0,0.0,0.0,0.0,0.0,0.0,0.0,0.0,0.0,0.0,0.0,0.0,0.0,0.0,0.0,4.5594,0.0,4.5594,4.5605,4.5806,4.5901,4.592,4.6198,4.6308,4.6308,4.6308,0.0,0.0,0.0,0.0,4.6308,4.6308,0.0,0.0,0.0,0.0,4.5867,4.5821,4.58,4.6167,4.7682,0.0,4.8894,5.0341,5.0707,0.0,5.0707,5.0707,5.0707,5.0707,5.0707,5.0707,5.0707,5.0707,5.0565,5.0165,4.976,0.0,0.0,0.0,0.0,0.0,0.0,0.0,0.0,0.0,0.0,0.0,0.0,4.8296,4.8296,4.8296,4.8296,4.8296,4.8296,4.8296,4.8296,4.8296,4.8296,4.8296,4.8296,4.8296,4.8296,4.8296,4.8296,4.8296,4.8296,4.8296,4.8296,4.8296,4.8296,4.8296,4.8296,4.8296,4.8296,4.8296,4.8296,4.8296,0.0,0.0,0.0,0.0,0.0,0.0,0.0,0.0,0.0,0.0,0.0,0.0,0.0,0.0,0.0,0.0,0.0,0.0,0.0,0.0,0.0,0.0,0.0,0.0,0.0,0.0,0.0,0.0,0.0,0.0,0.0,0.0,0.0,4.5594,0.0,0.0,4.5605,4.5806,4.5901,4.592,4.6198,4.6308,4.6308,0.0,0.0,0.0,0.0,0.0,0.0,4.6308,4.6224,0.0,0.0,0.0,4.5809,4.5806,4.6241,4.6928,0.0,0.0,5.0418,0.0,5.0707,5.0707,0.0,0.0,5.0707,0.0,5.0707,5.0707,5.0707,5.0707,5.0565,5.0165,0.0,0.0,0.0,0.0,0.0,0.0,0.0,0.0,0.0,0.0,0.0,0.0,4.8296,4.8296,4.8296,4.8296,4.8296,4.8296,4.8296,4.8296,4.8296,4.8296,4.8296,4.8296,4.8296,4.8296,4.8296,4.8296,4.8296,4.8296,4.8296,4.8296,4.8296,4.8296,4.8296,4.8296,4.8296,4.8296,4.8296,4.8296,4.8296,4.8296,0.0,0.0,0.0,0.0,0.0,0.0,0.0,0.0,0.0,0.0,0.0,0.0,0.0,0.0,0.0,0.0,0.0,0.0,0.0,0.0,0.0,4.4793,4.5134,4.541,0.0,0.0,0.0,0.0,0.0,0.0,0.0,4.5594,4.5594,0.0,0.0,0.0,0.0,0.0,4.5901,4.592,4.6198,4.6308,0.0,0.0,0.0,0.0,0.0,0.0,0.0,0.0,4.6202,4.6083,4.6003,0.0,0.0,0.0,4.626,4.7178,4.849,4.9745,5.0707,0.0,5.0707,5.0707,5.0707,0.0,5.0648,5.041,5.0358,5.0358,5.0358,5.0358,5.0237,4.9827,0.0,0.0,0.0,0.0,0.0,0.0,0.0,0.0,0.0,0.0,0.0,0.0,4.8296,4.8296,4.8296,4.8296,4.8296,4.8296,4.8296,4.8296,4.8296,4.8296,4.8296,4.8296,4.8296,4.8296,4.8296,4.8296,4.8296,4.8296,4.8296,4.8296,4.8296,4.8296,4.8296,4.8296,4.8296,4.8296,4.8296,4.8296,4.8296,4.8296,0.0,0.0,0.0,0.0,0.0,0.0,0.0,0.0,0.0,0.0,0.0,0.0,0.0,0.0,0.0,0.0,0.0,0.0,0.0,0.0,0.0,4.4573,4.4919,4.5253,4.5586,0.0,0.0,0.0,0.0,0.0,4.5594,4.5594,4.5594,0.0,4.5594,0.0,0.0,0.0,0.0,0.0,0.0,0.0,0.0,0.0,0.0,0.0,0.0,0.0,0.0,0.0,0.0,0.0,0.0,0.0,0.0,0.0,0.0,0.0,0.0,0.0,5.0707,5.0707,5.0707,5.0673,0.0,0.0,5.0426,0.0,4.9949,4.9917,4.9813,4.9891,4.9813,4.9416,0.0,0.0,0.0,0.0,0.0,0.0,0.0,0.0,0.0,0.0,0.0,0.0,4.8296,4.8296,4.8296,4.8296,4.8296,4.8296,4.8296,4.8296,4.8296,4.8296,4.8296,4.8296,4.8296,4.8296,4.8296,4.8296,4.8296,4.8296,4.8296,4.8296,4.8296,4.8296,4.8296,4.8296,4.8296,4.8296,4.8296,4.8296,4.8296,4.8296,0.0,0.0,0.0,0.0,0.0,0.0,0.0,0.0,0.0,0.0,0.0,0.0,0.0,0.0,0.0,0.0,0.0,0.0,0.0,0.0,0.0,4.4573,4.4919,0.0,4.5586,0.0,0.0,0.0,0.0,0.0,4.5594,4.5594,4.5594,4.5594,4.5594,4.5594,4.5607,0.0,0.0,0.0,0.0,0.0,0.0,0.0,0.0,0.0,0.0,0.0,0.0,0.0,0.0,0.0,0.0,0.0,0.0,0.0,0.0,0.0,0.0,5.0034,0.0,5.0707,5.0707,0.0,0.0,0.0,0.0,0.0,4.9525,4.9416,4.9027,4.9272,4.9401,4.9005,0.0,0.0,0.0,0.0,0.0,0.0,0.0,0.0,0.0,0.0,0.0,0.0,4.8296,4.8296,4.8296,4.8296,4.8296,4.8296,4.8296,4.8296,4.8296,4.8296,4.8296,4.8296,4.8296,4.8296,4.8296,4.8296,4.8296,4.8296,4.8296,4.8296,4.8296,4.8296,4.8296,4.8296,4.8296,4.8296,4.8296,4.8296,4.8296,4.8296,0.0,0.0,0.0,0.0,0.0,0.0,0.0,0.0,0.0,0.0,0.0,0.0,0.0,0.0,4.3506,4.3506,4.3506,0.0,0.0,0.0,0.0,4.4573,4.4919,4.5253,4.5586,0.0,0.0,0.0,0.0,4.5594,4.5594,4.5594,4.5594,4.5594,4.5594,4.5594,4.5607,4.574,0.0,0.0,0.0,0.0,0.0,0.0,0.0,0.0,0.0,0.0,0.0,0.0,0.0,0.0,0.0,0.0,0.0,0.0,0.0,0.0,0.0,0.0,0.0,5.03,5.011,4.9898,4.9746,4.9719,4.9596,4.9202,4.9108,4.8996,4.8586,4.8847,4.8988,0.0,0.0,0.0,0.0,0.0,0.0,0.0,0.0,0.0,0.0,0.0,0.0,0.0,0.0,4.8296,4.8296,4.8296,4.8296,4.8296,4.8296,4.8296,4.8296,4.8296,4.8296,4.8296,4.8296,4.8296,4.8296,4.8296,4.8296,4.8296,4.8296,4.8296,4.8296,4.8296,4.8296,4.8296,4.8296,4.8296,4.8296,4.8296,4.8296,4.8296,0.0,0.0,0.0,0.0,0.0,0.0,0.0,0.0,0.0,0.0,0.0,0.0,0.0,0.0,4.3506,4.3506,4.3506,4.3506,4.3506,4.382,4.4175,4.4573,4.4919,4.5253,0.0,0.0,0.0,0.0,0.0,0.0,0.0,4.5594,4.5594,4.5594,4.5594,4.5594,0.0,0.0,0.0,4.591,0.0,0.0,4.6308,0.0,0.0,0.0,0.0,0.0,0.0,0.0,0.0,0.0,0.0,0.0,0.0,0.0,0.0,0.0,4.8721,0.0,0.0,0.0,0.0,4.9624,4.9363,0.0,4.9179,4.8779,4.8701,4.8622,4.8345,4.8523,4.8613,4.8335,0.0,0.0,0.0,0.0,0.0,0.0,0.0,0.0,0.0,0.0,0.0,0.0,0.0,0.0,4.8296,4.8296,4.8296,4.8296,4.8296,4.8296,4.8296,4.8296,4.8296,4.8296,4.8296,4.8296,4.8296,4.8296,4.8296,4.8296,4.8296,4.8296,4.8296,4.8296,4.8296,4.8296,4.8296,4.8296,4.8296,4.8296,4.8296,4.8296,0.0,0.0,0.0,0.0,0.0,0.0,0.0,0.0,0.0,0.0,0.0,0.0,0.0,0.0,0.0,4.3506,4.3506,4.3506,4.3506,4.381,4.419,4.4573,0.0,0.0,0.0,0.0,0.0,0.0,0.0,0.0,0.0,0.0,4.5594,4.5594,4.5594,4.5594,4.5607,0.0,4.583,4.591,0.0,4.6175,4.6308,0.0,0.0,0.0,4.6308,4.6203,0.0,4.5957,0.0,0.0,0.0,0.0,0.0,0.0,0.0,0.0,0.0,0.0,0.0,0.0,0.0,0.0,4.9059,0.0,4.877,4.8383,4.8296,4.8296,4.8296,4.8296,4.8296,4.8296,0.0,0.0,0.0,0.0,0.0,0.0,0.0,0.0,0.0,0.0,0.0,0.0,4.8296,4.8296,4.8296,4.8296,4.8296,4.8296,4.8296,4.8296,4.8296,4.8296,4.8296,4.8296,4.8296,4.8296,4.8296,4.8296,4.8296,4.8296,4.8296,4.8296,4.8296,4.8296,4.8296,4.8296,4.8296,4.8296,4.8296,4.8296,4.8296,4.8296,0.0,0.0,0.0,0.0,0.0,0.0,0.0,0.0,0.0,0.0,0.0,0.0,0.0,0.0,0.0,4.3506,4.3506,4.3506,4.3506,4.4095,4.4487,4.4605,4.515,4.5504,0.0,0.0,0.0,0.0,0.0,0.0,0.0,0.0,0.0,0.0,4.5594,4.5594,4.5599,4.5639,0.0,0.0,4.5934,4.6087,0.0,0.0,0.0,0.0,0.0,4.6203,4.608,0.0,4.5853,4.5789,0.0,0.0,0.0,0.0,0.0,0.0,4.7178,0.0,0.0,0.0,0.0,0.0,0.0,0.0,4.843,4.8325,4.8296,4.8296,4.8296,4.8296,4.8296,4.8296,0.0,0.0,0.0,0.0,0.0,0.0,0.0,0.0,0.0,0.0,0.0,0.0,4.8296,4.8296,4.8296,4.8296,4.8296,4.8296,4.8296,4.8296,4.8296,4.8296,4.8296,4.8296,4.8296,4.8296,4.8296,4.8296,4.8296,4.8296,4.8296,4.8296,4.8296,4.8296,4.8296,4.8296,4.8296,4.8296,4.8296,4.8296,4.8296,4.8296,0.0,0.0,0.0,0.0,0.0,0.0,0.0,0.0,0.0,0.0,0.0,0.0,0.0,0.0,0.0,0.0,4.3506,4.3506,4.3506,4.4198,4.4593,4.4593,4.5248,4.5594,4.5594,0.0,0.0,0.0,0.0,0.0,0.0,0.0,0.0,0.0,0.0,0.0,0.0,0.0,0.0,0.0,4.5969,0.0,0.0,4.6308,4.6308,0.0,0.0,0.0,4.608,4.5957,4.5811,0.0,0.0,0.0,0.0,0.0,0.0,0.0,0.0,0.0,0.0,0.0,0.0,0.0,4.8556,4.8421,4.8296,0.0,4.8296,4.8296,4.8296,4.8296,4.8296,4.8296,0.0,0.0,0.0,0.0,0.0,0.0,0.0,0.0,0.0,4.8296,4.8296,4.8296,4.8296,4.8296,4.8296,4.8296,4.8296,4.8296,4.8296,4.8296,4.8296,4.8296,4.8296,4.8296,4.8296,4.8296,4.8296,4.8296,4.8296,4.8296,4.8296,4.8296,4.8296,4.8296,4.8296,4.8296,4.8296,4.8296,4.8296,4.8296,4.8296,4.8296,0.0,0.0,0.0,0.0,0.0,0.0,0.0,0.0,0.0,0.0,0.0,0.0,0.0,0.0,0.0,0.0,4.3506,4.3506,4.3506,4.4154,4.4547,4.4612,4.5217,4.5564,4.559,4.484,0.0,0.0,0.0,0.0,0.0,0.0,0.0,0.0,0.0,0.0,0.0,0.0,0.0,4.591,4.6033,4.6172,0.0,0.0,4.6308,4.6308,4.6308,4.6203,4.6078,4.5944,4.5754,0.0,0.0,0.0,0.0,0.0,4.5594,0.0,0.0,0.0,0.0,0.0,0.0,0.0,4.8613,4.8494,4.8296,4.8296,4.8296,4.8296,4.8296,4.8296,4.8296,4.8296,4.8296,0.0,0.0,0.0,0.0,0.0,0.0,0.0,4.8296,4.8296,4.8296,4.8296,4.8296,4.8296,4.8296,4.8296,4.8296,4.8296,4.8296,4.8296,4.8296,4.8296,4.8296,4.8296,4.8296,4.8296,4.8296,4.8296,4.8296,4.8296,4.8296,4.8296,4.8296,4.8296,4.8296,4.8296,4.8296,4.8296,4.8296,4.8296,4.8296,4.8296,0.0,0.0,0.0,0.0,0.0,0.0,0.0,0.0,0.0,0.0,0.0,0.0,0.0,0.0,0.0,0.0,0.0,4.3506,0.0,4.3881,4.4254,4.4599,4.4977,4.5322,4.559,4.5436,4.5436,4.5594,0.0,0.0,0.0,0.0,0.0,0.0,0.0,0.0,0.0,0.0,0.0,4.5903,4.5924,0.0,4.6308,4.6308,4.6308,4.6308,4.6308,4.6203,4.6072,4.5883,4.5725,4.5594,0.0,0.0,0.0,0.0,0.0,0.0,0.0,0.0,0.0,0.0,0.0,0.0,4.757,4.7885,4.8296,4.8296,4.8296,4.8296,4.8296,4.8296,4.8296,4.8296,4.8296,0.0,0.0,0.0,0.0,0.0,0.0,0.0,4.8296,4.8296,4.8296,4.8296,4.8296,4.8296,4.8296,4.8296,4.8296,4.8296,4.8296,4.8296,4.8296,4.8296,4.8296,4.8296,4.8296,4.8296,4.8296,4.8296,4.8296,4.8296,4.8296,4.8296,4.8296,4.8296,4.8296,4.8296,4.8296,4.8296,4.8296,4.8296,4.8296,4.8296,0.0,0.0,0.0,0.0,0.0,0.0,0.0,0.0,0.0,0.0,0.0,0.0,0.0,0.0,0.0,0.0,0.0,0.0,0.0,0.0,4.4638,4.4849,4.5161,4.5429,4.5609,4.5594,4.5594,4.5594,0.0,0.0,0.0,0.0,0.0,0.0,0.0,0.0,0.0,0.0,4.5719,4.5901,4.5901,0.0,4.6308,4.6308,4.6308,4.6308,4.6308,4.6203,4.6075,4.591,4.5774,0.0,0.0,4.5594,4.5594,0.0,4.5594,4.5594,0.0,0.0,0.0,4.6082,0.0,0.0,0.0,4.7555,4.7819,4.8223,4.8296,4.8296,4.8296,0.0,4.8296,4.8296,4.8296,0.0,0.0,0.0,0.0,0.0,0.0,0.0,4.8296,4.8296,4.8296,4.8296,4.8296,4.8296,4.8296,4.8296,4.8296,4.8296,4.8296,4.8296,4.8296,4.8296,4.8296,4.8296,4.8296,4.8296,4.8296,4.8296,4.8296,4.8296,4.8296,4.8296,4.8296,4.8296,4.8296,4.8296,4.8296,4.8296,4.8296,4.8296,4.8296,4.8296,0.0,0.0,0.0,0.0,0.0,0.0,0.0,0.0,0.0,0.0,0.0,0.0,0.0,0.0,0.0,0.0,0.0,0.0,0.0,0.0,4.5036,4.5096,4.5352,4.5527,4.559,4.5594,4.5594,4.5594,4.5594,0.0,0.0,0.0,0.0,0.0,0.0,0.0,0.0,0.0,0.0,4.5901,0.0,4.6051,4.6308,4.6308,4.6308,4.6308,4.6308,4.6203,4.6082,4.598,4.5876,4.5776,4.5673,4.5629,0.0,0.0,0.0,0.0,0.0,0.0,0.0,0.0,0.0,4.606,0.0,0.0,0.0,0.0,0.0,0.0,0.0,0.0,0.0,0.0,0.0,0.0,0.0,0.0,0.0,0.0,0.0,0.0,4.8296,4.8296,4.8296,4.8296,4.8296,4.8296,4.8296,4.8296,4.8296,4.8296,4.8296,4.8296,4.8296,4.8296,4.8296,4.8296,4.8296,4.8296,4.8296,4.8296,4.8296,4.8296,4.8296,4.8296,4.8296,4.8296,4.8296,4.8296,4.8296,4.8296,4.8296,4.8296,4.8296,4.8296,4.3506,4.3506,0.0,0.0,0.0,0.0,0.0,0.0,0.0,0.0,0.0,0.0,0.0,0.0,0.0,0.0,0.0,0.0,4.4527,0.0,0.0,4.5085,4.5148,4.5302,4.5586,4.5594,4.5594,4.5594,4.5594,4.5594,0.0,0.0,0.0,0.0,4.5725,0.0,0.0,0.0,4.5819,0.0,4.5901,4.6051,0.0,4.6308,4.6308,4.6308,4.6308,4.6203,4.6108,0.0,4.5946,4.5796,0.0,4.5692,4.5594,0.0,0.0,0.0,0.0,0.0,0.0,0.0,4.5513,0.0,0.0,0.0,4.7131,4.7223,0.0,0.0,0.0,0.0,0.0,0.0,0.0,0.0,0.0,0.0,0.0,0.0,0.0,0.0,0.0,4.8296,4.8296,4.8296,4.8296,4.8296,4.8296,4.8296,4.8296,4.8296,4.8296,4.8296,4.8296,4.8296,4.8296,4.8296,4.8296,4.8296,4.8296,4.8296,4.8296,4.8296,4.8296,4.8296,4.8296,4.8296,4.8296,4.8296,4.8296,4.8296,4.8296,4.8296,4.8296,4.8296,4.3506,4.3506,0.0,0.0,0.0,0.0,0.0,0.0,0.0,0.0,0.0,0.0,0.0,0.0,0.0,0.0,0.0,4.4676,0.0,0.0,0.0,0.0,4.5395,4.5467,4.559,4.5594,4.5594,4.5594,4.5594,4.5594,0.0,0.0,0.0,0.0,4.5766,0.0,4.5786,0.0,4.5914,0.0,0.0,0.0,0.0,4.6308,4.6308,4.6308,4.6308,4.6268,4.6201,0.0,4.6032,0.0,0.0,0.0,0.0,0.0,0.0,0.0,0.0,0.0,0.0,0.0,0.0,0.0,4.5226,0.0,4.6064,0.0,0.0,0.0,0.0,0.0,0.0,0.0,4.8076,0.0,0.0,0.0,0.0,0.0,0.0,0.0,0.0,0.0,0.0,0.0,4.8296,4.8296,4.8296,4.8296,4.8296,4.8296,4.8296,4.8296,4.8296,4.8296,4.8296,4.8296,4.8296,4.8296,4.8296,4.8296,4.8296,4.8296,4.8296,4.8296,4.8296,4.8296,4.8296,4.8296,4.8296,4.8296,4.8296,4.8296,4.8296,4.8296,0.0,0.0,0.0,0.0,0.0,0.0,4.3506,4.3506,4.3506,0.0,0.0,0.0,4.3791,4.3884,0.0,0.0,4.4707,4.4977,0.0,0.0,4.5594,0.0,0.0,0.0,0.0,4.5594,4.5594,4.5594,4.5594,4.5594,0.0,0.0,0.0,0.0,0.0,4.5829,4.5872,0.0,0.0,4.6109,4.6109,4.6175,4.6308,4.6308,4.6308,4.6308,4.6308,4.6308,4.6289,4.6197,4.6121,0.0,4.589,0.0,0.0,0.0,0.0,0.0,4.5594,0.0,0.0,0.0,0.0,0.0,0.0,0.0,0.0,0.0,0.0,0.0,0.0,0.0,0.0,0.0,0.0,0.0,0.0,0.0,0.0,0.0,0.0,0.0,0.0,0.0,0.0,4.8296,4.8296,4.8296,4.8296,4.8296,4.8296,4.8296,4.8296,4.8296,4.8296,4.8296,4.8296,4.8296,4.8296,4.8296,4.8296,4.8296,4.8296,4.8296,4.8296,4.8296,4.8296,4.8296,4.8296,4.8296,4.8296,4.8296,4.8296,4.8296,4.8296,4.8296,4.3506,4.3506,0.0,0.0,0.0,0.0,4.3506,4.3506,4.3506,0.0,0.0,0.0,0.0,0.0,0.0,0.0,0.0,4.5573,4.5581,0.0,4.5594,0.0,0.0,4.5594,0.0,0.0,4.5594,4.5594,4.5594,4.5594,4.5594,0.0,0.0,0.0,0.0,4.5803,4.5819,4.5869,4.5981,4.6109,4.6109,4.6175,4.6308,0.0,4.6308,4.6308,4.6308,0.0,0.0,4.6308,4.6201,0.0,0.0,0.0,0.0,0.0,0.0,0.0,0.0,0.0,0.0,4.5581,0.0,0.0,0.0,0.0,4.5111,0.0,0.0,0.0,0.0,0.0,0.0,0.0,0.0,0.0,0.0,0.0,0.0,0.0,0.0,0.0,0.0,0.0,0.0,4.8296,4.8296,4.8296,4.8296,4.8296,4.8296,4.8296,4.8296,4.8296,4.8296,4.8296,4.8296,4.8296,4.8296,4.8296,4.8296,4.8296,4.8296,4.8296,4.8296,4.8296,4.8296,4.8296,4.8296,4.8296,4.8296,4.8296,4.8296,4.8296,4.8296,4.8296,0.0,0.0,0.0,0.0,0.0,4.392,4.4198,4.4234,4.4234,0.0,0.0,0.0,0.0,4.4695,4.4908,0.0,0.0,4.5357,4.5581,4.5594,0.0,0.0,0.0,4.5594,0.0,0.0,0.0,0.0,0.0,4.5594,4.5594,0.0,0.0,0.0,0.0,4.5823,0.0,0.0,0.0,0.0,0.0,4.6268,4.6308,0.0,0.0,4.6308,4.6308,4.6308,0.0,4.6308,4.6268,4.6202,4.6077,4.5954,4.5847,4.5763,4.5669,0.0,0.0,0.0,4.5594,4.5594,0.0,0.0,0.0,0.0,0.0,0.0,0.0,0.0,0.0,0.0,0.0,0.0,0.0,0.0,0.0,0.0,0.0,0.0,0.0,0.0,0.0,0.0,0.0,4.8296,4.8296,4.8296,4.8296,4.8296,4.8296,4.8296,4.8296,4.8296,4.8296,4.8296,4.8296,4.8296,4.8296,4.8296,4.8296,4.8296,4.8296,4.8296,4.8296,4.8296,4.8296,4.8296,4.8296,4.8296,4.8296,4.8296,4.8296,4.8296,4.8296,4.8296,4.4204,0.0,0.0,0.0,0.0,0.0,4.456,0.0,0.0,0.0,4.4695,0.0,4.4788,0.0,4.5033,0.0,4.5287,4.5362,4.5581,4.5594,0.0,4.5594,4.5594,0.0,0.0,0.0,0.0,0.0,0.0,4.5594,4.5594,0.0,0.0,0.0,0.0,4.5861,4.598,0.0,4.6175,0.0,0.0,4.6308,0.0,0.0,4.6308,4.6308,0.0,4.6308,4.6308,4.6308,4.6308,4.6288,4.6145,4.604,4.595,4.5826,4.5736,4.5657,4.5616,4.5594,0.0,4.5594,4.5594,0.0,4.518,0.0,0.0,0.0,0.0,0.0,0.0,0.0,0.0,0.0,0.0,0.0,0.0,0.0,0.0,0.0,0.0,0.0,0.0,0.0,4.8296,4.8296,4.8296,4.8296,0.0,0.0,4.8296,4.8296,4.8296,4.8296,4.8296,4.8296,4.8296,4.8296,4.8296,4.8296,4.8296,4.8296,4.8296,4.8296,4.8296,4.8296,4.8296,4.8296,4.8296,4.8296,4.8296,4.8296,4.8296,4.8296,4.8296,4.8296,0.0,0.0,0.0,0.0,4.465,0.0,0.0,0.0,4.4644,0.0,4.4925,4.5118,4.5118,4.541,4.5594,4.5594,4.5594,4.5594,4.5594,4.5594,0.0,0.0,4.5594,4.5594,4.5594,0.0,0.0,0.0,0.0,0.0,0.0,0.0,0.0,0.0,4.5793,0.0,4.6109,4.6109,4.6175,4.6308,4.6308,4.6308,4.6308,4.6308,4.6308,4.6308,4.6308,4.6308,4.6308,4.6308,4.6308,4.6288,4.6147,4.6112,4.6064,4.5867,4.5806,4.5759,4.5635,4.5594,4.5594,4.5594,0.0,0.0,0.0,0.0,4.5019,0.0,0.0,0.0,0.0,0.0,0.0,0.0,0.0,0.0,0.0,0.0,0.0,0.0,0.0,0.0,0.0,4.8296,4.8296,4.8296,4.8296,4.8296,0.0,0.0,4.8296,4.8296,4.8296,4.8296,4.8296,4.8296,4.8296,4.8296,4.8296,4.8296,4.8296,4.8296,4.8296,4.8296,4.8296,4.8296,4.8296,4.8296,4.8296,4.8296,4.8296,4.8296,4.8296,4.8296,4.8296,4.8296,4.4966,4.5166,4.5347,0.0,4.5134,4.5063,0.0,0.0,0.0,0.0,4.5419,4.5481,4.5481,4.5555,4.5594,4.5594,4.5594,0.0,0.0,0.0,0.0,4.5594,4.5594,4.5594,4.5594,4.5594,0.0,4.5594,0.0,0.0,4.5751,0.0,0.0,0.0,0.0,0.0,4.6109,4.6109,4.6175,4.6308,4.6308,4.6308,0.0,0.0,4.6308,4.6308,4.6308,4.6308,4.6308,4.6308,4.6308,4.6289,4.6268,4.6175,4.6073,4.5918,4.5836,4.5759,4.5635,4.5594,4.5594,4.5594,4.5594,4.5577,0.0,0.0,0.0,0.0,0.0,0.0,0.0,0.0,0.0,0.0,0.0,0.0,0.0,0.0,0.0,0.0,0.0,0.0,0.0,4.8296,4.8296,4.8296,4.8296,4.8296,0.0,0.0,0.0,4.8296,4.8296,4.8296,4.8296,4.8296,4.8296,4.8296,4.8296,4.8296,4.8296,4.8296,4.8296,4.8296,4.8296,4.8296,4.8296,4.8296,4.8296,4.8296,4.8296,4.8296,4.8296,4.8296,4.8296,4.8296,4.5322,0.0,0.0,4.5594,0.0,0.0,4.5573,4.5594,0.0,4.5594,4.5594,0.0,4.5594,4.5594,4.5594,4.5594,4.5594,0.0,4.5594,0.0,0.0,4.5594,4.5594,4.5637,4.5696,4.5696,0.0,4.5727,0.0,0.0,4.5847,0.0,0.0,0.0,0.0,4.6051,4.6197,4.6197,4.6225,4.6308,4.6308,0.0,0.0,4.6308,4.6308,4.6308,4.6308,4.6308,4.6308,4.6308,4.6308,4.6308,4.6308,4.6247,4.6147,4.5965,4.5869,4.5817,4.564,4.5594,4.5594,4.5594,4.5594,4.5594,4.5594,4.5448,4.5322,0.0,0.0,0.0,0.0,0.0,0.0,0.0,0.0,0.0,0.0,0.0,0.0,0.0,0.0,0.0,0.0,4.8296,4.8296,4.8296,4.8296,0.0,0.0,0.0,0.0,4.8296,4.8296,4.8296,4.8296,4.8296,4.8296,4.8296,4.8296,4.8296,4.8296,4.8296,4.8296,4.8296,4.8296,4.8296,4.8296,4.8296,4.8296,4.8296,4.8296,4.8296,4.8296,4.8296,4.8296,4.8296,4.5936,0.0,0.0,0.0,0.0,0.0,0.0,4.5744,0.0,4.5594,0.0,4.5594,4.5594,4.5594,4.5594,4.5594,0.0,4.5594,4.5594,4.5594,4.5594,4.5594,4.562,4.5688,4.5796,4.5803,0.0,0.0,0.0,0.0,0.0,0.0,0.0,0.0,0.0,0.0,0.0,4.6308,4.6308,4.6308,4.6308,4.6308,4.6308,4.6308,4.6308,4.6308,4.6308,4.6308,4.6308,4.6308,4.6308,4.6308,4.6308,4.6308,4.6247,4.5995,4.5912,4.5869,4.5688,4.5616,4.5594,4.5594,4.5594,4.5594,4.5594,4.5594,4.5594,4.5594,4.5362,4.5237,0.0,0.0,0.0,0.0,0.0,0.0,0.0,0.0,0.0,0.0,0.0,0.0,0.0,0.0,4.8296,4.8296,4.8296,0.0,0.0,0.0,0.0,4.8296,4.8296,4.8296,4.8296,0.0,4.8296,4.8296,4.8296,4.8296,4.8296,4.8296,4.8296,4.8296,4.8296,4.8296,4.8296,4.8296,4.8296,4.8296,4.8296,4.8296,4.8296,4.8296,4.8296,4.8296,0.0,0.0,0.0,0.0,0.0,4.7663,4.7663,4.6494,4.5594,4.5594,4.5594,4.5594,4.5594,4.5594,4.5594,4.5594,4.5594,0.0,0.0,0.0,0.0,4.5594,4.5708,4.5789,4.5799,4.585,4.5898,0.0,0.0,0.0,0.0,0.0,0.0,0.0,0.0,0.0,4.6308,4.6308,0.0,4.6308,4.6308,4.6308,4.6308,4.6308,4.6308,4.6308,4.6308,4.6308,4.6308,4.6308,4.6308,4.6308,4.6308,4.6308,4.6268,4.6114,4.5987,4.5889,4.579,4.5673,4.5594,4.5594,4.5594,4.5594,4.5594,4.5594,4.5594,4.5594,4.5559,4.5438,4.5227,0.0,0.0,0.0,0.0,0.0,0.0,0.0,0.0,0.0,0.0,0.0,0.0,0.0,0.0,0.0,0.0,0.0,0.0,0.0,0.0,0.0,4.8296,0.0,0.0,0.0,4.8296,4.8296,4.8296,4.8296,4.8296,4.8296,4.8296,4.8296,4.8296,4.8296,4.8296,4.8296,4.8296,4.8296,4.8296,4.8296,4.8296,4.8296,4.8296,4.8296,0.0,0.0,0.0,0.0,0.0,0.0,0.0,4.7413,0.0,4.6336,4.6278,4.6105,4.5648,4.5594,4.5594,4.5594,4.5594,4.5594,4.5594,4.5661,4.5704,4.5704,4.5802,0.0,4.5944,4.5996,4.6039,4.6113,0.0,0.0,0.0,0.0,0.0,0.0,0.0,4.6308,0.0,0.0,0.0,4.6308,4.6308,4.6308,4.6308,4.6308,4.6308,4.6308,4.6308,4.6308,4.6308,4.6308,4.6308,4.6308,4.6308,4.6308,4.6269,4.6144,4.6019,4.5893,4.5828,4.57,4.5594,4.5594,4.5594,4.5594,4.5594,4.5594,4.5594,4.5594,4.5594,4.5499,4.515,4.496,0.0,0.0,0.0,0.0,0.0,0.0,0.0,0.0,0.0,0.0,0.0,0.0,0.0,0.0,0.0,0.0,0.0,0.0,0.0,0.0,0.0,0.0,0.0,0.0,0.0,4.8296,4.8296,4.8296,4.8296,4.8296,4.8296,4.8296,4.8296,4.8296,4.8296,4.8296,4.8296,4.8296,4.8296,4.8296,4.8296,4.8296,4.8094,4.7887,0.0,4.8644,0.0,0.0,4.8644,0.0,4.8644,4.869,4.8318,4.7283,4.7158,4.6889,4.6206,4.5999,4.5894,4.5894,4.5742,4.5654,4.5654,4.576,4.5814,4.5814,4.5893,4.599,4.6108,4.6316,4.6374,0.0,0.0,0.0,0.0,0.0,0.0,0.0,0.0,0.0,0.0,0.0,4.6855,4.6855,4.6855,4.6738,4.6582,4.6582,4.6465,4.6308,4.6308,4.6308,4.6308,4.6308,4.6308,4.6308,4.6308,4.6308,4.6269,4.6144,4.6019,4.5893,4.5828,4.57,4.5594,4.5594,4.5594,4.5594,4.5594,4.5594,4.5594,4.5594,4.5594,4.5513,4.5248,4.5206,0.0,0.0,0.0,0.0,0.0,0.0,0.0,0.0,0.0,0.0,0.0,0.0,0.0,0.0,0.0,0.0,0.0,0.0,0.0,0.0,0.0,4.8296,4.8296,0.0,4.8296,0.0,4.8296,4.8296,4.8296,4.8296,4.8296,4.8296,4.8296,4.8296,4.8296,4.8296,4.8296,4.8296,4.8296,4.8296,4.8287,4.8162,4.7808,4.7438,0.0,0.0,0.0,0.0,0.0,0.0,5.0457,5.0565,5.0004,4.8229,4.7985,4.7966,4.787,4.7279,4.6862,4.6862,4.6255,4.5867,4.5867,4.5876,4.5883,4.5883,4.6001,4.6083,4.6108,4.6985,4.709,0.0,0.0,0.0,0.0,0.0,0.0,0.0,0.0,0.0,0.0,4.8652,4.8652,4.8652,4.8652,4.8183,4.748,4.748,4.6992,4.6308,4.6308,4.6308,4.6308,4.6308,4.6308,4.6308,4.6308,4.6308,4.6269,4.6144,4.6019,4.5893,4.5828,4.57,4.5594,4.5594,4.5594,4.5594,4.5594,4.5594,4.5594,4.5594,4.5594,4.5586,4.5564,4.5559,4.5531,0.0,0.0,0.0,0.0,0.0,0.0,0.0,0.0,0.0,0.0,4.8863,0.0,0.0,0.0,0.0,0.0,0.0,0.0,4.8296,0.0,4.8296,4.8296,4.8296,4.8296,4.8296,4.8296,4.8296,4.8296,4.8296,4.8296,4.8296,4.8296,4.8296,4.8296,4.8296,4.8296,4.8296,4.8296,4.8296,4.822,4.7695,4.7438,4.7331,0.0,0.0,0.0,0.0,0.0,0.0,0.0,5.0935,5.0751,5.0009,4.9443,4.8923,4.8403,4.8072,4.7892,4.7892,4.7634,4.7469,4.7469,4.7545,4.7573,4.7573,4.771,4.7786,4.7786,4.8163,4.8203,0.0,0.0,0.0,0.0,0.0,0.0,0.0,0.0,4.8906,4.8906,4.8906,4.8906,4.8906,4.8906,4.8691,4.8379,4.8379,4.8102,4.7677,4.7152,4.69,4.6769,4.6245,4.6172,4.6289,4.6201,4.6175,4.6149,4.6027,4.5907,4.5825,4.5819,4.57,4.5594,4.5594,4.5594,4.5594,4.5594,4.5594,4.5594,4.5594,4.5594,4.5594,4.5594,4.5594,4.5594,0.0,0.0,0.0,0.0,0.0,0.0,0.0,0.0,0.0,0.0,0.0,0.0,0.0,0.0,0.0,0.0,0.0,0.0,4.8296,0.0,4.8296,4.8296,4.8296,4.8296,4.8296,4.8296,4.8296,4.8296,4.8296,4.8296,4.8296,4.8296,4.8296,4.8296,4.8296,4.8296,4.8296,4.8296,4.8296,4.822,4.7614,4.715,4.6698,5.0757,0.0,5.0822,0.0,5.0901,5.095,5.095,5.1066,5.1126,5.1126,5.0633,5.001,4.9344,4.9075,4.8939,4.8939,4.8732,4.8629,4.8629,4.8711,4.8769,4.8769,4.8845,0.0,4.8906,4.9141,4.916,4.8906,4.916,0.0,0.0,0.0,0.0,0.0,4.9531,4.9648,4.9648,4.9648,4.9648,4.9648,4.9648,4.9492,4.9277,4.9236,4.9007,4.86,4.7956,4.7651,4.7483,4.6865,4.6786,4.6832,4.6231,4.604,4.6026,4.5903,4.5833,4.579,4.5754,4.5673,4.5594,4.5594,4.5594,4.5594,4.5594,4.5594,4.5594,4.5594,4.5594,4.5594,4.5594,4.5594,4.5594,4.5594,0.0,0.0,0.0,0.0,0.0,0.0,4.9397,5.0074,4.9547,0.0,0.0,0.0,0.0,0.0,0.0,0.0,0.0,0.0,0.0,0.0,0.0,4.8296,4.8296,4.8296,4.8296,4.8296,4.8296,4.8296,4.8296,4.8296,4.8296,4.8296,4.8296,4.8296,4.8296,4.8296,4.8296,4.8191,4.7957,4.7342,4.6687,4.6051,5.0905,5.1007,5.1106,5.1106,5.1108,5.1108,5.1108,5.1169,5.1201,5.1201,5.13,5.1295,5.11,5.041,4.999,4.999,4.9328,4.8906,4.8906,4.8906,4.8906,0.0,0.0,4.8906,4.8906,4.9746,4.9766,4.8906,0.0,0.0,4.8926,0.0,5.0176,5.0215,5.1016,5.1367,5.1367,5.1367,5.1367,5.1367,5.1367,5.0898,5.0175,5.0033,4.9444,4.8672,4.8533,4.8485,4.8482,4.8463,4.8465,4.8178,4.6444,4.5903,4.5898,4.5814,4.5803,4.5763,4.5639,4.5594,4.5594,4.5594,4.5594,4.5594,4.5594,4.5594,4.5594,4.5594,4.5594,4.5594,4.5594,4.5594,4.5594,4.5594,0.0,0.0,0.0,0.0,0.0,0.0,4.9625,5.0388,4.9587,0.0,0.0,0.0,0.0,0.0,0.0,0.0,0.0,4.8296,4.8296,0.0,4.8296,4.8296,4.8296,4.8296,4.8296,4.8296,4.8296,4.8296,4.8296,4.8296,4.8296,4.8296,4.8296,4.8296,4.8296,4.8296,4.8296,4.7937,4.7331,4.6652,4.6039,4.542,5.1024,5.1061,5.1091,5.1091,5.1141,5.1166,5.1166,5.1262,5.1343,5.1343,5.1366,5.1385,5.1311,5.1103,5.0952,0.0,5.0741,5.0605,0.0,5.0605,5.0605,5.0605,5.0605,5.0605,5.0605,5.0879,5.0879,5.0605,0.0,0.0,0.0,5.0898,5.1016,5.1035,5.1289,5.1406,5.1406,5.1406,5.1406,5.1387,5.1297,5.1111,5.0871,5.0779,5.0512,5.0128,4.9475,4.9181,4.9022,4.8423,4.823,4.8133,4.7577,4.705,4.6513,4.5854,4.5661,4.5644,4.5612,4.5594,4.5594,4.5594,4.5594,4.5594,4.5594,4.5594,4.5594,4.5594,4.5594,4.5594,4.5594,4.5594,4.5594,4.5594,4.5594,0.0,0.0,0.0,0.0,0.0,4.9995,5.0375,0.0,4.9496,0.0,0.0,0.0,0.0,0.0,0.0,0.0,0.0,4.8296,0.0,4.8296,4.8296,4.8296,4.8296,4.8296,4.8296,4.8296,4.8296,4.8296,4.8296,4.8296,4.8296,4.8296,4.8296,4.8055,4.7695,4.7695,4.7292,4.6641,4.6014,4.5656,4.5407,5.1187,5.119,5.1211,5.1211,5.1249,5.1271,5.1271,5.1344,5.1406,5.1406,5.1406,5.1406,5.1406,5.1406,0.0,5.1406,5.1406,5.1406,5.1406,5.1406,5.1406,5.1406,5.1406,5.1406,5.1406,5.1406,0.0,5.1406,5.1406,5.1406,5.1406,5.1406,5.1406,5.1406,5.1406,5.1406,5.1406,5.1406,5.1366,5.132,5.1237,5.1187,5.1147,5.1069,5.0969,5.082,5.0225,4.995,4.9803,4.926,4.9086,4.9029,4.8682,4.8277,4.7723,4.6803,4.6533,4.6533,4.6533,4.6533,4.6475,4.6167,4.609,4.5994,4.5667,4.5594,4.5594,4.5594,4.5594,4.5594,4.5594,4.5879,4.609,4.609,4.634,4.6721,4.7274,0.0,0.0,0.0,0.0,0.0,0.0,4.9496,4.9174,0.0,0.0,0.0,0.0,0.0,0.0,4.8296,4.8296,0.0,4.8296,4.8296,4.8296,4.8296,4.8296,4.8296,4.8296,4.8296,4.8296,4.8296,4.8296,4.8296,4.8296,4.8296,4.7937,4.7396,4.7396,4.6853,4.6026,4.5648,4.5359,4.5115,5.1541,5.1456,5.1484,0.0,5.1445,0.0,5.1406,5.1406,5.1406,5.1406,5.1406,5.1406,5.1406,5.1406,5.1406,5.1406,0.0,0.0,0.0,5.1406,5.1406,5.1406,5.1406,5.1406,5.1406,5.1406,5.1406,5.1406,5.1406,5.1406,5.1406,5.1406,5.1406,5.1406,5.1406,5.1406,5.1406,5.1386,5.1319,5.1202,5.1173,5.1138,5.1063,5.0942,5.089,5.0863,5.0734,5.0707,5.0707,5.0707,5.0707,5.0553,4.9745,4.949,4.9317,4.8375,4.8101,4.8101,4.8101,4.8101,4.7928,4.7178,4.6985,4.6774,4.5956,4.5763,4.5763,4.5763,4.5763,4.5763,4.5763,4.6432,4.6985,4.6985,4.7601,4.812,4.8178,0.0,0.0,0.0,0.0,0.0,0.0,4.9467,4.9142,0.0,0.0,0.0,0.0,0.0,4.8296,4.8296,4.8296,4.8296,4.8296,4.8296,4.8296,4.8296,4.8296,4.8296,4.8296,4.8296,4.8296,4.8296,4.8296,4.8296,4.8296,4.8296,4.7917,4.7331,4.7331,4.6554,4.5433,4.5433,4.5075,4.4615,0.0,0.0,5.2383,5.2383,5.1836,5.1406,5.1406,5.1406,5.1406,5.1406,5.1406,5.1406,5.1406,5.1406,5.1406,5.1406,5.1406,5.1406,5.1406,5.1406,5.1406,5.1406,5.1406,5.1406,5.1406,5.1406,5.1406,5.1406,5.1406,5.1406,5.1406,5.1406,5.1406,5.1406,5.1406,5.1406,5.1387,5.1294,5.1235,5.1194,5.1032,5.0953,5.0935,5.0808,5.0758,5.073,5.0712,5.0707,5.0707,5.0707,5.0707,5.0649,5.0457,5.038,5.0091,4.8548,4.8101,4.8101,4.8101,4.8101,4.8043,4.7851,4.7812,4.7755,4.7567,4.7509,4.7509,4.7509,4.7509,4.7509,4.7509,4.7678,4.7812,4.7812,4.7985,4.8332,4.899,4.926,0.0,0.0,5.0311,5.0049,4.954,4.9226,4.8839,0.0,0.0,0.0,0.0,4.8296,4.8296,4.8296,4.8296,4.8296,4.8296,4.8296,4.8296,4.8296,4.8296,4.8296,4.8296,4.8296,4.8296,4.8296,4.8296,4.8296,4.8296,4.8296,4.7638,4.6641,4.6641,4.5895,4.4814,4.4814,4.472,4.4615,5.4062,5.3613,5.3281,5.3281,5.2578,5.1992,5.1992,5.166,5.1406,5.1406,5.1406,5.1406,5.1406,5.1406,5.1406,5.1406,5.1406,5.1406,5.1406,5.1406,5.1406,5.1406,5.1406,5.1406,5.1406,5.1406,5.1406,5.1406,5.1406,5.1406,5.1406,5.1406,5.1406,5.1406,5.1343,5.1318,5.1297,5.1203,5.1121,5.104,5.0933,5.0856,5.0793,5.0721,5.0707,5.0707,5.0707,5.0707,5.0707,5.0707,5.0707,5.0707,5.0707,5.0707,5.0515,4.9572,4.9298,4.9298,4.9298,4.9298,4.9183,4.8798,4.8394,4.8101,4.8101,4.8101,4.8101,4.8101,4.8101,4.8101,4.8101,4.8432,4.8682,4.8682,4.9029,4.9452,4.9938,4.9995,0.0,5.038,5.0237,4.9859,4.9288,4.9019,4.8727,4.8335,4.8296,0.0,4.8296,4.8296,4.8296,4.8296,4.8296,4.8296,4.8296,4.8296,4.8296,4.8296,4.8296,4.8296,4.8296,4.8296,4.8296,4.8296,4.8296,4.8296,4.8277,4.7997,4.7302,4.6383,4.6112,4.542,4.4615,4.4615,4.4615,4.4615,5.4531,5.4297,5.4199,5.4199,5.3476,5.2851,5.2715,5.207,5.1543,5.1426,5.1406,5.1406,5.1406,5.1406,5.1406,5.1406,5.1406,5.1406,5.1406,5.1406,5.1406,5.1406,5.1406,5.1406,5.1406,5.1406,5.1406,5.1406,5.1406,5.1406,5.1406,5.1406,5.1386,5.1366,5.1243,5.1197,5.1181,5.1098,5.1007,5.0905,5.0875,5.0793,5.0707,5.0707,5.0707,5.0707,5.0707,5.0707,5.0707,5.0707,5.0707,5.0707,5.0707,5.0707,5.0707,5.0707,5.0707,5.0707,5.0707,5.0707,5.0515,4.9784,4.9048,4.849,4.849,4.849,4.849,4.849,4.849,4.849,4.849,4.9106,4.961,4.961,5.0226,5.0707,5.0707,0.0,5.0483,5.0147,4.9987,4.9652,4.898,4.8856,4.8666,4.8335,4.8296,4.8296,4.8296,4.8296,4.8296,4.8296,4.8296,4.8296,4.8296,4.8296,4.8296,4.8296,4.8296,4.8296,4.8296,4.8296,4.8296,4.8296,4.8296,4.8258,4.8114,4.7614,4.6955,4.6204,4.5694,4.5129,4.4615,4.4615,4.4615,4.4615,5.6211,5.5605,5.5098,5.5098,5.4375,5.3555,5.2812,5.2598,5.2226,5.1504,5.1406,5.1406,5.1406,5.1406,5.1406,5.1406,5.1406,5.1406,5.1406,5.1406,5.1406,5.1406,5.1406,5.1406,5.1406,5.1406,5.1406,5.1406,5.1406,5.1406,5.1406,5.1406,5.1343,5.1235,5.1207,5.1166,5.1113,5.0988,5.0918,5.0894,5.0769,5.0726,5.0707,5.0707,5.0707,5.0707,5.0707,5.0707,5.0707,5.0707,5.0707,5.0707,5.0707,5.0707,5.0707,5.0707,5.0707,5.0707,5.0707,5.0707,5.0668,5.0534,5.0399,5.0303,5.0303,5.0303,5.0303,5.0303,5.0303,5.0303,5.0303,5.0418,5.0495,5.0495,5.0611,5.0707,5.0707,0.0,5.0171,5.0098,4.9504,4.9035,4.8913,4.8595,4.8373,4.8306,4.8296,4.8296,4.8296,4.8296,4.8296,4.8296,4.8296,4.8296,4.8296,4.8296,4.8296,4.8296,4.8296,4.8296,4.8296,4.8296,4.8296,4.8296,4.8296,4.8015,4.753,4.7438,4.6705,4.5635,4.555,4.5129,4.4615,4.4615,4.4615,4.4615,5.6601,5.6289,5.5996,5.5996,5.5273,5.4414,5.3535,5.3008,5.2383,5.1504,5.1406,5.1406,5.1406,5.1406,5.1406,5.1406,5.1406,5.1406,5.1406,5.1406,5.1406,5.1406,5.1406,5.1406,5.1406,5.1406,5.1406,5.1406,5.1406,5.1365,5.1295,5.1295,5.1231,5.1133,5.1072,5.1023,5.0982,5.0851,5.0799,5.0791,5.0716,5.0707,5.0707,5.0707,5.0707,5.0707,5.0707,5.0707,5.0707,5.0707,5.0707,5.0707,5.0707,5.0707,5.0707,5.0707,5.0707,5.0707,5.0707,5.0707,5.0707,5.0707,5.0707,5.0707,5.0707,5.0707,5.0707,5.0707,5.0707,5.0707,5.0707,5.0707,5.0707,5.0707,5.0707,0.0,0.0,5.0225,4.9943,4.9511,4.9131,4.8803,4.8604,4.8402,4.8296,4.8296,4.8296,4.8296,4.8296,4.8296,4.8296,4.8296,4.8296,4.8296,4.8296,4.8296,4.8296,4.8296,4.8296,4.8296,4.8296,4.8296,4.8296,4.8287,4.7957,4.7664,4.7353,4.6659,4.6032,4.5472,4.5142,4.4855,4.4615,4.4615,4.4615,4.4615,5.6601,5.6601,5.6601,5.6601,5.6055,5.5312,5.4433,5.3555,5.2695,5.1816,5.1523,5.1406,5.1406,5.1406,5.1406,5.1406,5.1406,5.1406,5.1406,5.1406,5.1406,5.1406,5.1406,5.1406,5.1406,5.1406,5.1406,5.1406,5.1366,5.1297,5.1202,5.1185,5.1127,5.1059,5.0952,5.0882,5.0847,5.073,5.0707,5.0707,5.0707,5.0707,5.0707,5.0707,5.0707,5.0707,5.0707,5.0707,5.0707,5.0707,5.0707,5.0707,5.0707,5.0707,5.0707,5.0707,5.0707,5.0707,5.0707,5.0707,5.0707,5.0707,5.0707,5.0707,5.0707,5.0707,5.0707,5.0707,5.0707,5.0707,5.0707,5.0707,5.0668,5.0589,0.0,0.0,0.0,4.9872,4.9596,4.8961,4.883,4.863,4.8335,4.8296,4.8296,4.8296,4.8296,4.8296,4.8296,4.8296,4.8296,4.8296,4.8296,4.8296,4.8296,4.8296,4.8296,4.8296,4.8296,4.8296,4.8296,4.8296,4.8296,4.8277,4.7656,4.732,4.7084,4.597,4.542,4.5245,4.4772,4.4615,4.4615,4.4615,4.4615,4.4615,5.6601,5.6601,5.6601,5.6601,5.6543,5.6211,5.5332,5.4453,5.3594,5.2715,5.1894,5.1406,5.1406,5.1406,5.1406,5.1406,5.1406,5.1406,5.1406,5.1406,5.1406,5.1406,5.1406,5.1406,5.1406,5.1406,5.1406,5.1406,5.1271,5.1207,5.1201,5.1139,5.1034,5.0911,5.0896,5.0823,5.0717,5.0697,5.0707,5.0707,5.0707,5.0707,5.0707,5.0707,5.0707,5.0707,5.0707,5.0707,5.0707,5.0707,5.0707,5.0707,5.0707,5.0707,5.0707,5.0707,5.0707,5.0707,5.0707,5.0707,5.0707,5.0707,5.0707,5.0707,5.0707,5.0707,5.0707,5.0707,5.0707,5.0707,5.0707,5.0707,5.0589,5.0195,0.0,0.0,4.9589,4.9226,4.898,4.8913,4.8568,4.8326,4.8306,4.8296,4.8296,4.8296,4.8296,4.8296,4.8296,4.8296,4.8296,4.8296,4.8296,4.8296,4.8296,4.8296,4.8296,4.8296,4.8296,4.8296,4.8296,4.8296,4.8296,4.8277,4.7656,4.7044,4.643,4.577,4.5165,4.4668,4.4612,4.4615,4.4615,4.4615,4.4615,4.4615,5.6601,5.6601,5.6601,5.6601,5.6601,5.6308,5.543,5.4551,5.3691,5.2812,5.1933,5.1406,5.1406,5.1406,5.1406,5.1406,5.1406,5.1406,5.1406,5.1406,5.1406,5.1406,5.1406,5.1406,5.1406,5.1406,5.1406,5.1406,5.1268,5.118,5.1139,5.1028,5.0896,5.0788,5.0788,5.0758,5.0707,5.0707,5.0707,5.0707,5.0707,5.0707,5.0707,5.0707,5.0707,5.0707,5.0707,5.0707,5.0707,5.0707,5.0707,5.0707,5.0707,5.0707,5.0707,5.0707,5.0707,5.0707,5.0707,5.0707,5.0707,5.0707,5.0707,5.0707,5.0707,5.0707,5.0707,5.0707,5.0707,5.0619,5.0364,5.033,5.0208,4.9793,0.0,4.9582,4.9187,4.9005,4.8813,4.8568,4.8383,4.8296,4.8296,4.8296,4.8296,4.8296,4.8296,4.8296,4.8296,4.8296,4.8296,4.8296,4.8296,4.8296,4.8296,4.8296,4.8296,4.8296,4.8296,4.8296,4.8296,4.8296,4.8296,4.8277,4.7656,4.7248,4.6943,4.592,4.5355,4.5129,4.4748,4.4615,4.4615,4.4615,4.4615,4.4615,5.6601,5.6601,5.6601,5.6601,5.6601,5.6406,5.5801,5.4746,5.3789,5.3183,5.2109,5.1406,5.1406,5.1406,5.1406,5.1406,5.1406,5.1406,5.1406,5.1406,5.1406,5.1406,5.1406,5.1406,5.1406,5.1406,5.1386,5.1343,5.1223,5.1115,5.1022,5.0908,5.0791,5.0707,5.0707,5.0707,5.0707,5.0707,5.0707,5.0707,5.0707,5.0707,5.0707,5.0707,5.0707,5.0707,5.0707,5.0707,5.0707,5.0707,5.0707,5.0707,5.0707,5.0707,5.0707,5.0707,5.0707,5.0707,5.0707,5.0707,5.0707,5.0707,5.0707,5.0707,5.0707,5.0707,5.0707,5.0707,5.0604,5.0426,5.0153,5.0006,4.978,4.9378,4.9311,4.9171,4.877,4.87,4.8613,4.8326,4.8296,4.8296,4.8296,4.8296,4.8296,4.8296,4.8296,4.8296,4.8296,4.8296,4.8296,4.8296,4.8296,4.8296,4.8296,4.8296,4.8296,4.8296,4.8296,4.8296,4.8296,4.8296,4.8296,4.8277,4.7656,4.7396,4.732,4.6233,4.5673,4.5459,4.5035,4.4776,4.4615,4.4615,4.4615,4.4615,5.6601,5.6601,5.6601,5.6601,5.6601,5.6601,5.6601,5.5117,5.4004,5.4004,5.248,5.1406,5.1406,5.1406,5.1406,5.1406,5.1406,5.1406,5.1406,5.1406,5.1406,5.1406,5.1406,5.1406,5.1406,5.1406,5.1323,5.1202,5.1133,5.1039,5.0905,5.0766,5.0707,5.0707,5.0707,5.0707,5.0707,5.0707,5.0707,5.0707,5.0707,5.0707,5.0707,5.0707,5.0707,5.0707,5.0707,5.0707,5.0707,5.0707,5.0707,5.0707,5.0707,5.0707,5.0707,5.0707,5.0707,5.0707,5.0707,5.0707,5.0707,5.0707,5.0707,5.0707,5.0707,5.0707,5.0707,5.0707,5.0375,5.0098,5.0092,4.9773,4.9371,4.8972,4.8905,4.8753,4.8354,4.8296,4.8296,4.8296,4.8296,4.8296,4.8296,4.8296,4.8296,4.8296,4.8296,4.8296,4.8296,4.8296,4.8296,4.8296,4.8296,4.8296,4.8296,4.8296,4.8296,4.8296,4.8296,4.8296,4.8296,4.8296,4.8296,4.8277,4.7674,4.7406,4.7363,4.6687,4.6046,4.5511,4.5511,4.5129,4.4615,4.4615,4.4615,4.4615,5.6601,5.6601,5.6601,5.6601,5.6601,5.6601,5.6601,5.5117,5.4004,5.4004,5.248,5.1406,5.1406,5.1406,5.1406,5.1406,5.1406,5.1406,5.1406,5.1406,5.1406,5.1406,5.1406,5.1406,5.1406,5.1406,5.1323,5.1202,5.1133,5.1039,5.0905,5.0766,5.0707,5.0707,5.0707,5.0707,5.0707,5.0707,5.0707,5.0707,5.0707,5.0707,5.0707,5.0707,5.0707,5.0707,5.0707,5.0707,5.0707,5.0707,5.0707,5.0707,5.0707,5.0707,5.0707,5.0707,5.0707,5.0707,5.0707,5.0707,5.0707,5.0707,5.0707,5.0707,5.0707,5.0707,5.0707,5.0707,5.0604,5.0432,5.0153,4.9993,4.9706,4.9002,4.8905,4.8753,4.8354,4.8296,4.8296,4.8296,4.8296,4.8296,4.8296,4.8296,4.8296,4.8296,4.8296,4.8296,4.8296,4.8296,4.8296,4.8296,4.8296,4.8296,4.8296,4.8296,4.8296,4.8296,4.8296,4.8296,4.8296,4.8296,4.8296,4.8296,4.8104,4.8035,4.7977,4.7363,4.671,4.61,4.5673,4.5129,4.4615,4.4615,4.4615,4.4615,5.6601,5.6601,5.6601,5.6601,5.6601,5.6484,5.6133,5.4902,5.3887,5.3535,5.2266,5.1406,5.1406,5.1406,5.1406,5.1406,5.1406,5.1406,5.1406,5.1406,5.1406,5.1406,5.1406,5.1406,5.1406,5.1406,5.1318,5.1156,5.1129,5.1007,5.0822,5.074,5.0707,5.0707,5.0707,5.0707,5.0707,5.0707,5.0707,5.0707,5.0707,5.0707,5.0707,5.0707,5.0707,5.0707,5.0707,5.0707,5.0707,5.0707,5.0707,5.0707,5.0707,5.0707,5.0707,5.0707,5.0707,5.0707,5.0707,5.0707,5.0707,5.0707,5.0707,5.0707,5.0707,5.0707,5.0707,5.0707,5.0565,5.0341,4.9936,4.974,4.9404,4.877,4.8657,4.8577,4.8326,4.8296,4.8296,4.8296,4.8296,4.8296,4.8296,4.8296,4.8296,4.8296,4.8296,4.8296,4.8296,4.8296,4.8296,4.8296,4.8296,4.8296,4.8296,4.8296,4.8296,4.8296,4.8296,4.8296,4.8296,4.8296,4.8296,4.8296,4.8296,4.8296,4.8277,4.7907,4.7226,4.6371,4.6002,4.5346,4.4615,4.4615,4.4615,4.4615,5.6601,5.6601,5.6601,5.6601,5.6601,5.6308,5.543,5.4551,5.3691,5.2812,5.1933,5.1406,5.1406,5.1406,5.1406,5.1406,5.1406,5.1406,5.1406,5.1406,5.1406,5.1406,5.1406,5.1406,5.1406,5.1386,5.1283,5.1091,5.1098,5.0959,5.0707,5.0707,5.0707,5.0707,5.0707,5.0707,5.0707,5.0707,5.0707,5.0707,5.0707,5.0707,5.0707,5.0707,5.0707,5.0707,5.0707,5.0707,5.0707,5.0707,5.0707,5.0707,5.0707,5.0707,5.0707,5.0707,5.0707,5.0707,5.0707,5.0707,5.0707,5.0707,5.0707,5.0707,5.0707,5.0707,5.0707,5.0707,5.0369,4.9981,4.961,4.9226,4.883,4.8421,4.8354,4.8335,4.8306,4.8296,4.8296,4.8296,4.8296,4.8296,4.8296,4.8296,4.8296,4.8296,4.8296,4.8296,4.8296,4.8296,4.8296,4.8296,4.8296,4.8296,4.8296,4.8296,4.8296,4.8296,4.8296,4.8296,4.8296,4.8296,4.8296,4.8296,4.8296,4.8296,4.8296,4.8296,4.7554,4.6407,4.6407,4.5673,4.4615,4.4615,4.4615,4.4615,5.6601,5.6601,5.6601,5.6601,5.6601,5.6308,5.543,5.4551,5.3691,5.2812,5.1933,5.1406,5.1406,5.1406,5.1406,5.1406,5.1406,5.1406,5.1406,5.1406,5.1406,5.1406,5.1406,5.1406,5.1406,5.1296,5.1202,5.1091,5.0994,5.0867,5.0707,5.0707,5.0707,5.0707,5.0707,5.0707,5.0707,5.0707,5.0707,5.0707,5.0707,5.0707,5.0707,5.0707,5.0707,5.0707,5.0707,5.0707,5.0707,5.0707,5.0707,5.0707,5.0707,5.0707,5.0707,5.0707,5.0707,5.0707,5.0707,5.0707,5.0707,5.0707,5.0707,5.0707,5.0707,5.0707,5.0707,5.0707,5.0369,5.0074,5.0,4.9631,4.9241,4.8839,4.877,4.8657,4.8335,4.8296,4.8296,4.8296,4.8296,4.8296,4.8296,4.8296,4.8296,4.8296,4.8296,4.8296,4.8296,4.8296,4.8296,4.8296,4.8296,4.8296,4.8296,4.8296,4.8296,4.8296,4.8296,4.8296,4.8296,4.8296,4.8296,4.8296,4.8296,4.8296,4.8296,4.8296,4.7554,4.6407,4.6407,4.5673,4.4615,4.4615,4.4615,4.4615,5.6601,5.6601,5.6601,5.6601,5.6601,5.6172,5.4883,5.4297,5.3535,5.2246,5.168,5.1406,5.1406,5.1406,5.1406,5.1406,5.1406,5.1406,5.1406,5.1406,5.1406,5.1406,5.1406,5.1406,5.1406,5.1244,5.1137,5.1091,5.0979,5.0823,5.0707,5.0707,5.0707,5.0707,5.0707,5.0707,5.0707,5.0707,5.0707,5.0707,5.0707,5.0707,5.0707,5.0707,5.0707,5.0707,5.0707,5.0707,5.0707,5.0707,5.0707,5.0707,5.0707,5.0707,5.0707,5.0707,5.0707,5.0707,5.0707,5.0707,5.0707,5.0707,5.0707,5.0707,5.0707,5.0707,5.0707,5.0707,5.0369,5.0043,4.984,4.9489,4.9075,4.8675,4.8604,4.855,4.8335,4.8296,4.8296,4.8296,4.8296,4.8296,4.8296,4.8296,4.8296,4.8296,4.8296,4.8296,4.8296,4.8296,4.8296,4.8296,4.8296,4.8296,4.8296,4.8296,4.8296,4.8296,4.8296,4.8296,4.8296,4.8296,4.8296,4.8296,4.8296,4.8296,4.8296,4.8296,4.7738,4.6853,4.6524,4.5845,4.4998,4.4706,4.4615,4.4615,5.6601,5.6601,5.6601,5.6601,5.6601,5.6015,5.4277,5.4004,5.3379,5.1621,5.1406,5.1406,5.1406,5.1406,5.1406,5.1406,5.1406,5.1406,5.1406,5.1406,5.1406,5.1406,5.1406,5.1406,5.1406,5.1203,5.1091,5.1091,5.0949,5.0805,5.0707,5.0707,5.0707,5.0707,5.0707,5.0707,5.0707,5.0707,5.0707,5.0707,5.0707,5.0707,5.0707,5.0707,5.0707,5.0707,5.0707,5.0707,5.0707,5.0707,5.0707,5.0707,5.0707,5.0707,5.0707,5.0707,5.0707,5.0707,5.0707,5.0707,5.0707,5.0707,5.0707,5.0707,5.0707,5.0707,5.0707,5.0707,5.0369,4.9974,4.9568,4.9171,4.877,4.8364,4.8296,4.8296,4.8296,4.8296,4.8296,4.8296,4.8296,4.8296,4.8296,4.8296,4.8296,4.8296,4.8296,4.8296,4.8296,4.8296,4.8296,4.8296,4.8296,4.8296,4.8296,4.8296,4.8296,4.8296,4.8296,4.8296,4.8296,4.8296,4.8296,4.8296,4.8296,4.8296,4.8296,4.8296,4.7937,4.7342,4.6796,4.6209,4.5584,4.4971,4.4679,4.4615,5.6601,5.6601,5.6601,5.6601,5.6601,5.6015,5.4277,5.4004,5.3379,5.1621,5.1406,5.1406,5.1406,5.1406,5.1406,5.1406,5.1406,5.1406,5.1406,5.1406,5.1406,5.1406,5.1406,5.1406,5.1406,5.1203,5.1091,5.1091,5.0851,5.0721,5.0707,5.0707,5.0707,5.0707,5.0707,5.0707,5.0707,5.0707,5.0707,5.0707,5.0707,5.0707,5.0707,5.0707,5.0707,5.0707,5.0707,5.0707,5.0707,5.0707,5.0707,5.0707,5.0707,5.0707,5.0707,5.0707,5.0707,5.0707,5.0707,5.0707,5.0707,5.0707,5.0707,5.0707,5.0707,5.0707,5.0707,5.0707,5.0369,4.9974,4.9568,4.9171,4.877,4.8364,4.8296,4.8296,4.8296,4.8296,4.8296,4.8296,4.8296,4.8296,4.8296,4.8296,4.8296,4.8296,4.8296,4.8296,4.8296,4.8296,4.8296,4.8296,4.8296,4.8296,4.8296,4.8296,4.8296,4.8296,4.8296,4.8296,4.8296,4.8296,4.8296,4.8296,4.8296,4.8296,4.8296,4.8296,4.7937,4.7385,4.731,4.6864,4.6204,4.5597,4.5052,4.4615,5.6601,5.6601,5.6601,5.6601,5.6601,5.6015,5.4277,5.4004,5.3379,5.1621,5.1406,5.1406,5.1406,5.1406,5.1406,5.1406,5.1406,5.1406,5.1406,5.1406,5.1406,5.1406,5.1406,5.1366,5.1294,5.1158,5.1053,5.0988,5.0784,5.0707,5.0707,5.0707,5.0707,5.0707,5.0707,5.0707,5.0707,5.0707,5.0707,5.0707,5.0707,5.0707,5.0707,5.0707,5.0707,5.0707,5.0707,5.0707,5.0707,5.0707,5.0707,5.0707,5.0707,5.0707,5.0707,5.0707,5.0707,5.0707,5.0707,5.0707,5.0707,5.0707,5.0707,5.0707,5.0707,5.0707,5.0707,5.0707,5.0195,4.9712,4.9525,4.8988,4.8504,4.8335,4.8296,4.8296,4.8296,4.8296,4.8296,4.8296,4.8296,4.8296,4.8296,4.8296,4.8296,4.8296,4.8296,4.8296,4.8296,4.8296,4.8296,4.8296,4.8296,4.8296,4.8296,4.8296,4.8296,4.8296,4.8296,4.8296,4.8296,4.8296,4.8296,4.8296,4.8296,4.8296,4.8296,4.8296,4.8152,4.7877,4.753,4.6785,4.5853,4.5597,4.5115,4.4615]}]]